[[{"header":{"parameterUnit":"m.s-1","parameterCategory":1,"la1":31.0,"la2":29.5877,"lo1":-88.7671,"lo2":-86.6584,"dy":0.0162,"dx":0.0185,"nx":115,"ny":88,"refTime":"2026-05-09T00:00:00:Z","depth":0,"parameterNumber":2,"parameterNumberName":"U-component_of_WINDS"},"data":[0.0,0.0,0.0,0.0,0.0,0.0,0.0,0.0,0.0,0.0,0.0,0.0,0.0,0.0,0.0,0.0,0.0,0.0,0.0,0.0,0.0,0.0,0.0,0.0,0.0,0.0,0.0,0.0,0.0,0.0,0.0,0.0,0.0,0.0,0.0,0.0,0.0,0.0,0.0,0.0,0.0,0.0,0.0,0.0,0.0,0.0,0.0,0.0,0.0,0.0,0.0,0.0,0.0,0.0,0.0,0.0,0.0,0.0,0.0,0.0,0.0,0.0,0.0,0.0,0.0,0.0,0.0,0.0,0.0,0.0,0.0,0.0,0.0,0.0,0.0,0.0,0.0,0.0,0.0,0.0,0.0,0.0,0.0,0.0,0.0,0.0,0.0,0.0,0.0,0.0,0.0,0.0,0.0,0.0,0.0,0.0,0.0,0.0,0.0,0.0,0.0,0.0,0.0,0.0,0.0,0.0,0.0,0.0,0.0,0.0,0.0,0.0,0.0,0.0,0.0,0.0,0.0,0.0,0.0,0.0,0.0,0.0,0.0,0.0,0.0,0.0,0.0,0.0,0.0,0.0,0.0,0.0,0.0,0.0,0.0,0.0,0.0,0.0,0.0,0.0,0.0,0.0,0.0,0.0,0.0,0.0,0.0,0.0,0.0,0.0,0.0,0.0,0.0,0.0,0.0,0.0,0.0,0.0,0.0,0.0,0.0,0.0,0.0,0.0,0.0,0.0,0.0,0.0,0.0,0.0,0.0,0.0,0.0,0.0,0.0,0.0,0.0,0.0,0.0,0.0,0.0,0.0,0.0,0.0,0.0,0.0,0.0,0.0,0.0,0.0,0.0,0.0,0.0,0.0,0.0,0.0,0.0,0.0,0.0,0.0,0.0,0.0,0.0,0.0,0.0,0.0,0.0,0.0,0.0,0.0,0.0,0.0,0.0,0.0,0.0,0.0,0.0,0.0,0.0,0.0,0.0,0.0,0.0,0.0,0.0,0.0,0.0,0.0,0.0,0.0,0.0,0.0,0.0,0.0,0.0,0.0,0.0,0.0,0.0,0.0,0.0,0.0,0.0,0.0,0.0,0.0,0.0,0.0,0.0,0.0,0.0,0.0,0.0,0.0,0.0,0.0,0.0,0.0,0.0,0.0,0.0,0.0,0.0,0.0,0.0,0.0,0.0,0.0,0.0,0.0,0.0,0.0,0.0,0.0,0.0,0.0,0.0,0.0,0.0,0.0,0.0,0.0,0.0,0.0,0.0,0.0,0.0,0.0,0.0,0.0,0.0,0.0,0.0,0.0,0.0,0.0,0.0,0.0,0.0,0.0,0.0,0.0,0.0,0.0,0.0,0.0,0.0,0.0,0.0,0.0,0.0,0.0,0.0,0.0,0.0,0.0,0.0,0.0,0.0,0.0,0.0,0.0,0.0,0.0,0.0,0.0,0.0,0.0,0.0,0.0,0.0,0.0,0.0,0.0,0.0,0.0,0.0,0.0,0.0,0.0,0.0,0.0,0.0,0.0,0.0,0.0,0.0,0.0,0.0,0.0,0.0,0.0,0.0,0.0,0.0,0.0,0.0,0.0,0.0,0.0,0.0,0.0,0.0,0.0,0.0,0.0,0.0,0.0,0.0,0.0,0.0,0.0,0.0,0.0,0.0,0.0,0.0,0.0,0.0,0.0,0.0,0.0,0.0,0.0,0.0,0.0,0.0,0.0,0.0,0.0,0.0,0.0,0.0,0.0,0.0,0.0,0.0,0.0,0.0,0.0,0.0,0.0,0.0,0.0,0.0,0.0,0.0,0.0,0.0,0.0,0.0,0.0,0.0,0.0,0.0,0.0,0.0,0.0,0.0,0.0,0.0,0.0,0.0,0.0,0.0,0.0,0.0,0.0,0.0,0.0,0.0,0.0,0.0,0.0,0.0,0.0,0.0,0.0,0.0,0.0,0.0,0.0,0.0,0.0,0.0,0.0,0.0,0.0,0.0,0.0,0.0,0.0,0.0,0.0,0.0,0.0,0.0,0.0,0.0,0.0,0.0,0.0,0.0,0.0,0.0,0.0,0.0,0.0,0.0,0.0,0.0,0.0,0.0,0.0,0.0,0.0,0.0,0.0,0.0,0.0,0.0,0.0,0.0,0.0,0.0,0.0,0.0,0.0,0.0,0.0,0.0,0.0,0.0,0.0,0.0,0.0,0.0,0.0,0.0,0.0,0.0,0.0,0.0,0.0,0.0,0.0,0.0,0.0,0.0,0.0,0.0,0.0,0.0,0.0,0.0,0.0,0.0,0.0,0.0,0.0,0.0,0.0,0.0,0.0,0.0,0.0,0.0,0.0,0.0,0.0,0.0,0.0,0.0,0.0,0.0,0.0,0.0,0.0,0.0,0.0,0.0,0.0,0.0,0.0,0.0,0.0,0.0,0.0,0.0,0.0,0.0,0.0,0.0,0.0,0.0,0.0,0.0,0.0,0.0,0.0,0.0,0.0,0.0,0.0,0.0,0.0,0.0,0.0,0.0,0.0,0.0,0.0,0.0,0.0,0.0,0.0,0.0,0.0,0.0,0.0,0.0,0.0,0.0,0.0,0.0,0.0,0.0,0.0,0.0,0.0,0.0,0.0,0.0,0.0,0.0,0.0,0.0,0.0,0.0,0.0,0.0,0.0,0.0,0.0,0.0,0.0,0.0,0.0,0.0,0.0,0.0,0.0,0.0,0.0,0.0,0.0,0.0,0.0,0.0,0.0,0.0,0.0,0.0,0.0,0.0,0.0,0.0,0.0,0.0,0.0,0.0,0.0,0.0,0.0,0.0,0.0,0.0,0.0,0.0,0.0,0.0,0.0,0.0,0.0,0.0,0.0,0.0,0.0,0.0,0.0,0.0,0.0,0.0,0.0,0.0,0.0,0.0,0.0,0.0,0.0,0.0,0.0,0.0,0.0,0.0,0.0,0.0,0.0,0.0,0.0,0.0,0.0,0.0,0.0,0.0,0.0,0.0,0.0,0.0,0.0,0.0,0.0,0.0,0.0,0.0,0.0,0.0,0.0,0.0,0.0,0.0,0.0,0.0,0.0,0.0,0.0,0.0,0.0,0.0,0.0,0.0,0.0,0.0,0.0,0.0,0.0,0.0,0.0,0.0,0.0,0.0,0.0,0.0,0.0,0.0,0.0,0.0,0.0,0.0,0.0,0.0,0.0,0.0,0.0,0.0,0.0,0.0,0.0,0.0,0.0,0.0,0.0,0.0,0.0,0.0,0.0,0.0,0.0,0.0,0.0,0.0,0.0,0.0,0.0,0.0,0.0,0.0,0.0,0.0,0.0,0.0,0.0,0.0,0.0,0.0,0.0,0.0,0.0,0.0,0.0,0.0,0.0,0.0,0.0,0.0,0.0,0.0,0.0,0.0,0.0,0.0,0.0,0.0,0.0,0.0,0.0,0.0,0.0,0.0,0.0,0.0,0.0,0.0,0.0,0.0,0.0,0.0,0.0,0.0,0.0,0.0,0.0,0.0,0.0,0.0,0.0,0.0,0.0,0.0,0.0,0.0,0.0,0.0,0.0,0.0,0.0,0.0,0.0,0.0,0.0,0.0,0.0,0.0,0.0,0.0,0.0,0.0,0.0,0.0,0.0,0.0,0.0,0.0,0.0,0.0,0.0,0.0,0.0,0.0,0.0,0.0,0.0,0.0,0.0,0.0,0.0,0.0,0.0,0.0,0.0,0.0,0.0,0.0,0.0,0.0,0.0,0.0,0.0,0.0,0.0,0.0,0.0,0.0,0.0,0.0,0.0,0.0,0.0,0.0,0.0,0.0,0.0,0.0,0.0,0.0,0.0,0.0,0.0,0.0,0.0,0.0,0.0,0.0,0.0,0.0,0.0,0.0,0.0,0.0,0.0,0.0,0.0,0.0,0.0,0.0,0.0,0.0,0.0,0.0,0.0,0.0,0.0,0.0,0.0,0.0,0.0,0.0,0.0,0.0,0.0,0.0,0.0,0.0,0.0,0.0,0.0,0.0,0.0,0.0,0.0,0.0,0.0,0.0,0.0,0.0,0.0,0.0,0.0,0.0,0.0,0.0,0.0,0.0,0.0,0.0,0.0,0.0,0.0,0.0,0.0,0.0,0.0,0.0,0.0,0.0,0.0,0.0,0.0,0.0,0.0,0.0,0.0,0.0,0.0,0.0,0.0,0.0,0.0,0.0,0.0,0.0,0.0,0.0,0.0,0.0,0.0,0.0,0.0,0.0,0.0,0.0,0.0,0.0,0.0,0.0,0.0,-2.6098,0.0,0.0,0.0,0.0,0.0,0.0,0.0,0.0,0.0,0.0,0.0,0.0,0.0,0.0,0.0,0.0,0.0,0.0,0.0,0.0,0.0,0.0,0.0,0.0,0.0,0.0,0.0,0.0,0.0,0.0,0.0,0.0,0.0,0.0,0.0,0.0,0.0,0.0,0.0,0.0,0.0,0.0,0.0,0.0,0.0,0.0,0.0,0.0,0.0,0.0,0.0,0.0,0.0,0.0,0.0,0.0,0.0,0.0,0.0,0.0,0.0,0.0,0.0,0.0,0.0,0.0,0.0,0.0,0.0,0.0,0.0,0.0,0.0,0.0,0.0,0.0,0.0,0.0,0.0,0.0,0.0,0.0,0.0,0.0,0.0,0.0,0.0,0.0,0.0,0.0,0.0,0.0,0.0,0.0,0.0,0.0,0.0,0.0,0.0,0.0,0.0,0.0,0.0,0.0,0.0,0.0,0.0,0.0,0.0,0.0,-2.7294,-2.7294,-2.7204,-2.6878,-2.6282,0.0,0.0,0.0,0.0,0.0,0.0,0.0,0.0,0.0,0.0,0.0,0.0,0.0,0.0,0.0,0.0,0.0,0.0,0.0,0.0,0.0,0.0,0.0,0.0,0.0,0.0,0.0,0.0,0.0,0.0,0.0,0.0,0.0,0.0,0.0,0.0,0.0,0.0,0.0,0.0,0.0,0.0,0.0,0.0,0.0,0.0,0.0,0.0,0.0,0.0,0.0,0.0,0.0,0.0,0.0,0.0,0.0,0.0,0.0,0.0,0.0,0.0,0.0,0.0,0.0,0.0,0.0,0.0,0.0,0.0,0.0,0.0,0.0,0.0,0.0,0.0,0.0,0.0,0.0,0.0,0.0,0.0,0.0,0.0,0.0,0.0,0.0,0.0,0.0,0.0,0.0,0.0,0.0,0.0,0.0,0.0,0.0,0.0,0.0,0.0,0.0,0.0,0.0,0.0,0.0,0.0,0.0,0.0,0.0,0.0,0.0,0.0,-2.8325,-2.7523,-2.5996,0.0,0.0,0.0,0.0,0.0,0.0,0.0,0.0,0.0,0.0,0.0,0.0,0.0,0.0,0.0,0.0,0.0,0.0,0.0,0.0,0.0,0.0,0.0,0.0,0.0,0.0,0.0,0.0,0.0,0.0,0.0,0.0,0.0,0.0,0.0,0.0,0.0,0.0,0.0,0.0,0.0,0.0,0.0,0.0,0.0,0.0,0.0,0.0,0.0,0.0,0.0,0.0,0.0,0.0,0.0,0.0,0.0,0.0,0.0,0.0,0.0,0.0,0.0,0.0,0.0,0.0,0.0,0.0,0.0,0.0,0.0,0.0,0.0,0.0,0.0,0.0,0.0,0.0,0.0,0.0,0.0,0.0,0.0,0.0,0.0,0.0,0.0,0.0,0.0,0.0,0.0,0.0,0.0,0.0,0.0,0.0,0.0,0.0,0.0,0.0,0.0,0.0,0.0,0.0,0.0,0.0,0.0,0.0,0.0,0.0,-2.9371,-3.0154,-3.0142,0.0,-2.5251,0.0,0.0,0.0,0.0,0.0,0.0,0.0,0.0,0.0,0.0,0.0,0.0,0.0,0.0,0.0,0.0,0.0,0.0,0.0,0.0,0.0,0.0,0.0,0.0,0.0,0.0,0.0,0.0,0.0,0.0,0.0,0.0,0.0,0.0,0.0,0.0,0.0,0.0,0.0,0.0,0.0,0.0,0.0,0.0,0.0,0.0,0.0,0.0,0.0,0.0,0.0,0.0,0.0,0.0,0.0,0.0,0.0,0.0,0.0,0.0,0.0,0.0,0.0,0.0,0.0,0.0,0.0,0.0,0.0,0.0,0.0,0.0,0.0,0.0,0.0,0.0,0.0,0.0,0.0,0.0,0.0,0.0,0.0,0.0,0.0,0.0,0.0,0.0,0.0,0.0,0.0,0.0,0.0,0.0,0.0,0.0,0.0,0.0,0.0,0.0,0.0,0.0,0.0,0.0,0.0,0.0,0.0,0.0,0.0,0.0,-3.0325,-3.116,-3.0062,-2.779,0.0,0.0,0.0,0.0,0.0,0.0,0.0,0.0,0.0,0.0,0.0,0.0,0.0,0.0,0.0,0.0,0.0,0.0,0.0,0.0,0.0,0.0,0.0,0.0,0.0,0.0,0.0,0.0,0.0,0.0,0.0,0.0,0.0,0.0,0.0,0.0,0.0,0.0,0.0,0.0,0.0,0.0,0.0,0.0,0.0,0.0,0.0,0.0,0.0,0.0,0.0,0.0,0.0,0.0,0.0,0.0,0.0,0.0,0.0,0.0,0.0,0.0,0.0,0.0,0.0,0.0,0.0,0.0,0.0,0.0,0.0,0.0,0.0,0.0,0.0,0.0,0.0,0.0,0.0,0.0,0.0,0.0,0.0,0.0,0.0,0.0,0.0,0.0,0.0,0.0,0.0,0.0,0.0,0.0,0.0,0.0,0.0,0.0,0.0,0.0,0.0,0.0,0.0,0.0,0.0,0.0,0.0,0.0,0.0,0.0,-3.0684,-3.1134,-3.1583,-2.997,-2.7559,-2.4382,0.0,0.0,0.0,0.0,0.0,0.0,0.0,0.0,0.0,0.0,0.0,0.0,0.0,0.0,0.0,0.0,0.0,0.0,0.0,0.0,0.0,0.0,0.0,0.0,0.0,0.0,0.0,0.0,0.0,0.0,0.0,0.0,0.0,0.0,0.0,0.0,0.0,0.0,0.0,0.0,0.0,0.0,0.0,0.0,0.0,0.0,0.0,0.0,0.0,0.0,0.0,0.0,0.0,0.0,0.0,0.0,0.0,0.0,0.0,0.0,0.0,0.0,0.0,0.0,0.0,0.0,0.0,0.0,0.0,0.0,0.0,0.0,0.0,0.0,0.0,0.0,0.0,0.0,0.0,0.0,0.0,0.0,0.0,0.0,0.0,0.0,0.0,0.0,0.0,0.0,0.0,0.0,0.0,0.0,0.0,0.0,0.0,0.0,0.0,0.0,0.0,0.0,0.0,0.0,0.0,0.0,0.0,0.0,-3.2827,-3.2158,-3.1733,-3.1698,-3.0358,-2.8501,0.0,0.0,0.0,0.0,0.0,0.0,0.0,0.0,0.0,0.0,0.0,0.0,0.0,0.0,0.0,0.0,0.0,0.0,0.0,0.0,0.0,0.0,0.0,0.0,0.0,0.0,0.0,0.0,0.0,0.0,0.0,0.0,0.0,0.0,0.0,0.0,0.0,0.0,0.0,0.0,0.0,0.0,0.0,0.0,0.0,0.0,0.0,0.0,0.0,0.0,0.0,0.0,0.0,0.0,0.0,0.0,0.0,0.0,0.0,0.0,0.0,0.0,0.0,0.0,0.0,0.0,0.0,0.0,0.0,0.0,0.0,0.0,0.0,0.0,0.0,0.0,0.0,0.0,0.0,0.0,0.0,0.0,0.0,0.0,0.0,0.0,0.0,0.0,0.0,0.0,0.0,0.0,0.0,0.0,0.0,0.0,0.0,0.0,0.0,0.0,0.0,0.0,0.0,0.0,0.0,0.0,0.0,0.0,0.0,-3.1482,-3.1732,-3.2023,-3.2372,-3.0217,-2.8334,0.0,0.0,0.0,0.0,0.0,0.0,0.0,0.0,0.0,0.0,0.0,0.0,0.0,0.0,0.0,0.0,0.0,0.0,0.0,0.0,0.0,0.0,0.0,0.0,0.0,0.0,0.0,0.0,0.0,0.0,0.0,0.0,0.0,0.0,0.0,0.0,0.0,0.0,0.0,0.0,0.0,0.0,0.0,0.0,0.0,0.0,0.0,0.0,0.0,0.0,0.0,0.0,0.0,0.0,0.0,0.0,0.0,0.0,0.0,0.0,0.0,0.0,0.0,0.0,0.0,0.0,0.0,0.0,0.0,0.0,0.0,0.0,0.0,0.0,0.0,0.0,0.0,0.0,0.0,0.0,0.0,0.0,0.0,0.0,0.0,0.0,0.0,0.0,0.0,0.0,0.0,0.0,0.0,0.0,0.0,0.0,0.0,0.0,0.0,0.0,0.0,0.0,0.0,0.0,0.0,0.0,0.0,0.0,0.0,-3.1447,0.0,-3.2448,-3.2025,-3.0123,-2.8264,0.0,0.0,0.0,0.0,0.0,0.0,0.0,0.0,0.0,0.0,0.0,0.0,0.0,0.0,0.0,0.0,0.0,0.0,0.0,0.0,0.0,0.0,0.0,0.0,0.0,0.0,0.0,0.0,0.0,0.0,0.0,0.0,0.0,0.0,0.0,0.0,0.0,0.0,0.0,0.0,0.0,0.0,0.0,0.0,0.0,0.0,0.0,0.0,0.0,0.0,0.0,0.0,0.0,0.0,0.0,0.0,0.0,0.0,0.0,0.0,0.0,0.0,0.0,0.0,0.0,0.0,0.0,0.0,0.0,0.0,0.0,0.0,0.0,0.0,0.0,0.0,0.0,0.0,0.0,0.0,0.0,0.0,0.0,0.0,0.0,0.0,0.0,0.0,0.0,0.0,0.0,0.0,0.0,0.0,0.0,0.0,0.0,0.0,0.0,0.0,0.0,0.0,0.0,0.0,0.0,0.0,0.0,0.0,-3.1644,-3.3087,-3.3831,-3.3058,-3.0602,-3.0174,-2.8384,0.0,0.0,0.0,0.0,0.0,0.0,0.0,0.0,0.0,0.0,0.0,0.0,0.0,0.0,0.0,0.0,0.0,0.0,0.0,0.0,0.0,0.0,0.0,0.0,0.0,0.0,0.0,0.0,0.0,0.0,0.0,0.0,0.0,0.0,0.0,0.0,0.0,0.0,0.0,0.0,0.0,0.0,0.0,0.0,0.0,0.0,0.0,0.0,0.0,0.0,0.0,0.0,0.0,0.0,0.0,0.0,0.0,0.0,0.0,0.0,0.0,0.0,0.0,0.0,0.0,0.0,0.0,0.0,0.0,0.0,0.0,0.0,0.0,0.0,0.0,0.0,0.0,0.0,0.0,0.0,0.0,0.0,0.0,0.0,0.0,0.0,0.0,0.0,0.0,0.0,0.0,0.0,0.0,0.0,0.0,0.0,0.0,0.0,0.0,0.0,0.0,0.0,0.0,0.0,0.0,0.0,0.0,0.0,0.0,-3.2328,-3.3121,-3.3664,-3.3801,-3.0821,-2.9189,0.0,0.0,0.0,0.0,0.0,0.0,0.0,0.0,0.0,0.0,0.0,0.0,0.0,0.0,0.0,0.0,0.0,0.0,0.0,0.0,0.0,0.0,0.0,0.0,0.0,0.0,0.0,0.0,0.0,0.0,0.0,0.0,0.0,0.0,0.0,0.0,0.0,0.0,0.0,0.0,0.0,0.0,0.0,0.0,0.0,0.0,0.0,0.0,0.0,0.0,0.0,0.0,0.0,0.0,0.0,0.0,0.0,0.0,0.0,0.0,0.0,0.0,0.0,0.0,0.0,0.0,0.0,0.0,0.0,0.0,0.0,0.0,0.0,0.0,0.0,0.0,0.0,0.0,0.0,0.0,0.0,0.0,0.0,0.0,0.0,0.0,0.0,0.0,0.0,0.0,0.0,0.0,0.0,0.0,0.0,0.0,0.0,0.0,0.0,0.0,0.0,0.0,0.0,0.0,0.0,0.0,0.0,0.0,0.0,-3.3336,-3.4144,-3.4715,-3.5007,-3.198,-3.0107,-2.9612,0.0,0.0,0.0,0.0,0.0,0.0,0.0,0.0,0.0,0.0,0.0,0.0,0.0,0.0,0.0,0.0,0.0,0.0,0.0,0.0,0.0,0.0,0.0,0.0,0.0,0.0,0.0,0.0,0.0,0.0,0.0,0.0,0.0,0.0,0.0,0.0,0.0,0.0,0.0,0.0,0.0,0.0,0.0,0.0,0.0,0.0,0.0,0.0,0.0,0.0,0.0,0.0,0.0,0.0,0.0,0.0,0.0,0.0,0.0,0.0,0.0,0.0,0.0,0.0,0.0,0.0,0.0,0.0,0.0,0.0,0.0,0.0,0.0,0.0,0.0,0.0,0.0,0.0,0.0,0.0,0.0,0.0,0.0,0.0,0.0,0.0,0.0,0.0,0.0,0.0,0.0,0.0,0.0,0.0,0.0,0.0,0.0,0.0,0.0,0.0,0.0,0.0,0.0,0.0,0.0,0.0,0.0,0.0,-3.5815,-3.6634,-3.6223,-3.4501,-3.343,-3.1237,0.0,0.0,0.0,0.0,0.0,0.0,0.0,0.0,0.0,0.0,0.0,0.0,0.0,0.0,0.0,0.0,0.0,0.0,0.0,0.0,0.0,0.0,0.0,0.0,0.0,0.0,0.0,0.0,0.0,0.0,0.0,0.0,0.0,0.0,0.0,0.0,0.0,0.0,0.0,0.0,0.0,0.0,0.0,0.0,0.0,0.0,0.0,0.0,0.0,0.0,0.0,0.0,0.0,0.0,0.0,0.0,0.0,0.0,0.0,0.0,0.0,0.0,0.0,0.0,0.0,0.0,0.0,0.0,0.0,0.0,0.0,0.0,0.0,0.0,0.0,0.0,0.0,0.0,0.0,0.0,0.0,0.0,0.0,0.0,0.0,0.0,0.0,0.0,0.0,0.0,0.0,0.0,0.0,0.0,0.0,0.0,0.0,0.0,0.0,0.0,0.0,0.0,0.0,0.0,0.0,0.0,0.0,0.0,0.0,-3.7529,-3.8365,-3.8194,-3.7002,-3.4353,-3.2309,0.0,0.0,0.0,0.0,0.0,0.0,0.0,0.0,0.0,0.0,0.0,0.0,0.0,0.0,0.0,0.0,0.0,0.0,0.0,0.0,0.0,0.0,0.0,0.0,0.0,0.0,0.0,0.0,0.0,0.0,0.0,0.0,0.0,0.0,0.0,0.0,0.0,0.0,0.0,0.0,0.0,0.0,0.0,0.0,0.0,0.0,0.0,0.0,0.0,0.0,0.0,0.0,0.0,0.0,0.0,0.0,0.0,0.0,0.0,0.0,0.0,0.0,0.0,0.0,0.0,0.0,0.0,0.0,0.0,0.0,0.0,0.0,0.0,0.0,0.0,0.0,0.0,0.0,0.0,0.0,0.0,0.0,0.0,0.0,0.0,0.0,0.0,0.0,0.0,0.0,0.0,0.0,0.0,0.0,0.0,0.0,0.0,0.0,0.0,0.0,0.0,0.0,0.0,0.0,0.0,0.0,0.0,0.0,-3.5546,-3.7665,-3.8126,-3.8078,-3.745,-3.5545,-3.3803,0.0,0.0,0.0,0.0,0.0,0.0,0.0,0.0,0.0,0.0,0.0,0.0,0.0,0.0,0.0,0.0,0.0,0.0,0.0,0.0,0.0,0.0,0.0,0.0,0.0,0.0,0.0,0.0,0.0,0.0,0.0,0.0,0.0,0.0,0.0,0.0,0.0,0.0,0.0,0.0,0.0,0.0,0.0,0.0,0.0,0.0,0.0,0.0,0.0,0.0,0.0,0.0,0.0,0.0,0.0,0.0,0.0,0.0,0.0,0.0,0.0,0.0,0.0,0.0,0.0,0.0,0.0,0.0,0.0,0.0,0.0,0.0,0.0,0.0,0.0,0.0,0.0,0.0,0.0,0.0,0.0,0.0,0.0,0.0,0.0,0.0,0.0,0.0,0.0,0.0,0.0,0.0,0.0,0.0,0.0,0.0,0.0,0.0,0.0,0.0,0.0,0.0,0.0,0.0,0.0,0.0,0.0,0.0,-3.5376,-3.685,-3.6996,-3.6982,-3.6822,-3.6673,-3.5247,0.0,0.0,0.0,0.0,0.0,0.0,0.0,0.0,0.0,0.0,0.0,0.0,0.0,0.0,0.0,0.0,0.0,0.0,0.0,0.0,0.0,0.0,0.0,0.0,0.0,0.0,0.0,0.0,0.0,0.0,0.0,0.0,0.0,0.0,0.0,0.0,0.0,0.0,0.0,0.0,0.0,0.0,0.0,0.0,0.0,0.0,0.0,0.0,0.0,0.0,0.0,0.0,0.0,0.0,0.0,0.0,0.0,0.0,0.0,0.0,0.0,0.0,0.0,0.0,0.0,0.0,0.0,0.0,0.0,0.0,0.0,0.0,0.0,0.0,0.0,0.0,0.0,0.0,0.0,0.0,0.0,0.0,0.0,0.0,0.0,0.0,0.0,0.0,0.0,0.0,0.0,0.0,0.0,0.0,0.0,0.0,0.0,0.0,0.0,0.0,0.0,0.0,0.0,0.0,0.0,0.0,0.0,0.0,-3.5955,-3.6889,-3.7612,-3.7923,-3.7707,-3.6442,-3.4638,0.0,0.0,0.0,0.0,0.0,0.0,0.0,0.0,0.0,0.0,0.0,0.0,0.0,0.0,0.0,0.0,0.0,0.0,0.0,0.0,0.0,0.0,0.0,0.0,0.0,0.0,0.0,0.0,0.0,0.0,0.0,0.0,0.0,0.0,0.0,0.0,0.0,0.0,0.0,0.0,0.0,0.0,0.0,0.0,0.0,0.0,0.0,0.0,-3.2699,0.0,0.0,0.0,0.0,0.0,0.0,0.0,0.0,0.0,0.0,0.0,0.0,0.0,0.0,0.0,0.0,0.0,0.0,0.0,0.0,0.0,0.0,0.0,0.0,0.0,0.0,0.0,0.0,0.0,0.0,0.0,0.0,0.0,0.0,0.0,0.0,0.0,0.0,0.0,0.0,0.0,0.0,0.0,0.0,0.0,0.0,0.0,0.0,0.0,0.0,0.0,0.0,0.0,0.0,0.0,0.0,0.0,0.0,0.0,-3.5911,-3.6251,-3.6792,-3.7002,-3.679,-3.5962,-3.4649,0.0,0.0,0.0,0.0,0.0,0.0,0.0,0.0,0.0,0.0,0.0,0.0,0.0,0.0,0.0,0.0,0.0,0.0,0.0,0.0,0.0,0.0,0.0,0.0,0.0,0.0,0.0,0.0,0.0,0.0,0.0,0.0,0.0,0.0,0.0,0.0,0.0,0.0,0.0,0.0,0.0,0.0,0.0,0.0,0.0,0.0,0.0,0.0,0.0,0.0,0.0,0.0,0.0,0.0,0.0,0.0,0.0,0.0,0.0,0.0,0.0,0.0,0.0,0.0,0.0,0.0,0.0,0.0,0.0,0.0,0.0,0.0,0.0,0.0,0.0,0.0,0.0,0.0,0.0,0.0,0.0,0.0,0.0,0.0,0.0,0.0,0.0,0.0,0.0,0.0,0.0,0.0,0.0,0.0,0.0,0.0,0.0,0.0,0.0,0.0,0.0,0.0,0.0,0.0,0.0,0.0,0.0,-3.4671,-3.5485,-3.5489,-3.5631,-3.5621,-3.5494,-3.55,-3.481,-3.3346,0.0,0.0,0.0,0.0,0.0,0.0,0.0,0.0,0.0,0.0,0.0,0.0,0.0,0.0,0.0,0.0,0.0,0.0,0.0,0.0,0.0,0.0,0.0,0.0,0.0,0.0,0.0,0.0,0.0,0.0,0.0,0.0,0.0,0.0,0.0,0.0,0.0,0.0,-2.8906,-3.1533,0.0,0.0,0.0,0.0,0.0,0.0,0.0,0.0,-3.3911,0.0,0.0,0.0,0.0,0.0,0.0,0.0,0.0,0.0,0.0,0.0,0.0,0.0,0.0,0.0,0.0,0.0,0.0,0.0,0.0,0.0,0.0,0.0,0.0,0.0,0.0,0.0,0.0,0.0,0.0,0.0,0.0,0.0,0.0,0.0,0.0,0.0,0.0,0.0,0.0,0.0,0.0,0.0,0.0,0.0,0.0,0.0,0.0,0.0,0.0,0.0,0.0,0.0,0.0,0.0,0.0,-3.3975,-3.4345,-3.4847,-3.5468,-3.5577,-3.5582,-3.5514,-3.55,-3.4535,-3.2542,0.0,0.0,0.0,0.0,0.0,0.0,0.0,0.0,0.0,0.0,0.0,0.0,0.0,0.0,0.0,0.0,0.0,0.0,0.0,0.0,0.0,0.0,0.0,0.0,0.0,0.0,0.0,0.0,0.0,0.0,0.0,0.0,0.0,0.0,0.0,0.0,0.0,0.0,0.0,-3.3027,-3.3647,0.0,0.0,0.0,0.0,0.0,0.0,0.0,0.0,-3.2571,0.0,0.0,0.0,0.0,0.0,0.0,0.0,0.0,0.0,0.0,0.0,0.0,0.0,0.0,0.0,0.0,0.0,0.0,0.0,0.0,0.0,0.0,0.0,0.0,0.0,0.0,0.0,0.0,0.0,0.0,0.0,0.0,0.0,0.0,0.0,0.0,0.0,0.0,0.0,0.0,0.0,0.0,0.0,0.0,0.0,0.0,0.0,0.0,0.0,0.0,0.0,0.0,0.0,0.0,0.0,-3.3539,-3.4478,-3.5129,-3.5475,-3.5574,-3.5347,-3.484,-3.4814,-3.3788,0.0,0.0,0.0,0.0,0.0,0.0,0.0,0.0,0.0,0.0,0.0,0.0,0.0,0.0,0.0,0.0,0.0,0.0,0.0,0.0,0.0,0.0,0.0,0.0,0.0,0.0,0.0,0.0,0.0,0.0,0.0,0.0,0.0,0.0,0.0,0.0,0.0,0.0,0.0,0.0,-3.3789,-3.4218,-3.4585,0.0,0.0,0.0,0.0,0.0,0.0,-3.2966,-3.267,0.0,0.0,0.0,0.0,0.0,0.0,0.0,0.0,0.0,0.0,0.0,0.0,0.0,0.0,0.0,0.0,0.0,0.0,0.0,0.0,0.0,0.0,0.0,0.0,0.0,0.0,0.0,0.0,0.0,0.0,0.0,0.0,0.0,0.0,0.0,0.0,0.0,0.0,0.0,0.0,0.0,0.0,0.0,0.0,0.0,0.0,0.0,0.0,0.0,0.0,0.0,0.0,0.0,0.0,0.0,-3.2955,-3.4502,-3.5274,-3.5244,-3.5293,-3.4874,-3.3975,-3.3936,-3.3044,0.0,0.0,0.0,0.0,0.0,0.0,0.0,0.0,0.0,0.0,0.0,0.0,0.0,0.0,0.0,0.0,0.0,0.0,0.0,0.0,0.0,0.0,0.0,0.0,0.0,0.0,0.0,0.0,0.0,0.0,0.0,0.0,0.0,0.0,0.0,0.0,0.0,0.0,0.0,0.0,0.0,-3.5156,-3.5,-3.4916,0.0,0.0,0.0,0.0,-3.4272,-3.3916,0.0,0.0,0.0,0.0,0.0,0.0,0.0,0.0,0.0,0.0,0.0,0.0,0.0,0.0,0.0,0.0,0.0,0.0,0.0,0.0,0.0,0.0,0.0,0.0,0.0,0.0,0.0,0.0,0.0,0.0,0.0,0.0,0.0,0.0,0.0,0.0,0.0,0.0,0.0,0.0,0.0,0.0,0.0,0.0,0.0,0.0,0.0,0.0,0.0,0.0,0.0,0.0,0.0,0.0,0.0,0.0,-3.2891,-3.3853,-3.4353,-3.434,-3.436,-3.3936,-3.3083,-3.3045,-3.2498,0.0,0.0,0.0,0.0,0.0,0.0,0.0,0.0,0.0,0.0,0.0,0.0,0.0,0.0,0.0,0.0,0.0,0.0,0.0,0.0,0.0,0.0,0.0,0.0,0.0,0.0,0.0,0.0,0.0,0.0,0.0,0.0,0.0,0.0,0.0,0.0,0.0,0.0,0.0,0.0,0.0,-3.6719,-3.5957,-3.5859,-3.5801,0.0,0.0,-3.5327,-3.4588,-3.4935,0.0,0.0,0.0,0.0,0.0,0.0,0.0,0.0,0.0,0.0,0.0,0.0,0.0,0.0,0.0,0.0,0.0,0.0,0.0,0.0,0.0,0.0,0.0,0.0,0.0,0.0,0.0,0.0,0.0,0.0,0.0,0.0,0.0,0.0,0.0,0.0,0.0,0.0,0.0,0.0,0.0,0.0,0.0,0.0,0.0,0.0,0.0,0.0,0.0,0.0,0.0,0.0,0.0,0.0,0.0,-3.2564,-3.291,-3.3757,-3.4205,-3.4205,-3.3725,-3.3064,-3.2256,-3.2218,-3.1488,0.0,0.0,0.0,0.0,0.0,0.0,0.0,0.0,0.0,0.0,0.0,0.0,0.0,0.0,0.0,0.0,0.0,0.0,0.0,0.0,0.0,0.0,0.0,0.0,0.0,0.0,0.0,0.0,0.0,0.0,0.0,0.0,0.0,0.0,0.0,0.0,0.0,0.0,0.0,0.0,0.0,0.0,-3.6719,-3.6738,0.0,0.0,0.0,-3.5258,-3.5271,0.0,0.0,0.0,0.0,0.0,0.0,0.0,0.0,0.0,0.0,0.0,0.0,0.0,0.0,0.0,0.0,0.0,0.0,0.0,0.0,0.0,0.0,0.0,0.0,0.0,0.0,0.0,0.0,0.0,0.0,0.0,0.0,0.0,0.0,0.0,0.0,0.0,0.0,0.0,0.0,0.0,0.0,0.0,0.0,0.0,0.0,0.0,0.0,0.0,0.0,0.0,0.0,0.0,0.0,0.0,0.0,0.0,-3.2295,-3.3545,-3.4013,-3.3571,-3.2929,-3.2199,-3.1404,-3.1365,0.0,0.0,0.0,0.0,0.0,0.0,0.0,0.0,0.0,0.0,0.0,0.0,0.0,0.0,0.0,0.0,0.0,0.0,0.0,0.0,0.0,0.0,0.0,0.0,0.0,0.0,0.0,-2.6217,0.0,0.0,0.0,0.0,0.0,0.0,0.0,0.0,0.0,0.0,0.0,0.0,0.0,0.0,-3.623,-3.6894,-3.7344,-3.7539,0.0,0.0,-3.572,-3.5869,-3.55,-3.4912,0.0,0.0,0.0,0.0,0.0,0.0,0.0,0.0,0.0,0.0,0.0,0.0,0.0,0.0,0.0,0.0,0.0,0.0,0.0,0.0,0.0,0.0,0.0,0.0,0.0,0.0,0.0,0.0,0.0,0.0,0.0,0.0,0.0,0.0,0.0,0.0,0.0,0.0,0.0,0.0,0.0,0.0,0.0,0.0,0.0,0.0,0.0,0.0,0.0,0.0,0.0,0.0,0.0,0.0,-3.1391,-3.0692,-3.2968,-3.3436,-3.1948,-3.1808,-3.1371,-3.0519,-3.0481,-3.0033,0.0,0.0,0.0,0.0,0.0,0.0,0.0,0.0,0.0,0.0,0.0,0.0,0.0,0.0,0.0,0.0,0.0,0.0,0.0,0.0,0.0,0.0,0.0,0.0,0.0,0.0,0.0,0.0,0.0,0.0,0.0,0.0,0.0,0.0,0.0,0.0,0.0,0.0,0.0,0.0,0.0,-3.6016,-3.6094,-3.748,-3.8223,0.0,-3.7891,-3.7791,-3.6144,-3.6526,-3.6158,-3.3598,0.0,0.0,0.0,0.0,0.0,0.0,0.0,0.0,0.0,0.0,0.0,0.0,0.0,0.0,0.0,0.0,0.0,0.0,0.0,0.0,0.0,0.0,0.0,0.0,0.0,0.0,0.0,0.0,0.0,0.0,0.0,0.0,0.0,0.0,0.0,0.0,0.0,0.0,0.0,0.0,0.0,0.0,0.0,0.0,0.0,0.0,0.0,0.0,0.0,0.0,0.0,0.0,0.0,-3.0731,-3.0423,-3.1865,-3.2352,-3.1718,-3.1173,-3.075,-3.0404,-3.0404,-2.975,0.0,0.0,0.0,0.0,0.0,0.0,0.0,0.0,0.0,0.0,0.0,0.0,0.0,0.0,0.0,0.0,0.0,0.0,0.0,0.0,0.0,0.0,0.0,0.0,0.0,0.0,0.0,0.0,-2.939,-2.9943,-3.002,0.0,0.0,0.0,0.0,0.0,0.0,0.0,0.0,0.0,0.0,-3.6191,-3.6719,-3.7383,0.0,0.0,-3.7129,-3.6777,-3.607,-3.6211,-3.5853,-3.4264,-3.393,0.0,0.0,0.0,0.0,0.0,0.0,0.0,0.0,0.0,0.0,0.0,0.0,0.0,0.0,0.0,0.0,0.0,0.0,0.0,0.0,0.0,0.0,0.0,0.0,0.0,0.0,0.0,0.0,0.0,0.0,0.0,0.0,0.0,0.0,0.0,0.0,0.0,0.0,0.0,0.0,0.0,0.0,0.0,0.0,0.0,0.0,0.0,0.0,0.0,0.0,0.0,0.0,-3.0269,-3.0025,-3.1121,-3.1583,-3.1333,-3.0731,-3.0404,-3.0404,-3.0404,-2.9717,0.0,0.0,0.0,0.0,0.0,0.0,0.0,0.0,0.0,0.0,0.0,0.0,0.0,0.0,0.0,0.0,0.0,0.0,0.0,0.0,0.0,0.0,0.0,0.0,0.0,0.0,0.0,0.0,-3.0095,-3.0503,-3.0606,0.0,0.0,0.0,0.0,0.0,0.0,0.0,0.0,0.0,0.0,-3.5918,-3.6777,-3.7129,-3.7207,-3.6953,-3.6621,-3.6309,-3.6055,-3.5951,-3.5546,-3.4402,0.0,0.0,0.0,0.0,0.0,0.0,0.0,0.0,0.0,0.0,0.0,0.0,0.0,0.0,0.0,0.0,0.0,0.0,0.0,0.0,0.0,0.0,0.0,0.0,0.0,0.0,0.0,-3.2109,0.0,0.0,-3.0918,0.0,0.0,0.0,0.0,0.0,0.0,0.0,0.0,0.0,0.0,0.0,0.0,0.0,0.0,0.0,0.0,0.0,0.0,0.0,0.0,0.0,0.0,-2.9962,-2.9184,-3.0814,-3.1275,-3.0481,-3.0404,-3.0404,-3.0404,-3.0404,-2.9967,-2.905,0.0,0.0,0.0,0.0,0.0,0.0,0.0,0.0,0.0,0.0,0.0,0.0,0.0,0.0,0.0,0.0,0.0,0.0,0.0,0.0,0.0,0.0,0.0,0.0,0.0,0.0,-3.0652,-3.058,-3.0628,0.0,0.0,0.0,0.0,0.0,0.0,0.0,0.0,0.0,0.0,-3.416,-3.5059,-3.5937,-3.6758,-3.6973,-3.6172,-3.6719,-3.6953,-3.6133,-3.6016,-3.5389,0.0,0.0,0.0,0.0,0.0,0.0,0.0,0.0,0.0,0.0,0.0,0.0,0.0,0.0,0.0,0.0,0.0,0.0,0.0,0.0,0.0,0.0,0.0,0.0,0.0,0.0,0.0,-3.1074,-3.1289,0.0,0.0,0.0,0.0,0.0,0.0,0.0,0.0,0.0,0.0,0.0,-3.2126,-3.1853,0.0,0.0,0.0,0.0,0.0,0.0,0.0,0.0,0.0,0.0,0.0,0.0,-2.8857,-2.9146,-3.0256,-3.0692,-3.0404,-3.0404,-3.0404,-3.0404,-3.0404,-2.975,-2.8352,0.0,0.0,0.0,0.0,0.0,0.0,0.0,0.0,0.0,0.0,0.0,0.0,0.0,0.0,0.0,0.0,0.0,0.0,0.0,0.0,0.0,0.0,0.0,0.0,0.0,-3.1839,0.0,0.0,0.0,0.0,0.0,0.0,0.0,0.0,0.0,0.0,0.0,-3.3965,-3.4238,-3.5,-3.5664,-3.5976,-3.625,-3.6328,0.0,0.0,0.0,0.0,0.0,0.0,0.0,0.0,0.0,0.0,0.0,0.0,0.0,0.0,-3.4276,-3.3122,-3.266,-3.2248,-3.1541,0.0,0.0,0.0,0.0,0.0,0.0,0.0,0.0,0.0,0.0,0.0,0.0,0.0,0.0,-3.0858,-3.0898,-3.0918,0.0,0.0,0.0,0.0,0.0,0.0,0.0,0.0,-3.2871,-3.2461,-3.2187,-3.1894,-3.1405,0.0,-3.077,-3.0388,0.0,0.0,0.0,0.0,0.0,0.0,0.0,0.0,-2.9044,-2.9544,-2.9813,-2.9948,-2.9929,-2.9699,-2.9545,-2.9525,-2.9813,-2.9429,-2.8352,-2.7511,-2.6654,0.0,0.0,0.0,0.0,0.0,0.0,0.0,0.0,0.0,0.0,0.0,0.0,0.0,0.0,0.0,0.0,0.0,0.0,0.0,0.0,0.0,0.0,0.0,-3.1733,0.0,0.0,0.0,0.0,0.0,0.0,0.0,0.0,0.0,-3.2187,-3.3652,-3.4707,-3.4707,-3.5449,-3.6016,-3.6016,0.0,0.0,0.0,0.0,0.0,0.0,0.0,-3.5059,-3.3633,-3.3819,-3.3846,-3.2942,-3.3825,-3.4591,-3.4244,0.0,0.0,-3.3891,-3.3362,-3.2792,-3.2119,-3.1949,-3.1414,-2.9876,-2.9957,-3.007,0.0,0.0,0.0,0.0,0.0,0.0,0.0,0.0,-3.0713,-3.0768,0.0,-3.0879,0.0,0.0,0.0,0.0,-3.2226,-3.291,0.0,0.0,-3.3301,-3.293,-3.2168,-3.1328,-3.0918,-3.0918,-3.0898,-3.0797,-3.0635,-3.0494,0.0,0.0,0.0,0.0,0.0,0.0,-3.03,-3.0248,-2.949,-2.9066,-2.9052,-2.8385,-2.8003,-2.7955,-2.8681,-2.9028,-2.8984,-2.8263,-2.7483,-2.6592,-2.5798,0.0,0.0,0.0,0.0,0.0,0.0,0.0,0.0,0.0,0.0,0.0,0.0,0.0,0.0,0.0,0.0,0.0,0.0,0.0,0.0,-3.0855,0.0,0.0,0.0,0.0,0.0,0.0,0.0,0.0,0.0,0.0,-3.2187,-3.3672,-3.4707,-3.4707,0.0,0.0,0.0,0.0,-3.6016,-3.6016,-3.6016,-3.5976,-3.5957,-3.5254,-3.4414,-3.3496,0.0,0.0,-3.2023,-3.2517,-3.2822,-3.1927,-3.2499,-3.3436,-3.5038,-3.4366,-3.3691,-3.3544,-3.2691,-3.1759,-3.0798,-3.0437,-3.0214,-3.4656,0.0,0.0,0.0,0.0,-3.2156,-3.1546,-3.1507,-3.0889,-3.0648,-3.0681,-3.0683,0.0,0.0,0.0,0.0,0.0,0.0,-3.2266,-3.3301,-3.2187,-3.1836,-3.2168,-3.1309,-3.0918,-3.0918,-3.0918,-3.0566,-2.9938,-2.9843,-2.9518,-2.9023,0.0,0.0,0.0,0.0,-2.8136,-2.8718,-2.8504,-2.8392,-2.8372,-2.8184,-2.8048,-2.8046,-2.826,-2.8105,-2.7484,-2.7824,-2.7334,-2.5832,-2.6091,0.0,0.0,0.0,0.0,0.0,0.0,0.0,0.0,0.0,0.0,0.0,0.0,0.0,0.0,0.0,0.0,0.0,0.0,0.0,-3.0857,-3.1425,-3.168,0.0,0.0,0.0,0.0,0.0,0.0,0.0,0.0,0.0,-3.2207,-3.3652,-3.4707,0.0,0.0,-3.5781,-3.5156,-3.5586,-3.6016,-3.6016,-3.6016,0.0,-3.5176,-3.4863,-3.4219,-3.2773,-3.2519,-3.2585,-3.2822,-3.3059,-3.309,-3.2677,-3.2805,-3.3125,-3.3506,-3.339,-3.2905,-3.2207,-3.1751,-3.1181,-3.0226,-2.9955,-2.9823,-3.5046,-3.5471,-3.4357,-3.3867,-3.377,-3.2733,-3.2309,-3.2307,-3.1767,-3.1575,-3.1611,-3.1261,-3.1106,-3.1106,-3.0758,0.0,0.0,0.0,-3.1871,-3.2809,-3.1874,-3.1504,-3.1641,-3.1133,-3.0918,-3.0898,-3.0547,-3.0098,-2.959,-2.9214,-2.9006,-2.8943,0.0,0.0,-2.8085,-2.7573,-2.7571,-2.8057,-2.7765,-2.7571,-2.759,-2.7246,-2.724,-2.7612,-2.7607,-2.7493,-2.7318,-2.7482,-2.7079,-2.6023,-2.6463,-2.6324,0.0,0.0,0.0,0.0,0.0,0.0,0.0,0.0,0.0,0.0,0.0,-2.8888,-2.8136,0.0,0.0,0.0,-3.035,-3.0918,-3.0918,-3.1367,0.0,0.0,0.0,0.0,0.0,0.0,0.0,-3.1641,-3.168,-3.1816,-3.2148,-3.3086,-3.3945,-3.4609,-3.5156,-3.541,-3.5254,0.0,-3.5879,-3.5547,-3.5488,-3.5195,-3.4316,-3.3926,-3.3242,-3.1914,-3.168,-3.1797,-3.2161,-3.2251,-3.222,-3.2089,-3.2027,-3.2014,-3.1956,-3.1933,-3.1866,-3.1511,-3.1178,-3.0686,-2.9956,-2.9821,-2.9679,-3.5486,-3.5365,-3.3776,-3.3122,-3.3103,-3.3045,-3.3047,-3.3078,-3.302,-3.3029,-3.302,-3.2227,-3.1841,-3.1725,-3.096,0.0,-3.1793,-3.1841,-3.1884,-3.1905,-3.2007,-3.1641,-3.0898,-3.0898,-3.0859,-3.0762,-2.998,-2.9531,-2.9336,-2.8574,-2.8164,-2.8086,-2.7979,-2.7957,-2.7996,-2.7937,-2.7918,-2.7879,-2.7106,-2.6717,-2.6697,-2.5929,-2.5917,-2.6769,-2.6747,-2.7067,-2.7821,-2.7201,-2.6795,-2.6712,-2.6824,-2.6515,-2.5688,0.0,0.0,0.0,0.0,0.0,0.0,0.0,0.0,0.0,0.0,0.0,0.0,0.0,0.0,0.0,-3.0351,0.0,-3.0918,-3.0918,0.0,0.0,0.0,-3.0918,-3.0918,-3.0918,-3.0918,-3.0918,0.0,0.0,-3.1992,-3.209,-3.2695,-3.4297,-3.457,-3.4863,-3.5605,-3.5664,-3.5508,-3.4707,-3.4609,-3.4277,-3.3457,-3.2676,-3.1914,-3.1133,-3.0918,-3.0918,-3.0844,-3.0819,-3.0723,-3.0723,-3.059,-3.0539,-3.0503,-3.0572,-3.0646,-3.1423,-3.0956,-3.0356,-3.0089,-3.0047,-2.9722,-3.5331,-3.5462,-3.5058,-3.4865,-3.4834,-3.416,-3.3898,-3.3871,-3.3216,-3.2598,-3.2053,-3.1841,-3.1378,-3.0746,-3.0595,-3.0637,-3.0839,-3.0892,-3.0925,-3.093,-3.1022,-3.0941,-3.0767,-3.0857,-3.0547,-2.9922,-2.9707,-2.8926,-2.7656,-2.7402,-2.6973,-2.6367,-2.6285,-2.6594,-2.72,-2.6613,-2.6262,-2.6261,-2.6067,-2.597,-2.595,-2.5756,-2.5758,-2.5975,-2.5972,-2.6048,-2.6281,-2.6712,-2.6626,-2.5957,-2.7152,-2.7433,-2.6551,-2.6688,0.0,0.0,0.0,0.0,0.0,0.0,0.0,0.0,0.0,-2.7094,-2.6302,0.0,-2.7655,0.0,-3.0,-3.0918,-3.0918,-3.0918,0.0,0.0,-3.0918,-3.0918,-3.0918,-3.0918,-3.0918,-3.0918,-3.0918,-3.0976,-3.1191,-3.1211,-3.1582,-3.2656,-3.332,-3.3555,-3.3203,-3.3633,-3.3965,-3.3769,-3.3691,-3.3418,-3.2598,-3.1777,-3.1172,-3.0937,-3.0918,-3.0898,-3.0859,-3.0838,-3.0814,-3.0708,-3.0671,-3.0606,-3.0517,-3.0476,-3.0496,-3.067,-3.0538,-3.0392,-3.0317,-3.0286,-2.9973,-3.4999,-3.5138,-3.5157,-3.5138,-3.5127,-3.488,-3.4776,-3.4718,-3.3872,-3.3237,-3.2756,-3.2045,-3.1218,-3.041,-3.0436,-3.0452,-3.0462,-3.0521,-3.0547,-3.0551,-3.0614,-3.0661,-3.0644,-3.0394,-3.0033,-2.9525,-2.8808,-2.7949,-2.7012,-2.6602,-2.6191,-2.5703,-2.5703,-2.5937,-2.6387,-2.5937,-2.5703,-2.5703,-2.5703,-2.5703,-2.5703,-2.5703,-2.5703,-2.5703,-2.5703,-2.5703,-2.5703,-2.6172,-2.6191,-2.5716,-2.6946,-2.7235,-2.638,-2.6691,-2.671,0.0,0.0,0.0,0.0,0.0,0.0,0.0,0.0,0.0,0.0,0.0,-2.7519,-2.8769,-3.0117,-3.0918,-3.0918,-3.0547,-3.0332,-3.0312,-2.9961,-2.9746,-2.9746,-3.0098,-3.0312,-3.0312,-3.0664,-3.0918,-3.0918,-3.0918,-3.1074,-3.1562,-3.1951,-3.234,-3.2695,-3.3104,-3.3237,-3.2846,-3.2768,-3.2517,-3.1738,-3.1211,-3.0918,-3.0918,-3.0918,-3.0918,-3.0918,-3.0918,-3.0878,-3.0814,-3.0744,-3.0682,-3.0592,-3.0191,-2.9915,-2.9873,-2.9839,-2.9813,-2.9808,-2.9544,-2.8991,-3.4663,-3.4694,-3.4694,-3.4694,-3.4724,-3.5073,-3.5259,-3.5222,-3.4519,-3.409,-3.3782,-3.2218,-3.1115,-3.0404,-3.0404,-3.0404,-3.0396,-3.0462,-3.0495,-3.0485,-3.0434,-3.0493,-3.0555,-2.9706,-2.9323,-2.9249,-2.7749,-2.6914,-2.6816,-2.6074,-2.5703,-2.5703,-2.5703,-2.5703,-2.5703,-2.5703,-2.5703,-2.5703,-2.5703,-2.5703,-2.5703,-2.5703,-2.5703,-2.5703,-2.5703,-2.5703,-2.5703,-2.5703,-2.5703,-2.5723,-2.6543,-2.666,-2.5918,-2.6582,-2.666,0.0,-2.5762,0.0,0.0,0.0,0.0,0.0,0.0,0.0,0.0,-2.6504,-2.7617,-2.9141,-3.0059,-3.0566,-3.0586,-2.9883,-2.9434,-2.9414,-2.8769,-2.8281,-2.832,-2.8965,-2.9414,-2.9414,-3.0175,-3.0703,-3.0664,-3.0779,-3.084,-3.0914,-3.086,-3.1342,-3.2612,-3.2874,-3.2563,-3.19,-3.182,-3.1617,-3.1071,-3.0898,-3.0879,-3.0898,-3.0918,-3.0918,-3.0918,-3.0918,-3.0918,-3.0898,-3.0795,-3.0721,-3.0716,-2.9908,-2.9292,-2.9259,-2.9009,-2.8824,-2.905,-2.8723,-2.7799,-3.4464,-3.4694,-3.4694,-3.4694,-3.4666,-3.4065,-3.3925,-3.4128,-3.4157,-3.3449,-3.2122,-3.1096,-3.0538,-3.0404,-3.0404,-3.0404,-3.0404,-3.0414,-3.0431,-3.0392,-2.976,-2.9834,-3.0424,-2.9046,-2.8382,-2.8388,-2.7403,-2.6595,-2.5957,-2.5781,-2.5703,-2.5703,-2.5703,-2.5703,-2.5703,0.0,0.0,0.0,-2.5703,-2.5703,-2.5703,-2.5703,-2.5703,-2.5703,-2.5703,0.0,-2.5703,-2.5703,-2.5703,-2.5723,-2.6523,0.0,0.0,0.0,0.0,0.0,0.0,0.0,0.0,0.0,0.0,0.0,-2.5917,-2.5859,-2.5742,-2.6504,-2.7129,-2.748,-2.8281,-2.8789,-2.8789,-2.8652,-2.8555,-2.8535,-2.8379,-2.8281,-2.8301,-2.8393,-2.8462,-2.8482,-2.9198,-2.9698,-2.9758,-3.0239,-3.0648,-3.067,-3.0636,-3.073,-3.1113,-3.1225,-3.1056,-3.0881,-3.0939,-3.0867,-3.0757,-3.0744,-3.0772,-3.0859,-3.0918,-3.0918,-3.0918,-3.0879,-3.0898,-3.0879,-3.0879,-3.0777,-3.0682,-2.9966,-2.9208,-2.9187,-2.8073,-2.7486,-2.878,-2.8953,-2.8646,-3.4093,-3.4255,-3.4255,-3.4267,0.0,-3.3502,-3.3057,-3.2789,-3.2667,-3.1957,-3.0841,-3.0541,-3.0404,-3.0404,-3.0404,-3.0404,-3.0404,-3.0404,-3.0404,-3.0352,-2.9524,-2.9385,-2.9777,-2.8175,-2.7423,-2.7432,-2.6613,-2.5995,-2.5621,-2.5634,-2.5658,-2.5658,-2.5683,-2.5703,-2.5703,-2.5703,-2.5703,-2.5703,-2.5703,-2.5703,-2.5703,-2.5703,-2.5703,-2.5703,-2.5703,0.0,0.0,0.0,0.0,0.0,0.0,0.0,0.0,0.0,0.0,-2.6348,-2.5937,-2.5703,-2.5703,-2.5703,-2.5703,-2.5703,-2.5703,-2.5898,-2.6309,-2.6738,-2.7187,-2.7598,-2.8047,-2.8281,-2.8281,-2.7889,-2.7592,-2.7592,-2.7193,-2.6912,-2.6949,-2.7269,-2.7511,-2.7644,-2.863,-2.9385,-2.9405,-3.0103,-3.0586,-3.06,-3.0568,-3.054,-3.0559,-3.054,-3.0559,-3.054,-3.054,-3.0594,-3.0645,-3.0664,-3.0699,-3.0793,-3.0858,-3.0898,-3.0918,-3.0547,-3.0391,-3.0723,-3.0234,-2.9687,-2.9994,-2.9092,-2.8128,-2.798,-2.728,-2.6863,-2.7699,-2.7525,-2.7121,-3.3807,-3.3807,-3.3807,-3.3807,-3.376,-3.3179,-3.2395,-3.1478,0.0,0.0,0.0,-3.0241,-3.0355,-3.0404,-3.0404,-3.0404,-3.0404,-3.0404,-3.0404,-3.0346,-2.9352,-2.8953,-2.9017,-2.7276,-2.654,-2.6657,-2.5886,-2.5479,-2.5513,-2.5556,-2.5573,-2.5576,-2.5482,-2.5448,-2.5448,-2.5447,-2.5466,-2.5467,-2.5604,-2.5604,-2.5466,-2.5583,-2.5583,-2.5447,-2.5603,-2.5681,-2.5681,-2.5661,-2.5661,-2.5661,-2.5663,-2.5683,-2.5683,-2.5703,-2.5703,-2.5703,-2.5703,-2.5703,-2.5703,-2.5703,-2.5703,-2.5703,-2.5703,-2.5996,-2.6719,-2.6777,-2.707,-2.7793,-2.7832,-2.7832,-2.7812,-2.7138,-2.6655,-2.6649,-2.597,-2.5532,-2.5569,-2.6087,-2.6551,-2.6707,-2.7895,-2.8955,-2.9085,-2.98,-3.0425,-3.0528,-3.052,-3.0486,-3.0486,-3.0467,-3.0486,-3.0486,-3.0486,-3.0507,-3.0568,-3.0626,-3.0684,-3.0717,-3.0816,-3.0898,-3.0801,-3.0176,-2.9941,-3.0469,-2.9336,-2.8828,-2.9101,-2.8097,-2.6962,-2.6829,-2.6605,-2.6459,-2.6333,-2.5823,-2.55,-3.3807,-3.3807,-3.3807,-3.3807,-3.3733,-3.2965,-3.1795,-3.0427,-3.0048,-2.9926,-2.9999,-3.0028,-3.0196,-3.0404,-3.0404,-3.0404,-3.0404,-3.0404,-3.0404,-3.0308,-2.8775,-2.8434,-2.8953,-2.6616,-2.5907,-2.6591,-2.5827,-2.545,-2.5508,-2.5498,-2.5524,-2.5414,-2.4829,-2.4494,-2.4511,-2.4508,-2.4491,-2.451,-2.5244,-2.5244,-2.453,-2.5167,-2.5206,-2.4567,-2.5169,-2.5516,-2.5535,-2.5537,-2.5535,-2.5535,-2.5593,-2.5627,-2.5608,-2.5661,-2.5703,-2.5703,-2.5703,-2.5703,-2.5703,-2.5703,-2.5703,-2.5703,-2.5703,-2.5762,-2.5879,-2.5879,-2.5937,-2.6074,-2.6152,-2.6034,-2.5982,-2.5915,-2.58,-2.5726,-2.5612,-2.551,-2.5503,-2.5564,-2.566,-2.5686,-2.6395,-2.7369,-2.8058,-2.8845,-2.9674,-3.0227,-3.029,-3.0386,-3.0411,-3.0419,-3.04,-3.0419,-3.0419,-3.0446,-3.041,-3.0549,-3.056,-3.069,-3.0814,-3.0898,-3.0898,-3.0098,-2.9648,-2.9785,-2.8867,-2.834,-2.8437,-2.7669,-2.6933,-2.6763,-2.6223,-2.5711,-2.5673,-2.5459,-2.5519,-3.3807,-3.3807,-3.3807,-3.3807,-3.3697,-3.2467,-3.1035,-2.9579,-2.9394,-2.9456,-2.9687,-2.9908,-3.0068,-3.0196,-3.0329,-3.0404,-3.0404,-3.0404,-3.0404,-3.0269,-2.8679,-2.8102,-2.8217,-2.6294,-2.5529,-2.5893,-2.555,-2.5343,-2.5395,-2.5428,-2.524,-2.4763,-2.3988,-2.3585,-2.3585,-2.3607,-2.3599,-2.3564,-2.4884,-2.5149,-2.4352,-2.4661,-2.4873,-2.4951,-2.4912,-2.5068,-2.5491,-2.551,-2.5299,-2.4853,-2.5286,-2.5336,-2.493,-2.5336,-2.5597,-2.5597,-2.5577,-2.5604,-2.5657,-2.5683,-2.5703,-2.5703,-2.5661,-2.5661,-2.5703,-2.5703,-2.5664,-2.5658,-2.5657,-2.5629,-2.5552,-2.5522,-2.5471,-2.5456,-2.5431,-2.5395,-2.5387,-2.5352,-2.5333,-2.541,-2.6078,-2.6736,-2.714,-2.8299,-2.9204,-2.964,-2.9698,-2.9833,-3.0288,-2.9981,-2.9698,-2.9698,-2.9698,-2.9701,-2.9762,-2.981,-3.0063,-3.0528,-3.0734,-3.0815,-3.0762,-2.9863,-2.9199,-2.9355,-2.8203,-2.7246,-2.7441,-2.6855,-2.636,-2.6168,-2.591,-2.5522,-2.5418,-2.5342,-2.5452,-3.3807,-3.3807,-3.3807,-3.3807,-3.366,-3.2094,-3.0668,-2.9537,-2.917,-2.9112,-2.9343,-2.9695,-2.9893,-2.9973,-3.0196,-3.0311,-3.0298,-3.0155,-3.0102,-2.9942,-2.839,-2.7601,-2.7453,-2.6,-2.5308,-2.5308,-2.5308,-2.5308,-2.5303,-2.535,-2.4981,-2.4135,-2.3182,-2.2763,-2.2972,-2.296,-2.2943,-2.2975,-2.4581,-2.4882,-2.3725,-2.4036,-2.4383,-2.4516,-2.4189,-2.4264,-2.4846,-2.5077,-2.4808,-2.4094,-2.4938,-2.5101,-2.4367,-2.4885,-2.5221,-2.5221,-2.5221,-2.5336,-2.5548,-2.5631,-2.5659,-2.5659,-2.5624,-2.5581,-2.5638,-2.566,-2.5656,-2.5624,-2.5575,-2.5552,-2.5498,-2.5441,-2.5383,-2.5376,-2.5315,-2.5308,-2.5293,-2.5308,-2.5308,-2.5385,-2.5904,-2.6351,-2.6774,-2.7717,-2.8626,-2.903,-2.8953,-2.9217,-3.0038,-2.966,-2.9165,-2.9107,-2.9107,-2.9171,-2.9099,-2.898,-2.9249,-2.9971,-3.0022,-3.0025,-2.9922,-2.8945,-2.832,-2.8555,-2.7226,-2.6269,-2.6523,-2.623,-2.5801,-2.5733,-2.5642,-2.5572,-2.5425,-2.5342,-2.5293,-3.3807,-3.3807,-3.3807,-3.3807,-3.3605,-3.2076,-3.1268,-3.0907,-2.9629,-2.9005,-2.9078,-2.9332,-2.9561,-2.9729,-2.9947,-3.0061,-2.9999,-2.946,-2.9236,-2.9069,-2.7486,-2.6712,-2.6697,-2.575,-2.5308,-2.5308,-2.5308,-2.5308,-2.5308,-2.5265,-2.4891,-2.3987,-2.2458,-2.2126,-2.2801,-2.286,-2.2827,-2.2853,-2.4475,-2.4171,-2.2018,-2.3313,-2.3409,-2.1902,-2.26,-2.2966,-2.3175,-2.3818,-2.3837,-2.3167,-2.4505,-2.5029,-2.4313,-2.4316,-2.4408,-2.4386,-2.4408,-2.4702,-2.5403,-2.5505,-2.5533,-2.5526,-2.5505,-2.5503,-2.5531,-2.5509,-2.5549,-2.5566,-2.5545,-2.5471,-2.5421,-2.5394,-2.5364,-2.5317,-2.5303,-2.5308,-2.5308,-2.5308,-2.5308,-2.5308,-2.5442,-2.5712,-2.6385,-2.6851,-2.7505,-2.8819,-2.8376,-2.8563,-2.989,-2.9525,-2.905,-2.9069,-2.9088,-2.905,-2.897,-2.8511,-2.8396,-2.8446,-2.8441,-2.8635,-2.8574,-2.8027,-2.7226,-2.7519,-2.6602,-2.5879,-2.582,-2.5723,-2.5723,-2.5664,-2.5632,-2.5554,-2.5428,-2.5333,-2.5303,-3.3807,-3.3807,-3.3807,-3.3513,-3.2944,-3.1861,-3.114,-3.0577,-2.9482,-2.8987,-2.9017,-2.9141,-2.9291,-2.9523,-2.9853,-2.9999,-2.9949,-2.9263,-2.8994,-2.8942,-2.725,-2.6483,-2.65,-2.5712,-2.5308,-2.5308,-2.5308,-2.5308,-2.5212,-2.4832,-2.4432,-2.4024,-2.2849,-2.2472,-2.2813,-2.2814,-2.2797,-2.2816,-2.399,-2.3836,-2.2543,-2.2951,-2.324,-2.3009,-2.2389,-2.2293,-2.2778,-2.3163,-2.2932,-2.2201,-2.3206,-2.3462,-2.2655,-2.3106,-2.3417,-2.344,-2.3954,-2.4596,-2.5389,-2.5488,-2.551,-2.551,-2.5468,-2.5459,-2.5481,-2.5447,-2.5397,-2.5454,-2.5446,-2.5408,-2.535,-2.5333,-2.5326,-2.5298,-2.5308,-2.5308,-2.5308,-2.5288,-2.5308,-2.5308,-2.5308,-2.5399,-2.5827,-2.6294,-2.7063,-2.8044,-2.7659,-2.7832,-2.9275,-2.8915,-2.8684,-2.8915,-2.8723,-2.8415,-2.8343,-2.8168,-2.7959,-2.7995,-2.8093,-2.8154,-2.8035,-2.7557,-2.7012,-2.6992,-2.625,-2.5742,-2.5723,-2.5703,-2.5703,-2.5664,-2.5583,-2.55,-2.5411,-2.5337,-2.5303,-3.3807,-3.3807,-3.3807,-3.3348,-3.2528,-3.1733,-3.0944,-3.0155,-2.9335,-2.8987,-2.8987,-2.8987,-2.91,-2.9312,-2.9678,-2.9723,-2.9398,-2.8714,-2.8325,-2.8163,-2.6669,-2.6043,-2.6149,-2.5615,-2.5308,-2.5308,-2.5308,-2.5308,-2.5212,-2.449,-2.4206,-2.424,-2.3336,-2.2932,-2.3144,-2.3163,-2.3144,-2.324,-2.399,-2.4125,-2.3562,-2.3259,-2.324,-2.3278,-2.2182,-2.1716,-2.21,-2.2312,-2.2062,-2.125,-2.222,-2.2408,-2.16,-2.21,-2.2447,-2.2513,-2.3304,-2.4176,-2.4989,-2.5298,-2.5447,-2.5444,-2.5398,-2.5391,-2.5411,-2.535,-2.5321,-2.5371,-2.5387,-2.5346,-2.5313,-2.5308,-2.5308,-2.5308,-2.5308,-2.5298,-2.5219,-2.5219,-2.5192,-2.5165,-2.5176,-2.5234,-2.5356,-2.5851,-2.6544,-2.7236,-2.6851,-2.7005,-2.8472,-2.8511,-2.8275,-2.9223,-2.8775,-2.8088,-2.7659,-2.7189,-2.7282,-2.7264,-2.7207,-2.7228,-2.7465,-2.6907,-2.6621,-2.6309,-2.5918,-2.5762,-2.5703,-2.5703,-2.5684,-2.5644,-2.5572,-2.5473,-2.5411,-2.5337,-2.5303,-3.3807,-3.3807,-3.3807,-3.333,-3.2528,-3.1733,-3.0944,-3.0155,-2.9354,-2.8987,-2.8987,-2.8987,-2.8998,-2.9062,-2.9322,-2.8977,-2.8204,-2.7629,-2.7069,-2.653,-2.5558,-2.5176,-2.5336,-2.5308,-2.5308,-2.5308,-2.5308,-2.5308,-2.525,-2.4548,-2.4485,-2.5096,-2.3697,-2.3259,-2.3932,-2.4033,-2.4052,-2.4125,-2.4774,-2.5173,-2.5038,-2.4389,-2.3317,-2.2062,-2.1558,-2.1196,-2.0673,-2.1177,-2.1192,-2.0408,-2.185,-2.2336,-2.16,-2.1523,-2.1562,-2.1681,-2.2417,-2.3272,-2.4143,-2.4903,-2.5327,-2.5317,-2.5322,-2.5303,-2.5321,-2.5313,-2.5298,-2.5303,-2.5313,-2.5303,-2.5279,-2.5279,-2.5279,-2.5274,-2.5298,-2.5208,-2.504,-2.5041,-2.4962,-2.4896,-2.4956,-2.5082,-2.5264,-2.5322,-2.5841,-2.6346,-2.5962,-2.6346,-2.8376,-2.8415,-2.8698,-2.9525,-2.941,-2.8511,-2.7024,-2.6524,-2.5943,-2.5847,-2.6098,-2.5789,-2.5697,-2.5684,-2.5755,-2.5801,-2.5742,-2.5723,-2.5703,-2.5684,-2.5644,-2.561,-2.5559,-2.5488,-2.5398,-2.5329,-2.5303,-3.3807,-3.3807,-3.3807,-3.333,-3.2546,-3.1751,-3.0944,-3.0143,-2.9354,-2.8987,-2.8987,-2.8987,-2.8987,-2.8987,-2.91,-2.8765,-2.8053,-2.7343,-2.6691,-2.6062,-2.5262,-2.4956,-2.5124,-2.5224,-2.5308,-2.5308,-2.5308,-2.5308,-2.5288,-2.5005,-2.5005,-2.5173,-2.4731,-2.4582,-2.4827,-2.487,-2.487,-2.4889,-2.5173,-2.5308,-2.5288,-2.5019,-2.4293,-2.3182,-2.2066,-2.1119,-2.0327,-2.0577,-2.0596,-2.0308,-2.0885,-2.1062,-2.0788,-2.0731,-2.0962,-2.1523,-2.2312,-2.3182,-2.4048,-2.487,-2.5308,-2.5308,-2.5308,-2.5308,-2.5308,-2.5308,-2.5308,-2.5288,-2.5308,-2.5239,-2.5157,-2.5214,-2.5253,-2.5141,-2.5105,-2.5082,-2.5024,-2.4936,-2.4836,-2.4806,-2.4836,-2.4949,-2.5078,-2.5124,-2.5508,-2.6331,-2.6327,-2.7082,-2.8453,-2.8819,-2.8876,-2.9333,-2.9275,-2.853,-2.6871,-2.6428,-2.6049,-2.5594,-2.5441,-2.5554,-2.5539,-2.5587,-2.5667,-2.5742,-2.5703,-2.5703,-2.5703,-2.5684,-2.5664,-2.5564,-2.5515,-2.5468,-2.5359,-2.5307,-2.5298,-3.3807,-3.3807,-3.3807,-3.3183,-3.221,-3.1635,-3.0779,-2.9812,-2.9244,-2.8987,-2.8987,-2.8987,-2.8987,-2.8987,-2.8987,-2.8474,-2.7628,-2.7035,-2.6347,-2.5535,-2.502,-2.4883,-2.501,-2.5208,-2.5308,-2.5308,-2.5308,-2.5308,-2.5308,-2.5308,-2.5308,-2.5288,-2.5308,-2.5308,-2.5308,-2.5308,-2.5308,-2.5308,-2.5308,-2.5308,-2.5308,-2.5308,-2.4909,-2.4028,-2.2682,-2.1543,-2.0731,-2.0423,-2.0288,-2.0288,-2.0288,-2.0288,-2.0288,-2.0288,-2.0538,-2.1135,-2.2177,-2.3028,-2.3701,-2.4697,-2.5308,-2.5308,-2.5308,-2.5308,-2.5308,-2.5308,-2.5269,-2.5224,-2.5184,-2.5099,-2.4956,-2.5024,-2.5072,-2.4962,-2.4943,-2.4917,-2.4864,-2.4763,-2.4716,-2.4693,-2.4693,-2.4778,-2.4955,-2.526,-2.574,-2.645,-2.6757,-2.764,-2.8742,-2.8838,-2.8857,-2.8973,-2.8525,-2.8005,-2.7024,-2.6524,-2.6,-2.55,-2.533,-2.5402,-2.5465,-2.5541,-2.5586,-2.5664,-2.5703,-2.5703,-2.5703,-2.5703,-2.5625,-2.5547,-2.5503,-2.5468,-2.5395,-2.5308,-2.5308,-3.378,-3.3748,-3.3775,-3.281,-3.1479,-3.1302,-3.0436,-2.9155,-2.8977,-2.894,-2.8917,-2.8975,-2.8987,-2.8987,-2.8987,-2.8172,-2.703,-2.6801,-2.5984,-2.4723,-2.4753,-2.4883,-2.501,-2.5208,-2.5308,-2.5308,-2.5308,-2.5308,-2.5308,-2.5308,-2.5308,-2.5308,-2.5308,-2.5308,-2.5308,-2.5308,-2.5308,-2.5308,-2.5308,-2.5308,-2.5308,-2.5308,-2.4966,-2.4187,-2.3278,-2.2389,-2.1543,-2.0731,-2.0327,-2.0365,-2.0327,-2.0308,-2.0308,-2.0365,-2.0365,-2.0712,-2.1947,-2.2778,-2.3067,-2.4428,-2.5308,-2.5308,-2.5308,-2.5308,-2.5308,-2.5308,-2.5224,-2.5077,-2.5022,-2.4917,-2.4718,-2.4753,-2.4818,-2.4804,-2.4797,-2.4731,-2.4583,-2.4512,-2.4503,-2.4503,-2.4495,-2.4594,-2.4926,-2.5389,-2.5977,-2.6473,-2.7126,-2.8021,-2.8873,-2.8642,-2.8426,-2.861,-2.8318,-2.7712,-2.7157,-2.6601,-2.5942,-2.539,-2.5346,-2.5337,-2.5441,-2.552,-2.5567,-2.5625,-2.5684,-2.5703,-2.5703,-2.5684,-2.5625,-2.5551,-2.5522,-2.5462,-2.5375,-2.5308,-2.5308,-3.3072,-3.3332,-3.3027,-3.2005,-3.0661,-3.0571,-2.9693,-2.834,-2.8476,-2.8577,-2.8645,-2.8875,-2.8987,-2.8987,-2.8987,-2.8418,-2.7475,-2.7357,-2.6378,-2.482,-2.4727,-2.4883,-2.501,-2.5189,-2.5308,-2.5308,-2.5308,-2.5308,-2.5308,-2.5308,-2.5308,-2.5308,-2.5308,-2.5308,-2.5308,-2.5308,-2.5308,-2.5308,-2.5308,-2.5308,-2.5308,-2.5308,-2.5173,-2.487,-2.4125,-2.3297,-2.2389,-2.1038,-2.0615,-2.1038,-2.06,-2.0288,-2.0385,-2.0827,-2.11,-2.1312,-2.274,-2.3706,-2.3817,-2.4635,-2.5308,-2.5308,-2.5308,-2.5308,-2.5308,-2.5308,-2.5214,-2.5028,-2.5004,-2.5036,-2.519,-2.4843,-2.4602,-2.4602,-2.461,-2.4586,-2.4486,-2.4375,-2.4312,-2.4312,-2.4284,-2.4384,-2.4572,-2.508,-2.5729,-2.679,-2.7314,-2.7985,-2.9015,-2.8793,-2.846,-2.8714,-2.8167,-2.7788,-2.7579,-2.7215,-2.6621,-2.5923,-2.564,-2.5355,-2.542,-2.5498,-2.5551,-2.5608,-2.5662,-2.5703,-2.5703,-2.5684,-2.5625,-2.5559,-2.5517,-2.5444,-2.533,-2.5308,-2.5308,-3.2665,-3.2887,-3.2616,-3.1598,-3.0269,-3.0216,-2.9387,-2.8227,-2.8316,-2.8484,-2.867,-2.8875,-2.8987,-2.8987,-2.8987,-2.8539,-2.7842,-2.7816,-2.6765,-2.5203,-2.5163,-2.5191,-2.5068,-2.5208,-2.5308,-2.5308,-2.5308,-2.5308,-2.5308,-2.5308,-2.5308,-2.5308,-2.5308,-2.5308,-2.5308,-2.5308,-2.5308,-2.5308,-2.5308,-2.5308,-2.5308,-2.5308,-2.5308,-2.5135,-2.4197,-2.3379,-2.2701,-2.1196,-2.0519,-2.0889,-2.0538,-2.0308,-2.0365,-2.1038,-2.1481,-2.1808,-2.3009,-2.4091,-2.4182,-2.4827,-2.5308,-2.5308,-2.5308,-2.5308,-2.5308,-2.5308,-2.5198,-2.4962,-2.4923,-2.5007,-2.5,-2.4736,-2.4402,-2.4393,-2.4393,-2.4384,-2.4366,-2.4275,-2.4209,-2.4209,-2.4209,-2.4395,-2.4718,-2.5297,-2.5907,-2.7233,-2.7901,-2.8309,-2.9252,-2.8957,-2.8736,-2.8373,-2.7748,-2.772,-2.8133,-2.7802,-2.7313,-2.6659,-2.6038,-2.5643,-2.5418,-2.5474,-2.5539,-2.5631,-2.5703,-2.5703,-2.5703,-2.5703,-2.5661,-2.5595,-2.5506,-2.5421,-2.5342,-2.5303,-2.5308,-3.2434,-3.2451,-3.2417,-3.1486,-3.0164,-3.0076,-2.9343,-2.8389,-2.8355,-2.854,-2.8851,-2.8952,-2.8987,-2.8987,-2.8987,-2.8601,-2.7989,-2.7952,-2.7227,-2.6144,-2.5903,-2.5716,-2.5155,-2.5238,-2.5288,-2.5308,-2.5308,-2.5308,-2.5308,-2.5308,-2.5308,-2.5308,-2.5308,-2.5308,-2.5308,-2.5308,-2.5279,-2.5264,-2.5269,-2.5264,-2.5243,-2.5248,-2.5248,-2.5186,-2.3823,-2.2925,-2.255,-2.118,-2.0288,-2.0308,-2.0423,-2.0442,-2.0465,-2.1081,-2.15,-2.1712,-2.322,-2.3995,-2.4308,-2.4841,-2.5239,-2.5259,-2.5259,-2.5303,-2.5303,-2.5259,-2.5132,-2.4855,-2.4785,-2.4735,-2.457,-2.432,-2.4255,-2.4209,-2.4237,-2.4237,-2.4209,-2.4199,-2.4199,-2.4199,-2.4254,-2.4503,-2.5203,-2.6005,-2.687,-2.7848,-2.8662,-2.9082,-2.9232,-2.8848,-2.8402,-2.7854,-2.7229,-2.7444,-2.7772,-2.7898,-2.7467,-2.7236,-2.6524,-2.5904,-2.5468,-2.5473,-2.5547,-2.5634,-2.5703,-2.5703,-2.5703,-2.5703,-2.5644,-2.5551,-2.5485,-2.5421,-2.5364,-2.5307,-2.5308,-3.1714,-3.195,-3.1675,-3.0669,-2.9402,-2.9316,-2.8675,-2.7689,-2.7936,-2.8268,-2.8565,-2.8863,-2.8987,-2.8987,-2.8987,-2.8877,-2.8675,-2.8638,-2.7917,-2.6767,-2.6618,-2.6091,-2.5378,-2.5283,-2.5298,-2.5274,-2.5264,-2.5308,-2.5308,-2.5269,-2.5274,-2.5308,-2.5269,-2.5279,-2.5308,-2.5274,-2.5214,-2.5099,-2.5082,-2.5024,-2.4949,-2.4961,-2.4923,-2.4828,-2.3853,-2.3033,-2.25,-2.1126,-2.0308,-2.0346,-2.0885,-2.0889,-2.0469,-2.1099,-2.1805,-2.2521,-2.3438,-2.4327,-2.4684,-2.4954,-2.5069,-2.5063,-2.5082,-2.5152,-2.5298,-2.5157,-2.4993,-2.4806,-2.4696,-2.4981,-2.5499,-2.4924,-2.4355,-2.4199,-2.4245,-2.4254,-2.4218,-2.4199,-2.4199,-2.4199,-2.4199,-2.4585,-2.5211,-2.572,-2.6398,-2.7534,-2.8141,-2.8499,-2.8577,-2.8243,-2.7576,-2.7202,-2.6814,-2.7088,-2.735,-2.7595,-2.7654,-2.764,-2.701,-2.6155,-2.5742,-2.5476,-2.557,-2.568,-2.5684,-2.5703,-2.5703,-2.5703,-2.5605,-2.5527,-2.5501,-2.5456,-2.5367,-2.5308,-2.5308,-3.1042,-3.1492,-3.0951,-3.0057,-2.901,-2.8636,-2.8134,-2.7657,-2.7797,-2.8201,-2.862,-2.8875,-2.8987,-2.8987,-2.8987,-2.8987,-2.8987,-2.8987,-2.8158,-2.6807,-2.6089,-2.5543,-2.5146,-2.5091,-2.5091,-2.5091,-2.5097,-2.5091,-2.5086,-2.5091,-2.5091,-2.508,-2.5091,-2.5097,-2.5061,-2.5091,-2.5056,-2.4936,-2.4898,-2.4864,-2.4811,-2.4804,-2.4804,-2.454,-2.3671,-2.2546,-2.1468,-2.1154,-2.0866,-2.0469,-2.0606,-2.0756,-2.0733,-2.1377,-2.2222,-2.3062,-2.3908,-2.4592,-2.4816,-2.4923,-2.4923,-2.4904,-2.4923,-2.4981,-2.5056,-2.4968,-2.4843,-2.4685,-2.4823,-2.5366,-2.5792,-2.5493,-2.4924,-2.4392,-2.4502,-2.4548,-2.4281,-2.4199,-2.4199,-2.4199,-2.4226,-2.4483,-2.5283,-2.5384,-2.6035,-2.688,-2.7269,-2.7566,-2.7721,-2.7218,-2.6967,-2.6811,-2.68,-2.7104,-2.7423,-2.7675,-2.7912,-2.789,-2.7402,-2.6549,-2.6308,-2.5895,-2.5834,-2.5937,-2.5801,-2.5703,-2.5703,-2.5684,-2.5625,-2.5559,-2.5533,-2.5459,-2.5359,-2.5308,-2.5308,-3.0446,-3.0922,-3.0345,-2.9617,-2.8807,-2.8112,-2.7872,-2.7885,-2.7897,-2.8295,-2.8839,-2.8975,-2.8987,-2.8987,-2.8987,-2.8987,-2.8987,-2.8822,-2.7787,-2.6467,-2.5329,-2.4634,-2.4764,-2.4821,-2.4861,-2.4861,-2.4811,-2.4832,-2.4867,-2.484,-2.4818,-2.4861,-2.484,-2.4818,-2.4867,-2.484,-2.4797,-2.4756,-2.4756,-2.4712,-2.4678,-2.4662,-2.4561,-2.4174,-2.311,-2.1713,-2.096,-2.1167,-2.1588,-2.0314,-2.024,-2.0695,-2.1199,-2.1941,-2.2627,-2.3332,-2.4064,-2.4549,-2.4756,-2.4749,-2.4749,-2.4749,-2.4768,-2.4797,-2.4844,-2.491,-2.4956,-2.4814,-2.5363,-2.5708,-2.5829,-2.6227,-2.597,-2.5126,-2.5227,-2.5117,-2.464,-2.43,-2.4199,-2.4199,-2.4199,-2.4585,-2.5117,-2.5521,-2.5823,-2.6722,-2.7016,-2.7402,-2.7493,-2.72,-2.7053,-2.7014,-2.7084,-2.724,-2.7523,-2.781,-2.8048,-2.8156,-2.7638,-2.7078,-2.7119,-2.6821,-2.6482,-2.6289,-2.6035,-2.582,-2.5703,-2.5664,-2.5664,-2.5563,-2.552,-2.5441,-2.5344,-2.5313,-2.5308,-2.9854,-2.9501,-2.9922,-2.9294,-2.8145,-2.7858,-2.7819,-2.7886,-2.7883,-2.8268,-2.887,-2.8975,-2.8982,-2.8975,-2.894,-2.8987,-2.878,-2.8242,-2.7192,-2.5678,-2.4734,-2.4312,-2.4419,-2.4615,-2.4775,-2.4775,-2.4797,-2.4797,-2.479,-2.4753,-2.4797,-2.4775,-2.4746,-2.4797,-2.4775,-2.4746,-2.4708,-2.4591,-2.4551,-2.4486,-2.4384,-2.4347,-2.4051,-2.344,-2.2619,-2.1682,-2.1052,-2.1622,-2.1966,-2.1707,-2.1674,-2.1801,-2.1956,-2.2144,-2.2696,-2.3361,-2.3695,-2.4054,-2.4433,-2.4578,-2.4551,-2.4569,-2.4559,-2.4642,-2.4813,-2.5215,-2.5422,-2.554,-2.6041,-2.6373,-2.6421,-2.7071,-2.6869,-2.6253,-2.6135,-2.6245,-2.5905,-2.4961,-2.4428,-2.4318,-2.4309,-2.4511,-2.5301,-2.5925,-2.6264,-2.6631,-2.6998,-2.742,-2.7346,-2.7145,-2.7108,-2.7071,-2.7343,-2.7491,-2.7691,-2.8082,-2.8558,-2.8669,-2.8186,-2.8045,-2.8079,-2.7438,-2.7003,-2.6582,-2.6172,-2.6074,-2.625,-2.584,-2.5879,-2.5707,-2.5547,-2.5444,-2.5371,-2.533,-2.5308,-2.9025,-2.901,-2.9007,-2.8551,-2.7824,-2.7435,-2.7412,-2.76,-2.7604,-2.7936,-2.8391,-2.85,-2.8589,-2.8682,-2.8552,-2.8377,-2.7917,-2.6957,-2.5998,-2.5119,-2.4496,-2.4218,-2.4218,-2.4384,-2.452,-2.451,-2.4512,-2.452,-2.452,-2.4518,-2.4476,-2.4501,-2.4518,-2.4495,-2.452,-2.4537,-2.4471,-2.4384,-2.4357,-2.4303,-2.4209,-2.419,-2.3547,-2.2905,-2.2672,-2.238,-2.0888,-2.2341,-2.2759,-2.2708,-2.2879,-2.2936,-2.2638,-2.2582,-2.3007,-2.3648,-2.3835,-2.395,-2.4282,-2.4375,-2.4375,-2.4375,-2.4375,-2.4419,-2.4645,-2.5143,-2.5523,-2.5799,-2.6448,-2.7181,-2.7218,-2.7886,-2.7776,-2.6969,-2.6961,-2.6998,-2.6557,-2.5823,-2.5328,-2.5236,-2.5081,-2.5062,-2.5466,-2.609,-2.6054,-2.6098,-2.6686,-2.7108,-2.7218,-2.7053,-2.709,-2.7193,-2.7502,-2.774,-2.7891,-2.8379,-2.9152,-2.9245,-2.9093,-2.9227,-2.9458,-2.8475,-2.7399,-2.7266,-2.7285,-2.7168,-2.7226,-2.6719,-2.6269,-2.6207,-2.6059,-2.567,-2.5406,-2.5339,-2.5308,-2.8163,-2.8604,-2.8027,-2.7739,-2.7536,-2.6996,-2.6973,-2.7288,-2.7319,-2.7607,-2.7855,-2.7897,-2.8143,-2.8188,-2.7897,-2.7451,-2.659,-2.5726,-2.4874,-2.4581,-2.4285,-2.414,-2.419,-2.4247,-2.4247,-2.4199,-2.4247,-2.4247,-2.4247,-2.4199,-2.4275,-2.4228,-2.4218,-2.4266,-2.4228,-2.4209,-2.4247,-2.4237,-2.4237,-2.4228,-2.4199,-2.4181,-2.3456,-2.2694,-2.3033,-2.2877,-2.1885,-2.284,-2.3823,-2.3281,-2.3841,-2.3768,-2.34,-2.3226,-2.3437,-2.4154,-2.4136,-2.4164,-2.4201,-2.4228,-2.4218,-2.4199,-2.4209,-2.4319,-2.4549,-2.524,-2.5782,-2.6368,-2.709,-2.7989,-2.8044,-2.8473,-2.8216,-2.7537,-2.7658,-2.7585,-2.7181,-2.6961,-2.6877,-2.6363,-2.5915,-2.5723,-2.5797,-2.6146,-2.5833,-2.5723,-2.6355,-2.6833,-2.7016,-2.7181,-2.7346,-2.7772,-2.822,-2.8671,-2.8869,-2.8928,-2.9675,-2.9745,-2.972,-2.9977,-3.033,-2.9659,-2.8769,-2.873,-2.8711,-2.8398,-2.7988,-2.7539,-2.7168,-2.6934,-2.6486,-2.6004,-2.5665,-2.5391,-2.5346,-2.7503,-2.7131,-2.7587,-2.7452,-2.6911,-2.6759,-2.6923,-2.7272,-2.7272,-2.7515,-2.784,-2.7883,-2.7865,-2.7776,-2.724,-2.6264,-2.5212,-2.4508,-2.42,-2.3965,-2.3818,-2.3904,-2.4113,-2.4141,-2.417,-2.4199,-2.4199,-2.4199,-2.4199,-2.4199,-2.4199,-2.4199,-2.4199,-2.4199,-2.4199,-2.4199,-2.4199,-2.4199,-2.4199,-2.4199,-2.4199,-2.4144,-2.3749,-2.2813,-2.3226,-2.3006,-2.2914,-2.3492,-2.4135,-2.4043,-2.4135,-2.4098,-2.3951,-2.3933,-2.4025,-2.4144,-2.4199,-2.4199,-2.4199,-2.4199,-2.4199,-2.4199,-2.4273,-2.4622,-2.5154,-2.5933,-2.6594,-2.7365,-2.8062,-2.8748,-2.8803,-2.8913,-2.8895,-2.862,-2.8528,-2.8638,-2.851,-2.8326,-2.7871,-2.7013,-2.6625,-2.641,-2.6502,-2.6623,-2.6605,-2.6686,-2.7163,-2.753,-2.7695,-2.7842,-2.7989,-2.8537,-2.9164,-2.9631,-3.0011,-2.9979,-3.0217,-3.0175,-3.0173,-3.0234,-3.048,-3.0548,-3.0293,-2.9863,-2.9336,-2.8789,-2.8437,-2.8281,-2.793,-2.7617,-2.6986,-2.634,-2.5958,-2.5642,-2.5447,-2.7587,-2.7283,-2.7232,-2.7046,-2.6725,-2.6708,-2.6791,-2.6954,-2.7004,-2.7099,-2.7224,-2.7286,-2.7183,-2.6909,-2.6462,-2.5328,-2.4187,-2.3592,-2.3397,-2.3224,-2.3369,-2.3628,-2.3917,-2.3966,-2.4074,-2.4161,-2.4199,-2.4199,-2.4199,-2.4199,-2.4199,-2.4199,-2.4199,-2.4199,-2.4199,-2.4199,-2.4199,-2.4199,-2.4199,-2.4199,-2.4199,-2.4199,-2.3768,-2.3299,-2.3354,-2.3391,-2.3189,-2.3768,-2.4171,-2.4199,-2.4199,-2.4199,-2.4199,-2.4199,-2.4199,-2.4199,-2.4199,-2.4199,-2.4199,-2.4199,-2.4199,-2.4245,-2.453,-2.4952,-2.5595,-2.6447,-2.7512,-2.8246,-2.8613,-2.8987,-2.8968,-2.8987,-2.8987,-2.8987,-2.8987,-2.8987,-2.8987,-2.8987,-2.8368,-2.7556,-2.7339,-2.7229,-2.7265,-2.7365,-2.7457,-2.7714,-2.8007,-2.8191,-2.8319,-2.8411,-2.8484,-2.8897,-2.9438,-2.9802,-3.0215,-3.0349,-3.0398,-3.0419,-3.0446,-3.0501,-3.0568,-3.0618,-3.0626,-3.0449,-2.9863,-2.9355,-2.9453,-2.9473,-2.8887,-2.8223,-2.7456,-2.6773,-2.626,-2.5908,-2.5751,-2.7705,-2.7519,-2.6945,-2.6708,-2.6708,-2.6708,-2.6691,-2.6708,-2.6708,-2.6725,-2.6708,-2.6708,-2.6497,-2.6006,-2.5337,-2.4404,-2.3202,-2.2791,-2.273,-2.2827,-2.2996,-2.33,-2.3628,-2.3753,-2.3886,-2.418,-2.4199,-2.4199,-2.4199,-2.4199,-2.4199,-2.4199,-2.4199,-2.4199,-2.4199,-2.4199,-2.4199,-2.4199,-2.4199,-2.4199,-2.4199,-2.4163,-2.3933,-2.3336,-2.3859,-2.3859,-2.3483,-2.3859,-2.4153,-2.4199,-2.4199,-2.4199,-2.4199,-2.4199,-2.4199,-2.4199,-2.4199,-2.4199,-2.4199,-2.4199,-2.4199,-2.4218,-2.4952,-2.5384,-2.6054,-2.709,-2.8301,-2.884,-2.8987,-2.8987,-2.8987,-2.8987,-2.8987,-2.8987,-2.8987,-2.8975,-2.8952,-2.8917,-2.8785,-2.8287,-2.8109,-2.7933,-2.7842,-2.8081,-2.8172,-2.8209,-2.8491,-2.8565,-2.8693,-2.8767,-2.8883,-2.9153,-2.9523,-2.9837,-3.0129,-3.0343,-3.0392,-3.0396,-3.0425,-3.0472,-3.0558,-3.0628,-3.066,-3.0684,-3.0703,-3.0312,-3.0508,-3.041,-2.9726,-2.8926,-2.7949,-2.7171,-2.6622,-2.6281,-2.6125,-2.7418,-2.6843,-2.6759,-2.6708,-2.6708,-2.6708,-2.6708,-2.6708,-2.6708,-2.6708,-2.6708,-2.6657,-2.6301,-2.5485,-2.4232,-2.3257,-2.2646,-2.2448,-2.2487,-2.2647,-2.2746,-2.3069,-2.3595,-2.3721,-2.3785,-2.4026,-2.4141,-2.4199,-2.417,-2.417,-2.4199,-2.4199,-2.4199,-2.4199,-2.4199,-2.4199,-2.4199,-2.4199,-2.4199,-2.4199,-2.4199,-2.4199,-2.4116,-2.408,-2.4116,-2.4135,-2.3933,-2.4116,-2.4199,-2.4199,-2.4199,-2.4199,-2.4199,-2.4199,-2.4199,-2.4199,-2.4199,-2.4199,-2.4199,-2.4309,-2.4346,-2.453,-2.5117,-2.5723,-2.6722,-2.7776,-2.8785,-2.8913,-2.8987,-2.8987,-2.8987,-2.8987,-2.8987,-2.8964,-2.894,-2.897,-2.897,-2.8737,-2.8615,-2.8676,-2.8378,-2.8312,-2.8238,-2.8585,-2.8858,-2.8877,-2.8913,-2.8968,-2.9021,-2.9044,-2.9174,-2.9408,-2.9642,-2.9939,-3.0136,-3.0343,-3.0386,-3.0404,-3.0422,-3.0453,-3.0563,-3.0641,-3.0726,-3.0781,-3.0879,-3.0918,-3.0781,-3.0566,-3.0293,-2.9687,-2.8769,-2.7824,-2.6911,-2.6699,-2.6625,-2.8298,-2.7909,-2.7046,-2.6708,-2.6708,-2.6708,-2.6708,-2.6708,-2.6708,-2.6708,-2.6708,-2.6691,-2.6065,-2.4847,-2.3427,-2.2632,-2.2347,-2.2313,-2.2349,-2.245,-2.2527,-2.2717,-2.3009,-2.3153,-2.3323,-2.3671,-2.3834,-2.3896,-2.3976,-2.4113,-2.4199,-2.4199,-2.4199,-2.4199,-2.4199,-2.4199,-2.4199,-2.4199,-2.4199,-2.4199,-2.4199,-2.4199,-2.4199,-2.4199,-2.4199,-2.4199,-2.4199,-2.4199,-2.4199,-2.4199,-2.4199,-2.4199,-2.4199,-2.4199,-2.4199,-2.4199,-2.4199,-2.4199,-2.4254,-2.4612,-2.4768,-2.5209,-2.598,-2.7145,-2.7904,-2.8491,-2.8987,-2.8987,-2.8987,-2.8987,-2.8987,-2.8987,-2.8987,-2.8964,-2.8863,-2.8917,-2.8881,-2.862,-2.8471,-2.859,-2.8682,-2.8577,-2.854,-2.8743,-2.8938,-2.895,-2.895,-2.8968,-2.9078,-2.9171,-2.9365,-2.9607,-2.9821,-3.0061,-3.0215,-3.0398,-3.0392,-3.0404,-3.0396,-3.0457,-3.0563,-3.0658,-3.0746,-3.082,-3.0898,-3.0918,-3.0918,-3.0801,-3.0586,-3.0137,-2.9629,-2.8673,-2.7794,-2.7546,-2.7616,-2.8687,-2.8552,-2.7232,-2.6708,-2.6708,-2.6708,-2.6708,-2.6708,-2.6708,-2.6708,-2.6573,-2.6268,-2.5371,-2.422,-2.3004,-2.2347,-2.2313,-2.2313,-2.2313,-2.2313,-2.2338,-2.246,-2.2699,-2.2772,-2.2972,-2.3305,-2.3649,-2.3806,-2.3937,-2.4064,-2.4199,-2.4199,-2.4199,-2.4199,-2.4199,-2.4199,-2.4199,-2.4199,-2.4199,-2.4199,-2.4199,-2.4199,-2.4199,-2.4199,-2.4199,-2.4199,-2.4199,-2.4199,-2.4199,-2.4199,-2.4199,-2.4199,-2.4199,-2.4199,-2.4199,-2.4199,-2.4199,-2.4199,-2.4318,-2.463,-2.5227,-2.5999,-2.6862,-2.7897,-2.8693,-2.8987,-2.8987,-2.8987,-2.8987,-2.8987,-2.8987,-2.8987,-2.8987,-2.891,-2.8797,-2.8851,-2.8839,-2.8577,-2.8515,-2.8682,-2.8761,-2.8694,-2.8694,-2.887,-2.897,-2.8975,-2.8987,-2.8987,-2.9104,-2.9257,-2.9465,-2.9713,-3.0007,-3.0189,-3.0299,-3.0404,-3.0404,-3.0402,-3.0408,-3.0457,-3.0554,-3.0641,-3.0728,-3.082,-3.0898,-3.0918,-3.0918,-3.0918,-3.0879,-3.0449,-2.998,-2.9434,-2.8829,-2.851,-2.8569,-2.7891,-2.7824,-2.7029,-2.6708,-2.6708,-2.6708,-2.6708,-2.6708,-2.6708,-2.6657,-2.6404,-2.532,-2.4305,-2.346,-2.2801,-2.2313,-2.2313,-2.2313,-2.2313,-2.2313,-2.2324,-2.2436,-2.2586,-2.2751,-2.2984,-2.3448,-2.366,-2.3847,-2.4074,-2.4103,-2.419,-2.4199,-2.4199,-2.4199,-2.4199,-2.4199,-2.4199,-2.4199,-2.4199,-2.4199,-2.4199,-2.419,-2.418,-2.417,-2.4198,-2.4208,-2.419,-2.4161,-2.418,-2.418,-2.4199,-2.4199,-2.4199,-2.4199,-2.4199,-2.4199,-2.4199,-2.4309,-2.4612,-2.4814,-2.5254,-2.63,-2.7383,-2.8264,-2.8895,-2.8987,-2.8987,-2.8987,-2.8987,-2.8987,-2.8987,-2.8987,-2.8987,-2.891,-2.8821,-2.8851,-2.8785,-2.8577,-2.8552,-2.8773,-2.8839,-2.8785,-2.8797,-2.894,-2.8982,-2.8987,-2.8987,-2.8987,-2.9141,-2.9293,-2.9523,-2.979,-3.0135,-3.033,-3.0355,-3.0404,-3.0404,-3.0411,-3.043,-3.049,-3.0581,-3.065,-3.0734,-3.082,-3.0918,-3.0918,-3.0918,-3.0918,-3.0859,-3.0703,-3.0351,-2.9883,-2.9406,-2.8979,-2.9295,-2.7519,-2.7097,-2.6826,-2.6708,-2.6708,-2.6708,-2.6708,-2.6708,-2.6691,-2.642,-2.5913,-2.4526,-2.3678,-2.3241,-2.2668,-2.2313,-2.2313,-2.2313,-2.2313,-2.2313,-2.2338,-2.2377,-2.249,-2.2652,-2.2848,-2.3165,-2.3459,-2.3724,-2.3865,-2.4094,-2.419,-2.4199,-2.4199,-2.4199,-2.4199,-2.4199,-2.4199,-2.4199,-2.4199,-2.4199,-2.4199,-2.418,-2.4094,-2.3896,-2.3896,-2.3896,-2.3886,-2.3886,-2.4006,-2.4151,-2.418,-2.4199,-2.4199,-2.4199,-2.4199,-2.4199,-2.4199,-2.463,-2.5438,-2.5676,-2.6418,-2.7684,-2.84,-2.8668,-2.8987,-2.8987,-2.8987,-2.8987,-2.8987,-2.8987,-2.8987,-2.8987,-2.8975,-2.8922,-2.8887,-2.8863,-2.8785,-2.8602,-2.8615,-2.8863,-2.8917,-2.8887,-2.8922,-2.8975,-2.8987,-2.8987,-2.8987,-2.9021,-2.9141,-2.9336,-2.9579,-2.9815,-3.0135,-3.0349,-3.0398,-3.0404,-3.0404,-3.0428,-3.0452,-3.0521,-3.058,-3.0644,-3.0742,-3.084,-3.0918,-3.0918,-3.0918,-3.0918,-3.0859,-3.0781,-3.0644,-3.043,-2.995,-2.936,-2.9765,-2.7165,-2.6725,-2.6708,-2.6708,-2.6708,-2.6708,-2.6708,-2.6657,-2.6437,-2.5812,-2.4898,-2.3816,-2.3257,-2.297,-2.2598,-2.2313,-2.2313,-2.2313,-2.2313,-2.2313,-2.2313,-2.2313,-2.2402,-2.2581,-2.2797,-2.2947,-2.3357,-2.3724,-2.3945,-2.4103,-2.418,-2.4199,-2.4199,-2.4199,-2.4199,-2.419,-2.419,-2.4199,-2.4199,-2.4113,-2.4084,-2.4016,-2.3876,-2.3599,-2.3555,-2.3555,-2.3606,-2.3671,-2.3827,-2.3996,-2.4113,-2.419,-2.4199,-2.4199,-2.4199,-2.4199,-2.4346,-2.4887,-2.5915,-2.7145,-2.7611,-2.8253,-2.8785,-2.8895,-2.8987,-2.8987,-2.8987,-2.8987,-2.8987,-2.8987,-2.8987,-2.8987,-2.8987,-2.8952,-2.8875,-2.8851,-2.8875,-2.8785,-2.8839,-2.894,-2.8952,-2.8952,-2.8964,-2.8987,-2.8987,-2.8987,-2.8987,-2.901,-2.9082,-2.9306,-2.9625,-2.9856,-3.0114,-3.028,-3.0404,-3.0404,-3.039,-3.0433,-3.0477,-3.0541,-3.0592,-3.0671,-3.0762,-3.0859,-3.0918,-3.0918,-3.0918,-3.0918,-3.0918,-3.0898,-3.0644,-3.0312,-2.9924,-2.9415,-2.9831,-2.6742,-2.6708,-2.6708,-2.6708,-2.6708,-2.6708,-2.6708,-2.6589,-2.5913,-2.4932,-2.3833,-2.341,-2.3038,-2.2567,-2.2431,-2.2313,-2.2313,-2.2313,-2.2313,-2.2313,-2.2313,-2.2313,-2.2415,-2.259,-2.291,-2.3218,-2.3577,-2.3927,-2.4141,-2.4094,-2.4123,-2.4103,-2.4046,-2.4113,-2.418,-2.419,-2.419,-2.419,-2.4161,-2.3945,-2.3774,-2.3703,-2.3522,-2.33,-2.3212,-2.3218,-2.3253,-2.3471,-2.3642,-2.3806,-2.4084,-2.418,-2.4199,-2.4199,-2.4199,-2.4199,-2.4199,-2.4658,-2.5521,-2.7629,-2.8381,-2.8282,-2.8767,-2.8968,-2.8987,-2.8987,-2.8987,-2.8987,-2.8987,-2.8987,-2.8987,-2.8987,-2.8987,-2.8964,-2.8887,-2.8875,-2.8899,-2.894,-2.8952,-2.8964,-2.8975,-2.8987,-2.8987,-2.8987,-2.8987,-2.8987,-2.8987,-2.9033,-2.9093,-2.9326,-2.967,-2.9904,-3.0142,-3.028,-3.0404,-3.0404,-3.0402,-3.0444,-3.0487,-3.0533,-3.0614,-3.0698,-3.0781,-3.0879,-3.0918,-3.0918,-3.0918,-3.0918,-3.0781,-3.0605,-3.0273,-2.9941,-2.9609,-2.9593,-3.0047,-2.6938,-2.6708,-2.6708,-2.6708,-2.6708,-2.6708,-2.6691,-2.6471,-2.5455,-2.4575,-2.3983,-2.319,-2.2919,-2.2818,-2.2516,-2.2347,-2.2313,-2.2313,-2.2313,-2.2313,-2.2313,-2.2313,-2.2429,-2.276,-2.3069,-2.3335,-2.3692,-2.4054,-2.4198,-2.4026,-2.3896,-2.3827,-2.3735,-2.3788,-2.4006,-2.4026,-2.3858,-2.3816,-2.3671,-2.3477,-2.338,-2.3357,-2.3218,-2.2898,-2.2873,-2.2873,-2.2898,-2.3189,-2.3437,-2.3671,-2.3986,-2.4161,-2.419,-2.4199,-2.4199,-2.4208,-2.4245,-2.485,-2.6153,-2.7849,-2.8803,-2.8748,-2.8767,-2.8987,-2.8987,-2.8987,-2.8987,-2.8987,-2.8987,-2.8987,-2.8987,-2.8987,-2.8987,-2.8987,-2.8952,-2.8952,-2.8975,-2.8975,-2.8975,-2.8975,-2.8987,-2.8987,-2.8987,-2.8998,-2.901,-2.9055,-2.9067,-2.916,-2.9246,-2.9465,-2.9748,-2.9966,-3.0176,-3.0305,-3.0404,-3.0404,-3.0404,-3.0419,-3.0447,-3.0488,-3.0587,-3.0691,-3.0742,-3.0801,-3.0859,-3.0918,-3.0918,-3.084,-3.0488,-3.0195,-3.0117,-2.9746,-2.9297,-2.9619,-3.03,-2.6939,-2.6708,-2.6708,-2.6708,-2.6708,-2.6708,-2.6573,-2.6184,-2.5286,-2.4745,-2.4321,-2.3475,-2.3139,-2.3241,-2.2922,-2.2415,-2.2347,-2.2313,-2.2313,-2.2313,-2.2313,-2.2313,-2.2497,-2.2857,-2.3117,-2.3392,-2.3806,-2.419,-2.4198,-2.3876,-2.3671,-2.3493,-2.3311,-2.3488,-2.3671,-2.361,-2.3515,-2.3471,-2.3357,-2.3206,-2.3081,-2.2984,-2.2878,-2.2652,-2.2563,-2.2546,-2.2639,-2.2865,-2.3195,-2.3533,-2.3816,-2.4084,-2.4161,-2.4208,-2.4218,-2.4208,-2.4924,-2.564,-2.7034,-2.8124,-2.8895,-2.895,-2.8987,-2.8987,-2.8987,-2.8987,-2.8987,-2.8987,-2.8987,-2.8987,-2.8987,-2.8987,-2.8987,-2.8987,-2.8987,-2.8987,-2.8987,-2.8987,-2.8987,-2.8987,-2.8987,-2.8987,-2.8987,-2.9021,-2.9051,-2.9089,-2.9138,-2.9278,-2.9404,-2.9607,-2.9815,-3.0018,-3.0202,-3.0323,-3.0404,-3.0404,-3.0404,-3.0404,-3.0436,-3.0476,-3.054,-3.0636,-3.0669,-3.0723,-3.082,-3.0898,-3.0918,-3.0781,-3.0488,-3.0391,-3.041,-2.9883,-2.9101,-2.9603,-3.0462,-2.6725,-2.6691,-2.6708,-2.6708,-2.6708,-2.6708,-2.6302,-2.5643,-2.5576,-2.5169,-2.4541,-2.4406,-2.3949,-2.3509,-2.3342,-2.2885,-2.2398,-2.2313,-2.2313,-2.2313,-2.2313,-2.2313,-2.2484,-2.2849,-2.3081,-2.338,-2.3724,-2.4016,-2.4132,-2.3774,-2.3448,-2.3206,-2.3051,-2.3117,-2.3123,-2.3135,-2.3135,-2.3135,-2.3051,-2.2878,-2.2755,-2.2686,-2.2594,-2.244,-2.2374,-2.236,-2.2453,-2.2643,-2.2923,-2.3236,-2.3555,-2.3858,-2.4084,-2.4226,-2.4245,-2.4704,-2.5823,-2.6814,-2.7585,-2.851,-2.8913,-2.8987,-2.8987,-2.8987,-2.8987,-2.8987,-2.8987,-2.8987,-2.8987,-2.8987,-2.8987,-2.8987,-2.8987,-2.8987,-2.8987,-2.8987,-2.8987,-2.8987,-2.8987,-2.8987,-2.8987,-2.8987,-2.9017,-2.904,-2.9134,-2.9246,-2.9332,-2.9456,-2.9579,-2.967,-2.9888,-3.008,-3.0248,-3.0361,-3.0404,-3.0404,-3.0404,-3.0404,-3.0439,-3.0477,-3.0541,-3.0587,-3.0643,-3.0707,-3.0834,-3.0898,-3.0918,-3.0801,-3.0586,-3.0547,-3.0625,-3.0039,-2.9275,-2.9872,-3.0503,-2.6971,-2.6708,-2.6708,-2.6708,-2.6708,-2.6691,-2.6268,-2.5659,-2.5609,-2.5439,-2.522,-2.4154,-2.3983,-2.4101,-2.3105,-2.26,-2.2381,-2.2313,-2.2313,-2.2313,-2.2313,-2.2313,-2.2443,-2.2695,-2.2947,-2.3189,-2.3459,-2.3798,-2.3996,-2.3682,-2.3068,-2.2638,-2.266,-2.2624,-2.2611,-2.2571,-2.2708,-2.2781,-2.2691,-2.2581,-2.2477,-2.2467,-2.2377,-2.2338,-2.2313,-2.2313,-2.2377,-2.2537,-2.2822,-2.3165,-2.3493,-2.3837,-2.4161,-2.4732,-2.5191,-2.5952,-2.6851,-2.7603,-2.7879,-2.8539,-2.8987,-2.8987,-2.8987,-2.8987,-2.8987,-2.8987,-2.8987,-2.8987,-2.8987,-2.8987,-2.8987,-2.8987,-2.8987,-2.8987,-2.8987,-2.8987,-2.8987,-2.8987,-2.8987,-2.8987,-2.8987,-2.8987,-2.9017,-2.9123,-2.9225,-2.9373,-2.9504,-2.9634,-2.9729,-2.9829,-2.9966,-3.0176,-3.0267,-3.0373,-3.0404,-3.0404,-3.0404,-3.0396,-3.0433,-3.0456,-3.0463,-3.0517,-3.0603,-3.0716,-3.0833,-3.0898,-3.0918,-3.0781,-3.0684,-3.0762,-3.0762,-3.0117,-2.9716,-3.0248,-3.048,-2.6923,-2.6708,-2.6708,-2.6708,-2.6657,-2.6387,-2.5998,-2.5677,-2.5913,-2.6031,-2.5896,-2.4847,-2.434,-2.4254,-2.3325,-2.2649,-2.2313,-2.2313,-2.2313,-2.2313,-2.2313,-2.2313,-2.2388,-2.2577,-2.2885,-2.3117,-2.3392,-2.3764,-2.3896,-2.3511,-2.2908,-2.2391,-2.2313,-2.2313,-2.2338,-2.2377,-2.2429,-2.2453,-2.2412,-2.2324,-2.2313,-2.2313,-2.2313,-2.2313,-2.2313,-2.2313,-2.231,-2.25,-2.2691,-2.2947,-2.3247,-2.3723,-2.4361,-2.5348,-2.6209,-2.6906,-2.7365,-2.7952,-2.8338,-2.8705,-2.895,-2.8987,-2.8987,-2.8987,-2.8987,-2.8987,-2.8987,-2.8987,-2.8987,-2.8987,-2.8987,-2.8987,-2.8987,-2.8987,-2.8987,-2.8987,-2.8987,-2.8987,-2.8987,-2.8987,-2.8987,-2.8987,-2.9055,-2.9181,-2.9343,-2.9494,-2.9661,-2.9823,-2.992,-2.9969,-3.0109,-3.0292,-3.0349,-3.0404,-3.0404,-3.0404,-3.0404,-3.0404,-3.0396,-3.0411,-3.0422,-3.0498,-3.062,-3.0725,-3.0834,-3.0879,-3.0918,-3.0918,-3.0859,-3.0918,-3.0918,-3.0547,-3.0234,-3.0398,-3.0465,-2.6725,-2.6708,-2.6708,-2.664,-2.6505,-2.5913,-2.5592,-2.5576,-2.6065,-2.6471,-2.6234,-2.5642,-2.478,-2.4152,-2.3325,-2.275,-2.2431,-2.2313,-2.2313,-2.2313,-2.2313,-2.2313,-2.2377,-2.2567,-2.2764,-2.3117,-2.3374,-2.3511,-2.3774,-2.3477,-2.292,-2.2366,-2.2313,-2.2313,-2.2313,-2.2313,-2.2352,-2.2335,-2.2335,-2.2313,-2.2313,-2.2313,-2.2313,-2.2313,-2.2313,-2.2313,-2.2313,-2.2349,-2.2446,-2.2668,-2.3019,-2.3635,-2.5049,-2.6107,-2.702,-2.7603,-2.7989,-2.8301,-2.8656,-2.8932,-2.895,-2.8987,-2.8987,-2.8987,-2.8987,-2.8987,-2.8987,-2.8987,-2.8987,-2.8987,-2.8987,-2.8987,-2.8987,-2.8987,-2.8987,-2.8987,-2.8987,-2.8987,-2.8987,-2.8987,-2.8987,-2.8987,-2.9021,-2.9156,-2.933,-2.9551,-2.9771,-2.9958,-3.0059,-3.0096,-3.0222,-3.0367,-3.0373,-3.0404,-3.0404,-3.0404,-3.0404,-3.0404,-3.0404,-3.0404,-3.0414,-3.052,-3.067,-3.0781,-3.0879,-3.0898,-3.0918,-3.0918,-3.0918,-3.0918,-3.0918,-3.0918,-3.084,-3.0742,-3.057,-2.6708,-2.6708,-2.6708,-2.6404,-2.5896,-2.5693,-2.527,-2.4778,-2.4931,-2.5065,-2.4897,-2.4305,-2.39,-2.3695,-2.3004,-2.2479,-2.2381,-2.2313,-2.2313,-2.2313,-2.2313,-2.2313,-2.231,-2.244,-2.2616,-2.2733,-2.2942,-2.3271,-2.3448,-2.3288,-2.3009,-2.263,-2.244,-2.2313,-2.2313,-2.2313,-2.2313,-2.2313,-2.2313,-2.2313,-2.2313,-2.2313,-2.2313,-2.2313,-2.2313,-2.2313,-2.2313,-2.2361,-2.2877,-2.3411,-2.3555,-2.4707,-2.6513,-2.715,-2.7864,-2.851,-2.8597,-2.8732,-2.8877,-2.8987,-2.8987,-2.8987,-2.8987,-2.8987,-2.8987,-2.8987,-2.8987,-2.8987,-2.8987,-2.8987,-2.8987,-2.8987,-2.8987,-2.8987,-2.8987,-2.8987,-2.8987,-2.8987,-2.8987,-2.8987,-2.8987,-2.8998,-2.9051,-2.9145,-2.933,-2.9551,-2.9813,-2.9999,-3.0109,-3.0189,-3.0273,-3.0392,-3.0398,-3.0404,-3.0404,-3.0404,-3.0404,-3.0404,-3.0404,-3.0404,-3.0396,-3.0524,-3.0664,-3.0801,-3.0918,-3.0918,-3.0918,-3.0918,-3.0918,-3.0918,-3.0918,-3.0918,-3.0918,-3.084,-3.0703,-2.6708,-2.6708,-2.6708,-2.6268,-2.5693,-2.5609,-2.5,-2.4135,-2.4017,-2.3886,-2.3733,-2.3495,-2.3408,-2.3289,-2.2649,-2.2296,-2.2296,-2.2313,-2.2313,-2.2313,-2.2313,-2.2313,-2.2338,-2.2426,-2.2734,-2.2873,-2.3265,-2.3511,-2.3392,-2.3212,-2.3051,-2.276,-2.2484,-2.233,-2.2313,-2.2313,-2.233,-2.2313,-2.2313,-2.2313,-2.2313,-2.2313,-2.2313,-2.2313,-2.2313,-2.2313,-2.2448,-2.255,-2.3119,-2.393,-2.4388,-2.5205,-2.6565,-2.7297,-2.8038,-2.8476,-2.8682,-2.8815,-2.8929,-2.8964,-2.8975,-2.8975,-2.8987,-2.8987,-2.8987,-2.8987,-2.8987,-2.8987,-2.8987,-2.8987,-2.8987,-2.8987,-2.8987,-2.8987,-2.8987,-2.8987,-2.8987,-2.8987,-2.8987,-2.8987,-2.8987,-2.8987,-2.9028,-2.904,-2.9246,-2.957,-2.9829,-3.004,-3.0155,-3.0248,-3.0349,-3.0404,-3.0404,-3.0404,-3.0404,-3.0404,-3.0404,-3.0404,-3.0404,-3.0446,-3.0482,-3.0552,-3.0644,-3.082,-3.0918,-3.0918,-3.0918,-3.0918,-3.0918,-3.0918,-3.0918,-3.0918,-3.0918,-3.0918,-3.082,-2.6873,-2.6858,-2.6873,-2.6448,-2.5785,-2.5615,-2.4815,-2.3646,-2.342,-2.3131,-2.2889,-2.3237,-2.3334,-2.309,-2.272,-2.2457,-2.231,-2.2313,-2.2313,-2.2313,-2.2313,-2.2377,-2.2463,-2.2586,-2.2903,-2.3277,-2.3671,-2.3703,-2.3621,-2.3369,-2.3051,-2.2807,-2.2607,-2.2398,-2.2347,-2.2398,-2.2513,-2.2347,-2.2313,-2.2313,-2.2313,-2.2313,-2.2313,-2.2313,-2.2313,-2.2347,-2.26,-2.2922,-2.3359,-2.4351,-2.5313,-2.6088,-2.6676,-2.7427,-2.7857,-2.8295,-2.836,-2.8527,-2.8749,-2.8851,-2.8917,-2.8964,-2.8975,-2.8987,-2.8987,-2.8987,-2.8987,-2.8987,-2.8987,-2.8987,-2.8987,-2.8987,-2.8987,-2.8987,-2.8987,-2.8987,-2.8987,-2.8987,-2.8987,-2.8987,-2.8987,-2.8987,-2.9005,-2.9017,-2.9206,-2.9533,-2.979,-3.0007,-3.0176,-3.028,-3.0367,-3.0404,-3.0404,-3.0404,-3.0404,-3.0404,-3.0404,-3.0404,-3.0408,-3.0486,-3.0556,-3.0584,-3.0684,-3.084,-3.0918,-3.0918,-3.0918,-3.0918,-3.0918,-3.0918,-3.0918,-3.0918,-3.0918,-3.0918,-3.0918,-2.7663,-2.7663,-2.7663,-2.7242,-2.6521,-2.584,-2.4898,-2.3917,-2.3427,-2.3033,-2.291,-2.3035,-2.3112,-2.2863,-2.2742,-2.255,-2.2377,-2.2349,-2.231,-2.2313,-2.2363,-2.2463,-2.2625,-2.284,-2.3105,-2.3471,-2.3785,-2.3732,-2.361,-2.3346,-2.3033,-2.2725,-2.3139,-2.2902,-2.2448,-2.2665,-2.3004,-2.2784,-2.2564,-2.2564,-2.2448,-2.2415,-2.2313,-2.2313,-2.2313,-2.2685,-2.3054,-2.3291,-2.4103,-2.5176,-2.6196,-2.6763,-2.7089,-2.7372,-2.7741,-2.7922,-2.7978,-2.8219,-2.8433,-2.8596,-2.8688,-2.8975,-2.8987,-2.8987,-2.8987,-2.8987,-2.8987,-2.8987,-2.8987,-2.8987,-2.8987,-2.8987,-2.8987,-2.8987,-2.8987,-2.8987,-2.8987,-2.8987,-2.8987,-2.8987,-2.8987,-2.8987,-2.8987,-2.9033,-2.9134,-2.9425,-2.9607,-2.9832,-3.0068,-3.0215,-3.0367,-3.0398,-3.0398,-3.0404,-3.0404,-3.0404,-3.0404,-3.0404,-3.0411,-3.05,-3.0556,-3.0587,-3.0703,-3.0859,-3.0918,-3.0918,-3.0918,-3.0918,-3.0918,-3.0918,-3.0918,-3.0918,-3.0918,-3.0898,-3.0898]},{"header":{"parameterUnit":"m.s-1","parameterCategory":1,"la1":31.0,"la2":29.5877,"lo1":-88.7671,"lo2":-86.6584,"dy":0.0162,"dx":0.0185,"nx":115,"ny":88,"refTime":"2026-05-09T00:00:00:Z","depth":0,"parameterNumber":3,"parameterNumberName":"V-component_of_WINDS"},"data":[0.0,0.0,0.0,0.0,0.0,0.0,0.0,0.0,0.0,0.0,0.0,0.0,0.0,0.0,0.0,0.0,0.0,0.0,0.0,0.0,0.0,0.0,0.0,0.0,0.0,0.0,0.0,0.0,0.0,0.0,0.0,0.0,0.0,0.0,0.0,0.0,0.0,0.0,0.0,0.0,0.0,0.0,0.0,0.0,0.0,0.0,0.0,0.0,0.0,0.0,0.0,0.0,0.0,0.0,0.0,0.0,0.0,0.0,0.0,0.0,0.0,0.0,0.0,0.0,0.0,0.0,0.0,0.0,0.0,0.0,0.0,0.0,0.0,0.0,0.0,0.0,0.0,0.0,0.0,0.0,0.0,0.0,0.0,0.0,0.0,0.0,0.0,0.0,0.0,0.0,0.0,0.0,0.0,0.0,0.0,0.0,0.0,0.0,0.0,0.0,0.0,0.0,0.0,0.0,0.0,0.0,0.0,0.0,0.0,0.0,0.0,0.0,0.0,0.0,0.0,0.0,0.0,0.0,0.0,0.0,0.0,0.0,0.0,0.0,0.0,0.0,0.0,0.0,0.0,0.0,0.0,0.0,0.0,0.0,0.0,0.0,0.0,0.0,0.0,0.0,0.0,0.0,0.0,0.0,0.0,0.0,0.0,0.0,0.0,0.0,0.0,0.0,0.0,0.0,0.0,0.0,0.0,0.0,0.0,0.0,0.0,0.0,0.0,0.0,0.0,0.0,0.0,0.0,0.0,0.0,0.0,0.0,0.0,0.0,0.0,0.0,0.0,0.0,0.0,0.0,0.0,0.0,0.0,0.0,0.0,0.0,0.0,0.0,0.0,0.0,0.0,0.0,0.0,0.0,0.0,0.0,0.0,0.0,0.0,0.0,0.0,0.0,0.0,0.0,0.0,0.0,0.0,0.0,0.0,0.0,0.0,0.0,0.0,0.0,0.0,0.0,0.0,0.0,0.0,0.0,0.0,0.0,0.0,0.0,0.0,0.0,0.0,0.0,0.0,0.0,0.0,0.0,0.0,0.0,0.0,0.0,0.0,0.0,0.0,0.0,0.0,0.0,0.0,0.0,0.0,0.0,0.0,0.0,0.0,0.0,0.0,0.0,0.0,0.0,0.0,0.0,0.0,0.0,0.0,0.0,0.0,0.0,0.0,0.0,0.0,0.0,0.0,0.0,0.0,0.0,0.0,0.0,0.0,0.0,0.0,0.0,0.0,0.0,0.0,0.0,0.0,0.0,0.0,0.0,0.0,0.0,0.0,0.0,0.0,0.0,0.0,0.0,0.0,0.0,0.0,0.0,0.0,0.0,0.0,0.0,0.0,0.0,0.0,0.0,0.0,0.0,0.0,0.0,0.0,0.0,0.0,0.0,0.0,0.0,0.0,0.0,0.0,0.0,0.0,0.0,0.0,0.0,0.0,0.0,0.0,0.0,0.0,0.0,0.0,0.0,0.0,0.0,0.0,0.0,0.0,0.0,0.0,0.0,0.0,0.0,0.0,0.0,0.0,0.0,0.0,0.0,0.0,0.0,0.0,0.0,0.0,0.0,0.0,0.0,0.0,0.0,0.0,0.0,0.0,0.0,0.0,0.0,0.0,0.0,0.0,0.0,0.0,0.0,0.0,0.0,0.0,0.0,0.0,0.0,0.0,0.0,0.0,0.0,0.0,0.0,0.0,0.0,0.0,0.0,0.0,0.0,0.0,0.0,0.0,0.0,0.0,0.0,0.0,0.0,0.0,0.0,0.0,0.0,0.0,0.0,0.0,0.0,0.0,0.0,0.0,0.0,0.0,0.0,0.0,0.0,0.0,0.0,0.0,0.0,0.0,0.0,0.0,0.0,0.0,0.0,0.0,0.0,0.0,0.0,0.0,0.0,0.0,0.0,0.0,0.0,0.0,0.0,0.0,0.0,0.0,0.0,0.0,0.0,0.0,0.0,0.0,0.0,0.0,0.0,0.0,0.0,0.0,0.0,0.0,0.0,0.0,0.0,0.0,0.0,0.0,0.0,0.0,0.0,0.0,0.0,0.0,0.0,0.0,0.0,0.0,0.0,0.0,0.0,0.0,0.0,0.0,0.0,0.0,0.0,0.0,0.0,0.0,0.0,0.0,0.0,0.0,0.0,0.0,0.0,0.0,0.0,0.0,0.0,0.0,0.0,0.0,0.0,0.0,0.0,0.0,0.0,0.0,0.0,0.0,0.0,0.0,0.0,0.0,0.0,0.0,0.0,0.0,0.0,0.0,0.0,0.0,0.0,0.0,0.0,0.0,0.0,0.0,0.0,0.0,0.0,0.0,0.0,0.0,0.0,0.0,0.0,0.0,0.0,0.0,0.0,0.0,0.0,0.0,0.0,0.0,0.0,0.0,0.0,0.0,0.0,0.0,0.0,0.0,0.0,0.0,0.0,0.0,0.0,0.0,0.0,0.0,0.0,0.0,0.0,0.0,0.0,0.0,0.0,0.0,0.0,0.0,0.0,0.0,0.0,0.0,0.0,0.0,0.0,0.0,0.0,0.0,0.0,0.0,0.0,0.0,0.0,0.0,0.0,0.0,0.0,0.0,0.0,0.0,0.0,0.0,0.0,0.0,0.0,0.0,0.0,0.0,0.0,0.0,0.0,0.0,0.0,0.0,0.0,0.0,0.0,0.0,0.0,0.0,0.0,0.0,0.0,0.0,0.0,0.0,0.0,0.0,0.0,0.0,0.0,0.0,0.0,0.0,0.0,0.0,0.0,0.0,0.0,0.0,0.0,0.0,0.0,0.0,0.0,0.0,0.0,0.0,0.0,0.0,0.0,0.0,0.0,0.0,0.0,0.0,0.0,0.0,0.0,0.0,0.0,0.0,0.0,0.0,0.0,0.0,0.0,0.0,0.0,0.0,0.0,0.0,0.0,0.0,0.0,0.0,0.0,0.0,0.0,0.0,0.0,0.0,0.0,0.0,0.0,0.0,0.0,0.0,0.0,0.0,0.0,0.0,0.0,0.0,0.0,0.0,0.0,0.0,0.0,0.0,0.0,0.0,0.0,0.0,0.0,0.0,0.0,0.0,0.0,0.0,0.0,0.0,0.0,0.0,0.0,0.0,0.0,0.0,0.0,0.0,0.0,0.0,0.0,0.0,0.0,0.0,0.0,0.0,0.0,0.0,0.0,0.0,0.0,0.0,0.0,0.0,0.0,0.0,0.0,0.0,0.0,0.0,0.0,0.0,0.0,0.0,0.0,0.0,0.0,0.0,0.0,0.0,0.0,0.0,0.0,0.0,0.0,0.0,0.0,0.0,0.0,0.0,0.0,0.0,0.0,0.0,0.0,0.0,0.0,0.0,0.0,0.0,0.0,0.0,0.0,0.0,0.0,0.0,0.0,0.0,0.0,0.0,0.0,0.0,0.0,0.0,0.0,0.0,0.0,0.0,0.0,0.0,0.0,0.0,0.0,0.0,0.0,0.0,0.0,0.0,0.0,0.0,0.0,0.0,0.0,0.0,0.0,0.0,0.0,0.0,0.0,0.0,0.0,0.0,0.0,0.0,0.0,0.0,0.0,0.0,0.0,0.0,0.0,0.0,0.0,0.0,0.0,0.0,0.0,0.0,0.0,0.0,0.0,0.0,0.0,0.0,0.0,0.0,0.0,0.0,0.0,0.0,0.0,0.0,0.0,0.0,0.0,0.0,0.0,0.0,0.0,0.0,0.0,0.0,0.0,0.0,0.0,0.0,0.0,0.0,0.0,0.0,0.0,0.0,0.0,0.0,0.0,0.0,0.0,0.0,0.0,0.0,0.0,0.0,0.0,0.0,0.0,0.0,0.0,0.0,0.0,0.0,0.0,0.0,0.0,0.0,0.0,0.0,0.0,0.0,0.0,0.0,0.0,0.0,0.0,0.0,0.0,0.0,0.0,0.0,0.0,0.0,0.0,0.0,0.0,0.0,0.0,0.0,0.0,0.0,0.0,0.0,0.0,0.0,0.0,0.0,0.0,0.0,0.0,0.0,0.0,0.0,0.0,0.0,0.0,0.0,0.0,0.0,0.0,0.0,0.0,0.0,0.0,0.0,0.0,0.0,0.0,0.0,0.0,0.0,0.0,0.0,0.0,0.0,0.0,0.0,0.0,0.0,0.0,0.0,0.0,0.0,0.0,0.0,0.0,0.0,0.0,0.0,0.0,0.0,0.0,0.0,0.0,0.0,0.0,0.0,0.0,0.0,0.0,0.0,0.0,0.0,0.0,0.0,0.0,0.0,0.0,0.0,0.0,0.0,0.0,0.0,0.0,-0.5726,0.0,0.0,0.0,0.0,0.0,0.0,0.0,0.0,0.0,0.0,0.0,0.0,0.0,0.0,0.0,0.0,0.0,0.0,0.0,0.0,0.0,0.0,0.0,0.0,0.0,0.0,0.0,0.0,0.0,0.0,0.0,0.0,0.0,0.0,0.0,0.0,0.0,0.0,0.0,0.0,0.0,0.0,0.0,0.0,0.0,0.0,0.0,0.0,0.0,0.0,0.0,0.0,0.0,0.0,0.0,0.0,0.0,0.0,0.0,0.0,0.0,0.0,0.0,0.0,0.0,0.0,0.0,0.0,0.0,0.0,0.0,0.0,0.0,0.0,0.0,0.0,0.0,0.0,0.0,0.0,0.0,0.0,0.0,0.0,0.0,0.0,0.0,0.0,0.0,0.0,0.0,0.0,0.0,0.0,0.0,0.0,0.0,0.0,0.0,0.0,0.0,0.0,0.0,0.0,0.0,0.0,0.0,0.0,0.0,0.0,-0.4813,-0.4813,-0.5196,-0.553,-0.5797,0.0,0.0,0.0,0.0,0.0,0.0,0.0,0.0,0.0,0.0,0.0,0.0,0.0,0.0,0.0,0.0,0.0,0.0,0.0,0.0,0.0,0.0,0.0,0.0,0.0,0.0,0.0,0.0,0.0,0.0,0.0,0.0,0.0,0.0,0.0,0.0,0.0,0.0,0.0,0.0,0.0,0.0,0.0,0.0,0.0,0.0,0.0,0.0,0.0,0.0,0.0,0.0,0.0,0.0,0.0,0.0,0.0,0.0,0.0,0.0,0.0,0.0,0.0,0.0,0.0,0.0,0.0,0.0,0.0,0.0,0.0,0.0,0.0,0.0,0.0,0.0,0.0,0.0,0.0,0.0,0.0,0.0,0.0,0.0,0.0,0.0,0.0,0.0,0.0,0.0,0.0,0.0,0.0,0.0,0.0,0.0,0.0,0.0,0.0,0.0,0.0,0.0,0.0,0.0,0.0,0.0,0.0,0.0,0.0,0.0,0.0,0.0,-0.557,-0.5882,-0.5912,0.0,0.0,0.0,0.0,0.0,0.0,0.0,0.0,0.0,0.0,0.0,0.0,0.0,0.0,0.0,0.0,0.0,0.0,0.0,0.0,0.0,0.0,0.0,0.0,0.0,0.0,0.0,0.0,0.0,0.0,0.0,0.0,0.0,0.0,0.0,0.0,0.0,0.0,0.0,0.0,0.0,0.0,0.0,0.0,0.0,0.0,0.0,0.0,0.0,0.0,0.0,0.0,0.0,0.0,0.0,0.0,0.0,0.0,0.0,0.0,0.0,0.0,0.0,0.0,0.0,0.0,0.0,0.0,0.0,0.0,0.0,0.0,0.0,0.0,0.0,0.0,0.0,0.0,0.0,0.0,0.0,0.0,0.0,0.0,0.0,0.0,0.0,0.0,0.0,0.0,0.0,0.0,0.0,0.0,0.0,0.0,0.0,0.0,0.0,0.0,0.0,0.0,0.0,0.0,0.0,0.0,0.0,0.0,0.0,0.0,-0.5179,-0.5351,-0.5417,0.0,-0.6179,0.0,0.0,0.0,0.0,0.0,0.0,0.0,0.0,0.0,0.0,0.0,0.0,0.0,0.0,0.0,0.0,0.0,0.0,0.0,0.0,0.0,0.0,0.0,0.0,0.0,0.0,0.0,0.0,0.0,0.0,0.0,0.0,0.0,0.0,0.0,0.0,0.0,0.0,0.0,0.0,0.0,0.0,0.0,0.0,0.0,0.0,0.0,0.0,0.0,0.0,0.0,0.0,0.0,0.0,0.0,0.0,0.0,0.0,0.0,0.0,0.0,0.0,0.0,0.0,0.0,0.0,0.0,0.0,0.0,0.0,0.0,0.0,0.0,0.0,0.0,0.0,0.0,0.0,0.0,0.0,0.0,0.0,0.0,0.0,0.0,0.0,0.0,0.0,0.0,0.0,0.0,0.0,0.0,0.0,0.0,0.0,0.0,0.0,0.0,0.0,0.0,0.0,0.0,0.0,0.0,0.0,0.0,0.0,0.0,0.0,-0.4803,-0.5494,-0.5741,-0.5939,0.0,0.0,0.0,0.0,0.0,0.0,0.0,0.0,0.0,0.0,0.0,0.0,0.0,0.0,0.0,0.0,0.0,0.0,0.0,0.0,0.0,0.0,0.0,0.0,0.0,0.0,0.0,0.0,0.0,0.0,0.0,0.0,0.0,0.0,0.0,0.0,0.0,0.0,0.0,0.0,0.0,0.0,0.0,0.0,0.0,0.0,0.0,0.0,0.0,0.0,0.0,0.0,0.0,0.0,0.0,0.0,0.0,0.0,0.0,0.0,0.0,0.0,0.0,0.0,0.0,0.0,0.0,0.0,0.0,0.0,0.0,0.0,0.0,0.0,0.0,0.0,0.0,0.0,0.0,0.0,0.0,0.0,0.0,0.0,0.0,0.0,0.0,0.0,0.0,0.0,0.0,0.0,0.0,0.0,0.0,0.0,0.0,0.0,0.0,0.0,0.0,0.0,0.0,0.0,0.0,0.0,0.0,0.0,0.0,0.0,-0.3632,-0.4549,-0.5569,-0.6302,-0.6521,-0.6192,0.0,0.0,0.0,0.0,0.0,0.0,0.0,0.0,0.0,0.0,0.0,0.0,0.0,0.0,0.0,0.0,0.0,0.0,0.0,0.0,0.0,0.0,0.0,0.0,0.0,0.0,0.0,0.0,0.0,0.0,0.0,0.0,0.0,0.0,0.0,0.0,0.0,0.0,0.0,0.0,0.0,0.0,0.0,0.0,0.0,0.0,0.0,0.0,0.0,0.0,0.0,0.0,0.0,0.0,0.0,0.0,0.0,0.0,0.0,0.0,0.0,0.0,0.0,0.0,0.0,0.0,0.0,0.0,0.0,0.0,0.0,0.0,0.0,0.0,0.0,0.0,0.0,0.0,0.0,0.0,0.0,0.0,0.0,0.0,0.0,0.0,0.0,0.0,0.0,0.0,0.0,0.0,0.0,0.0,0.0,0.0,0.0,0.0,0.0,0.0,0.0,0.0,0.0,0.0,0.0,0.0,0.0,0.0,-0.3052,-0.3806,-0.4636,-0.5589,-0.7078,-0.7504,0.0,0.0,0.0,0.0,0.0,0.0,0.0,0.0,0.0,0.0,0.0,0.0,0.0,0.0,0.0,0.0,0.0,0.0,0.0,0.0,0.0,0.0,0.0,0.0,0.0,0.0,0.0,0.0,0.0,0.0,0.0,0.0,0.0,0.0,0.0,0.0,0.0,0.0,0.0,0.0,0.0,0.0,0.0,0.0,0.0,0.0,0.0,0.0,0.0,0.0,0.0,0.0,0.0,0.0,0.0,0.0,0.0,0.0,0.0,0.0,0.0,0.0,0.0,0.0,0.0,0.0,0.0,0.0,0.0,0.0,0.0,0.0,0.0,0.0,0.0,0.0,0.0,0.0,0.0,0.0,0.0,0.0,0.0,0.0,0.0,0.0,0.0,0.0,0.0,0.0,0.0,0.0,0.0,0.0,0.0,0.0,0.0,0.0,0.0,0.0,0.0,0.0,0.0,0.0,0.0,0.0,0.0,0.0,0.0,-0.196,-0.3405,-0.4679,-0.5708,-0.6907,-0.7295,0.0,0.0,0.0,0.0,0.0,0.0,0.0,0.0,0.0,0.0,0.0,0.0,0.0,0.0,0.0,0.0,0.0,0.0,0.0,0.0,0.0,0.0,0.0,0.0,0.0,0.0,0.0,0.0,0.0,0.0,0.0,0.0,0.0,0.0,0.0,0.0,0.0,0.0,0.0,0.0,0.0,0.0,0.0,0.0,0.0,0.0,0.0,0.0,0.0,0.0,0.0,0.0,0.0,0.0,0.0,0.0,0.0,0.0,0.0,0.0,0.0,0.0,0.0,0.0,0.0,0.0,0.0,0.0,0.0,0.0,0.0,0.0,0.0,0.0,0.0,0.0,0.0,0.0,0.0,0.0,0.0,0.0,0.0,0.0,0.0,0.0,0.0,0.0,0.0,0.0,0.0,0.0,0.0,0.0,0.0,0.0,0.0,0.0,0.0,0.0,0.0,0.0,0.0,0.0,0.0,0.0,0.0,0.0,0.0,-0.1889,0.0,-0.4741,-0.5647,-0.6609,-0.7014,0.0,0.0,0.0,0.0,0.0,0.0,0.0,0.0,0.0,0.0,0.0,0.0,0.0,0.0,0.0,0.0,0.0,0.0,0.0,0.0,0.0,0.0,0.0,0.0,0.0,0.0,0.0,0.0,0.0,0.0,0.0,0.0,0.0,0.0,0.0,0.0,0.0,0.0,0.0,0.0,0.0,0.0,0.0,0.0,0.0,0.0,0.0,0.0,0.0,0.0,0.0,0.0,0.0,0.0,0.0,0.0,0.0,0.0,0.0,0.0,0.0,0.0,0.0,0.0,0.0,0.0,0.0,0.0,0.0,0.0,0.0,0.0,0.0,0.0,0.0,0.0,0.0,0.0,0.0,0.0,0.0,0.0,0.0,0.0,0.0,0.0,0.0,0.0,0.0,0.0,0.0,0.0,0.0,0.0,0.0,0.0,0.0,0.0,0.0,0.0,0.0,0.0,0.0,0.0,0.0,0.0,0.0,0.0,-0.1001,-0.3004,-0.3967,-0.4756,-0.5396,-0.6276,-0.6684,0.0,0.0,0.0,0.0,0.0,0.0,0.0,0.0,0.0,0.0,0.0,0.0,0.0,0.0,0.0,0.0,0.0,0.0,0.0,0.0,0.0,0.0,0.0,0.0,0.0,0.0,0.0,0.0,0.0,0.0,0.0,0.0,0.0,0.0,0.0,0.0,0.0,0.0,0.0,0.0,0.0,0.0,0.0,0.0,0.0,0.0,0.0,0.0,0.0,0.0,0.0,0.0,0.0,0.0,0.0,0.0,0.0,0.0,0.0,0.0,0.0,0.0,0.0,0.0,0.0,0.0,0.0,0.0,0.0,0.0,0.0,0.0,0.0,0.0,0.0,0.0,0.0,0.0,0.0,0.0,0.0,0.0,0.0,0.0,0.0,0.0,0.0,0.0,0.0,0.0,0.0,0.0,0.0,0.0,0.0,0.0,0.0,0.0,0.0,0.0,0.0,0.0,0.0,0.0,0.0,0.0,0.0,0.0,0.0,-0.2935,-0.3262,-0.4208,-0.5922,-0.6236,-0.6672,0.0,0.0,0.0,0.0,0.0,0.0,0.0,0.0,0.0,0.0,0.0,0.0,0.0,0.0,0.0,0.0,0.0,0.0,0.0,0.0,0.0,0.0,0.0,0.0,0.0,0.0,0.0,0.0,0.0,0.0,0.0,0.0,0.0,0.0,0.0,0.0,0.0,0.0,0.0,0.0,0.0,0.0,0.0,0.0,0.0,0.0,0.0,0.0,0.0,0.0,0.0,0.0,0.0,0.0,0.0,0.0,0.0,0.0,0.0,0.0,0.0,0.0,0.0,0.0,0.0,0.0,0.0,0.0,0.0,0.0,0.0,0.0,0.0,0.0,0.0,0.0,0.0,0.0,0.0,0.0,0.0,0.0,0.0,0.0,0.0,0.0,0.0,0.0,0.0,0.0,0.0,0.0,0.0,0.0,0.0,0.0,0.0,0.0,0.0,0.0,0.0,0.0,0.0,0.0,0.0,0.0,0.0,0.0,0.0,-0.3063,-0.3438,-0.4455,-0.6173,-0.6108,-0.6502,-0.7418,0.0,0.0,0.0,0.0,0.0,0.0,0.0,0.0,0.0,0.0,0.0,0.0,0.0,0.0,0.0,0.0,0.0,0.0,0.0,0.0,0.0,0.0,0.0,0.0,0.0,0.0,0.0,0.0,0.0,0.0,0.0,0.0,0.0,0.0,0.0,0.0,0.0,0.0,0.0,0.0,0.0,0.0,0.0,0.0,0.0,0.0,0.0,0.0,0.0,0.0,0.0,0.0,0.0,0.0,0.0,0.0,0.0,0.0,0.0,0.0,0.0,0.0,0.0,0.0,0.0,0.0,0.0,0.0,0.0,0.0,0.0,0.0,0.0,0.0,0.0,0.0,0.0,0.0,0.0,0.0,0.0,0.0,0.0,0.0,0.0,0.0,0.0,0.0,0.0,0.0,0.0,0.0,0.0,0.0,0.0,0.0,0.0,0.0,0.0,0.0,0.0,0.0,0.0,0.0,0.0,0.0,0.0,0.0,-0.3409,-0.4376,-0.5252,-0.6006,-0.5895,-0.6249,0.0,0.0,0.0,0.0,0.0,0.0,0.0,0.0,0.0,0.0,0.0,0.0,0.0,0.0,0.0,0.0,0.0,0.0,0.0,0.0,0.0,0.0,0.0,0.0,0.0,0.0,0.0,0.0,0.0,0.0,0.0,0.0,0.0,0.0,0.0,0.0,0.0,0.0,0.0,0.0,0.0,0.0,0.0,0.0,0.0,0.0,0.0,0.0,0.0,0.0,0.0,0.0,0.0,0.0,0.0,0.0,0.0,0.0,0.0,0.0,0.0,0.0,0.0,0.0,0.0,0.0,0.0,0.0,0.0,0.0,0.0,0.0,0.0,0.0,0.0,0.0,0.0,0.0,0.0,0.0,0.0,0.0,0.0,0.0,0.0,0.0,0.0,0.0,0.0,0.0,0.0,0.0,0.0,0.0,0.0,0.0,0.0,0.0,0.0,0.0,0.0,0.0,0.0,0.0,0.0,0.0,0.0,0.0,0.0,-0.3531,-0.4541,-0.5538,-0.6441,-0.6057,-0.6463,0.0,0.0,0.0,0.0,0.0,0.0,0.0,0.0,0.0,0.0,0.0,0.0,0.0,0.0,0.0,0.0,0.0,0.0,0.0,0.0,0.0,0.0,0.0,0.0,0.0,0.0,0.0,0.0,0.0,0.0,0.0,0.0,0.0,0.0,0.0,0.0,0.0,0.0,0.0,0.0,0.0,0.0,0.0,0.0,0.0,0.0,0.0,0.0,0.0,0.0,0.0,0.0,0.0,0.0,0.0,0.0,0.0,0.0,0.0,0.0,0.0,0.0,0.0,0.0,0.0,0.0,0.0,0.0,0.0,0.0,0.0,0.0,0.0,0.0,0.0,0.0,0.0,0.0,0.0,0.0,0.0,0.0,0.0,0.0,0.0,0.0,0.0,0.0,0.0,0.0,0.0,0.0,0.0,0.0,0.0,0.0,0.0,0.0,0.0,0.0,0.0,0.0,0.0,0.0,0.0,0.0,0.0,0.0,-0.3344,-0.4125,-0.4724,-0.5521,-0.6603,-0.6268,-0.6762,0.0,0.0,0.0,0.0,0.0,0.0,0.0,0.0,0.0,0.0,0.0,0.0,0.0,0.0,0.0,0.0,0.0,0.0,0.0,0.0,0.0,0.0,0.0,0.0,0.0,0.0,0.0,0.0,0.0,0.0,0.0,0.0,0.0,0.0,0.0,0.0,0.0,0.0,0.0,0.0,0.0,0.0,0.0,0.0,0.0,0.0,0.0,0.0,0.0,0.0,0.0,0.0,0.0,0.0,0.0,0.0,0.0,0.0,0.0,0.0,0.0,0.0,0.0,0.0,0.0,0.0,0.0,0.0,0.0,0.0,0.0,0.0,0.0,0.0,0.0,0.0,0.0,0.0,0.0,0.0,0.0,0.0,0.0,0.0,0.0,0.0,0.0,0.0,0.0,0.0,0.0,0.0,0.0,0.0,0.0,0.0,0.0,0.0,0.0,0.0,0.0,0.0,0.0,0.0,0.0,0.0,0.0,0.0,-0.3679,-0.4851,-0.4789,-0.5321,-0.6451,-0.6508,-0.7011,0.0,0.0,0.0,0.0,0.0,0.0,0.0,0.0,0.0,0.0,0.0,0.0,0.0,0.0,0.0,0.0,0.0,0.0,0.0,0.0,0.0,0.0,0.0,0.0,0.0,0.0,0.0,0.0,0.0,0.0,0.0,0.0,0.0,0.0,0.0,0.0,0.0,0.0,0.0,0.0,0.0,0.0,0.0,0.0,0.0,0.0,0.0,0.0,0.0,0.0,0.0,0.0,0.0,0.0,0.0,0.0,0.0,0.0,0.0,0.0,0.0,0.0,0.0,0.0,0.0,0.0,0.0,0.0,0.0,0.0,0.0,0.0,0.0,0.0,0.0,0.0,0.0,0.0,0.0,0.0,0.0,0.0,0.0,0.0,0.0,0.0,0.0,0.0,0.0,0.0,0.0,0.0,0.0,0.0,0.0,0.0,0.0,0.0,0.0,0.0,0.0,0.0,0.0,0.0,0.0,0.0,0.0,0.0,-0.3581,-0.4856,-0.4078,-0.4614,-0.6606,-0.6467,-0.6969,0.0,0.0,0.0,0.0,0.0,0.0,0.0,0.0,0.0,0.0,0.0,0.0,0.0,0.0,0.0,0.0,0.0,0.0,0.0,0.0,0.0,0.0,0.0,0.0,0.0,0.0,0.0,0.0,0.0,0.0,0.0,0.0,0.0,0.0,0.0,0.0,0.0,0.0,0.0,0.0,0.0,0.0,0.0,0.0,0.0,0.0,0.0,0.0,-0.5766,0.0,0.0,0.0,0.0,0.0,0.0,0.0,0.0,0.0,0.0,0.0,0.0,0.0,0.0,0.0,0.0,0.0,0.0,0.0,0.0,0.0,0.0,0.0,0.0,0.0,0.0,0.0,0.0,0.0,0.0,0.0,0.0,0.0,0.0,0.0,0.0,0.0,0.0,0.0,0.0,0.0,0.0,0.0,0.0,0.0,0.0,0.0,0.0,0.0,0.0,0.0,0.0,0.0,0.0,0.0,0.0,0.0,0.0,0.0,-0.3814,-0.5458,-0.4029,-0.4257,-0.6404,-0.6381,-0.701,0.0,0.0,0.0,0.0,0.0,0.0,0.0,0.0,0.0,0.0,0.0,0.0,0.0,0.0,0.0,0.0,0.0,0.0,0.0,0.0,0.0,0.0,0.0,0.0,0.0,0.0,0.0,0.0,0.0,0.0,0.0,0.0,0.0,0.0,0.0,0.0,0.0,0.0,0.0,0.0,0.0,0.0,0.0,0.0,0.0,0.0,0.0,0.0,0.0,0.0,0.0,0.0,0.0,0.0,0.0,0.0,0.0,0.0,0.0,0.0,0.0,0.0,0.0,0.0,0.0,0.0,0.0,0.0,0.0,0.0,0.0,0.0,0.0,0.0,0.0,0.0,0.0,0.0,0.0,0.0,0.0,0.0,0.0,0.0,0.0,0.0,0.0,0.0,0.0,0.0,0.0,0.0,0.0,0.0,0.0,0.0,0.0,0.0,0.0,0.0,0.0,0.0,0.0,0.0,0.0,0.0,0.0,-0.418,-0.4278,-0.6138,-0.4375,-0.4295,-0.6219,-0.63,-0.7003,-0.8507,0.0,0.0,0.0,0.0,0.0,0.0,0.0,0.0,0.0,0.0,0.0,0.0,0.0,0.0,0.0,0.0,0.0,0.0,0.0,0.0,0.0,0.0,0.0,0.0,0.0,0.0,0.0,0.0,0.0,0.0,0.0,0.0,0.0,0.0,0.0,0.0,0.0,0.0,-0.0189,-0.0791,0.0,0.0,0.0,0.0,0.0,0.0,0.0,0.0,-0.5865,0.0,0.0,0.0,0.0,0.0,0.0,0.0,0.0,0.0,0.0,0.0,0.0,0.0,0.0,0.0,0.0,0.0,0.0,0.0,0.0,0.0,0.0,0.0,0.0,0.0,0.0,0.0,0.0,0.0,0.0,0.0,0.0,0.0,0.0,0.0,0.0,0.0,0.0,0.0,0.0,0.0,0.0,0.0,0.0,0.0,0.0,0.0,0.0,0.0,0.0,0.0,0.0,0.0,0.0,0.0,0.0,-0.5952,-0.4865,-0.4936,-0.6254,-0.5079,-0.504,-0.6222,-0.63,-0.6987,-0.834,0.0,0.0,0.0,0.0,0.0,0.0,0.0,0.0,0.0,0.0,0.0,0.0,0.0,0.0,0.0,0.0,0.0,0.0,0.0,0.0,0.0,0.0,0.0,0.0,0.0,0.0,0.0,0.0,0.0,0.0,0.0,0.0,0.0,0.0,0.0,0.0,0.0,0.0,0.0,-0.0144,-0.0587,0.0,0.0,0.0,0.0,0.0,0.0,0.0,0.0,-0.5816,0.0,0.0,0.0,0.0,0.0,0.0,0.0,0.0,0.0,0.0,0.0,0.0,0.0,0.0,0.0,0.0,0.0,0.0,0.0,0.0,0.0,0.0,0.0,0.0,0.0,0.0,0.0,0.0,0.0,0.0,0.0,0.0,0.0,0.0,0.0,0.0,0.0,0.0,0.0,0.0,0.0,0.0,0.0,0.0,0.0,0.0,0.0,0.0,0.0,0.0,0.0,0.0,0.0,0.0,0.0,-0.5838,-0.5037,-0.5172,-0.6215,-0.5237,-0.5164,-0.6104,-0.6139,-0.6836,0.0,0.0,0.0,0.0,0.0,0.0,0.0,0.0,0.0,0.0,0.0,0.0,0.0,0.0,0.0,0.0,0.0,0.0,0.0,0.0,0.0,0.0,0.0,0.0,0.0,0.0,0.0,0.0,0.0,0.0,0.0,0.0,0.0,0.0,0.0,0.0,0.0,0.0,0.0,0.0,0.0,-0.0149,-0.0566,0.0,0.0,0.0,0.0,0.0,0.0,-0.4706,-0.5101,0.0,0.0,0.0,0.0,0.0,0.0,0.0,0.0,0.0,0.0,0.0,0.0,0.0,0.0,0.0,0.0,0.0,0.0,0.0,0.0,0.0,0.0,0.0,0.0,0.0,0.0,0.0,0.0,0.0,0.0,0.0,0.0,0.0,0.0,0.0,0.0,0.0,0.0,0.0,0.0,0.0,0.0,0.0,0.0,0.0,0.0,0.0,0.0,0.0,0.0,0.0,0.0,0.0,0.0,0.0,-0.5774,-0.5272,-0.539,-0.6175,-0.5393,-0.529,-0.5952,-0.5946,-0.6573,0.0,0.0,0.0,0.0,0.0,0.0,0.0,0.0,0.0,0.0,0.0,0.0,0.0,0.0,0.0,0.0,0.0,0.0,0.0,0.0,0.0,0.0,0.0,0.0,0.0,0.0,0.0,0.0,0.0,0.0,0.0,0.0,0.0,0.0,0.0,0.0,0.0,0.0,0.0,0.0,0.0,0.0,0.0,-0.0609,0.0,0.0,0.0,0.0,-0.4056,-0.4239,0.0,0.0,0.0,0.0,0.0,0.0,0.0,0.0,0.0,0.0,0.0,0.0,0.0,0.0,0.0,0.0,0.0,0.0,0.0,0.0,0.0,0.0,0.0,0.0,0.0,0.0,0.0,0.0,0.0,0.0,0.0,0.0,0.0,0.0,0.0,0.0,0.0,0.0,0.0,0.0,0.0,0.0,0.0,0.0,0.0,0.0,0.0,0.0,0.0,0.0,0.0,0.0,0.0,0.0,0.0,0.0,-0.58,-0.5855,-0.5942,-0.6016,-0.5904,-0.5831,-0.5833,-0.5827,-0.6207,0.0,0.0,0.0,0.0,0.0,0.0,0.0,0.0,0.0,0.0,0.0,0.0,0.0,0.0,0.0,0.0,0.0,0.0,0.0,0.0,0.0,0.0,0.0,0.0,0.0,0.0,0.0,0.0,0.0,0.0,0.0,0.0,0.0,0.0,0.0,0.0,0.0,0.0,0.0,0.0,0.0,0.0,0.0,-0.0078,0.0,0.0,0.0,-0.2122,-0.3102,-0.3942,0.0,0.0,0.0,0.0,0.0,0.0,0.0,0.0,0.0,0.0,0.0,0.0,0.0,0.0,0.0,0.0,0.0,0.0,0.0,0.0,0.0,0.0,0.0,0.0,0.0,0.0,0.0,0.0,0.0,0.0,0.0,0.0,0.0,0.0,0.0,0.0,0.0,0.0,0.0,0.0,0.0,0.0,0.0,0.0,0.0,0.0,0.0,0.0,0.0,0.0,0.0,0.0,0.0,0.0,0.0,-0.5742,-0.5803,-0.5952,-0.5993,-0.5993,-0.5909,-0.583,-0.5688,-0.5681,-0.5978,0.0,0.0,0.0,0.0,0.0,0.0,0.0,0.0,0.0,0.0,0.0,0.0,0.0,0.0,0.0,0.0,0.0,0.0,0.0,0.0,0.0,0.0,0.0,0.0,0.0,0.0,0.0,0.0,0.0,0.0,0.0,0.0,0.0,0.0,0.0,0.0,0.0,0.0,0.0,0.0,0.0,0.0,0.0,0.0,0.0,0.0,0.0,-0.1039,-0.208,0.0,0.0,0.0,0.0,0.0,0.0,0.0,0.0,0.0,0.0,0.0,0.0,0.0,0.0,0.0,0.0,0.0,0.0,0.0,0.0,0.0,0.0,0.0,0.0,0.0,0.0,0.0,0.0,0.0,0.0,0.0,0.0,0.0,0.0,0.0,0.0,0.0,0.0,0.0,0.0,0.0,0.0,0.0,0.0,0.0,0.0,0.0,0.0,0.0,0.0,0.0,0.0,0.0,0.0,0.0,0.0,0.0,-0.5694,-0.5915,-0.5959,-0.5882,-0.5806,-0.5677,-0.5573,-0.5566,0.0,0.0,0.0,0.0,0.0,0.0,0.0,0.0,0.0,0.0,0.0,0.0,0.0,0.0,0.0,0.0,0.0,0.0,0.0,0.0,0.0,0.0,0.0,0.0,0.0,0.0,0.0,-0.4623,0.0,0.0,0.0,0.0,0.0,0.0,0.0,0.0,0.0,0.0,0.0,0.0,0.0,0.0,0.0,0.0,0.0,0.0,0.0,0.0,-0.039,-0.1448,-0.2171,-0.2978,0.0,0.0,0.0,0.0,0.0,0.0,0.0,0.0,0.0,0.0,0.0,0.0,0.0,0.0,0.0,0.0,0.0,0.0,0.0,0.0,0.0,0.0,0.0,0.0,0.0,0.0,0.0,0.0,0.0,0.0,0.0,0.0,0.0,0.0,0.0,0.0,0.0,0.0,0.0,0.0,0.0,0.0,0.0,0.0,0.0,0.0,0.0,0.0,0.0,0.0,0.0,0.0,0.0,0.0,-0.5535,-0.5446,-0.5813,-0.5858,-0.5633,-0.5644,-0.5532,-0.5416,-0.5409,-0.5363,0.0,0.0,0.0,0.0,0.0,0.0,0.0,0.0,0.0,0.0,0.0,0.0,0.0,0.0,0.0,0.0,0.0,0.0,0.0,0.0,0.0,0.0,0.0,0.0,0.0,0.0,0.0,0.0,0.0,0.0,0.0,0.0,0.0,0.0,0.0,0.0,0.0,0.0,0.0,0.0,0.0,0.0,0.0,0.0,0.0,0.0,0.0,-0.0371,-0.142,-0.1635,-0.2291,-0.3939,0.0,0.0,0.0,0.0,0.0,0.0,0.0,0.0,0.0,0.0,0.0,0.0,0.0,0.0,0.0,0.0,0.0,0.0,0.0,0.0,0.0,0.0,0.0,0.0,0.0,0.0,0.0,0.0,0.0,0.0,0.0,0.0,0.0,0.0,0.0,0.0,0.0,0.0,0.0,0.0,0.0,0.0,0.0,0.0,0.0,0.0,0.0,0.0,0.0,0.0,0.0,0.0,0.0,-0.5453,-0.5399,-0.5655,-0.5705,-0.5593,-0.5532,-0.5457,-0.5395,-0.5395,-0.5279,0.0,0.0,0.0,0.0,0.0,0.0,0.0,0.0,0.0,0.0,0.0,0.0,0.0,0.0,0.0,0.0,0.0,0.0,0.0,0.0,0.0,0.0,0.0,0.0,0.0,0.0,0.0,0.0,-0.5182,-0.4843,-0.3753,0.0,0.0,0.0,0.0,0.0,0.0,0.0,0.0,0.0,0.0,0.0,0.0,0.0,0.0,0.0,0.0,-0.016,-0.0551,-0.1185,-0.1801,-0.2509,-0.3604,0.0,0.0,0.0,0.0,0.0,0.0,0.0,0.0,0.0,0.0,0.0,0.0,0.0,0.0,0.0,0.0,0.0,0.0,0.0,0.0,0.0,0.0,0.0,0.0,0.0,0.0,0.0,0.0,0.0,0.0,0.0,0.0,0.0,0.0,0.0,0.0,0.0,0.0,0.0,0.0,0.0,0.0,0.0,0.0,0.0,0.0,0.0,0.0,0.0,0.0,0.0,0.0,-0.5371,-0.5294,-0.5488,-0.5569,-0.5525,-0.5453,-0.5395,-0.5395,-0.5395,-0.524,0.0,0.0,0.0,0.0,0.0,0.0,0.0,0.0,0.0,0.0,0.0,0.0,0.0,0.0,0.0,0.0,0.0,0.0,0.0,0.0,0.0,0.0,0.0,0.0,0.0,0.0,0.0,0.0,-0.4498,-0.3982,-0.2442,0.0,0.0,0.0,0.0,0.0,0.0,0.0,0.0,0.0,0.0,0.0,0.0,0.0,0.0,0.0,0.0,0.0,0.0,-0.0628,-0.1202,-0.1464,0.0,0.0,0.0,0.0,0.0,0.0,0.0,0.0,0.0,0.0,0.0,0.0,0.0,0.0,0.0,0.0,0.0,0.0,0.0,0.0,0.0,0.0,0.0,0.0,0.0,0.0,0.0,0.0,0.0,0.0,0.0,0.0,0.0,0.0,0.0,0.0,0.0,0.0,0.0,0.0,0.0,0.0,0.0,0.0,0.0,0.0,0.0,0.0,0.0,0.0,0.0,0.0,0.0,-0.5317,-0.5113,-0.5433,-0.5515,-0.5409,-0.5395,-0.5395,-0.5395,-0.5395,-0.5284,-0.509,0.0,0.0,0.0,0.0,0.0,0.0,0.0,0.0,0.0,0.0,0.0,0.0,0.0,0.0,0.0,0.0,0.0,0.0,0.0,0.0,0.0,0.0,0.0,0.0,0.0,0.0,-0.2817,-0.2743,-0.241,0.0,0.0,0.0,0.0,0.0,0.0,0.0,0.0,0.0,0.0,0.0,0.0,0.0,0.0,0.0,0.0,0.0,0.0,0.0,0.0,-0.0309,0.0,0.0,0.0,0.0,0.0,0.0,0.0,0.0,0.0,0.0,0.0,0.0,0.0,0.0,0.0,0.0,0.0,0.0,0.0,0.0,0.0,0.0,0.0,0.0,0.0,0.0,0.0,0.0,0.0,0.0,0.0,0.0,0.0,0.0,0.0,0.0,0.0,0.0,0.0,0.0,-0.0456,-0.0417,0.0,0.0,0.0,0.0,0.0,0.0,0.0,0.0,0.0,0.0,0.0,0.0,-0.5056,-0.5106,-0.5335,-0.5446,-0.5395,-0.5395,-0.5395,-0.5395,-0.5395,-0.5279,-0.4999,0.0,0.0,0.0,0.0,0.0,0.0,0.0,0.0,0.0,0.0,0.0,0.0,0.0,0.0,0.0,0.0,0.0,0.0,0.0,0.0,0.0,0.0,0.0,0.0,0.0,-0.2191,0.0,0.0,0.0,0.0,0.0,0.0,0.0,0.0,0.0,0.0,0.0,0.0,0.0,0.0,0.0,0.0,0.0,0.0,0.0,0.0,0.0,0.0,0.0,0.0,0.0,0.0,0.0,0.0,0.0,0.0,0.0,0.0,-0.6044,-0.584,-0.6793,-0.7742,-0.8231,0.0,0.0,0.0,0.0,0.0,0.0,0.0,0.0,0.0,0.0,0.0,0.0,0.0,0.0,0.0303,0.0,0.0,0.0,0.0,0.0,0.0,0.0,0.0,0.0,0.0,0.0,0.0,0.0,0.0,-0.0274,0.0,-0.0839,-0.1593,0.0,0.0,0.0,0.0,0.0,0.0,0.0,0.0,-0.5121,-0.5209,-0.5257,-0.5281,-0.5277,-0.5003,-0.4977,-0.5206,-0.5257,-0.5189,-0.4999,-0.482,-0.473,0.0,0.0,0.0,0.0,0.0,0.0,0.0,0.0,0.0,0.0,0.0,0.0,0.0,0.0,0.0,0.0,0.0,0.0,0.0,0.0,0.0,0.0,0.0,-0.1247,0.0,0.0,0.0,0.0,0.0,0.0,0.0,0.0,0.0,0.0,0.0,0.0,0.0,0.0,0.0,0.0,0.0,0.0,0.0,0.0,0.0,0.0,0.0,0.0,0.0,-0.0775,-0.1663,-0.2376,-0.3667,-0.4938,-0.5884,0.0,0.0,-0.5976,-0.6674,-0.7383,-0.7859,-0.8823,-0.9679,-1.0178,-1.0425,-1.0574,0.0,0.0,0.0,0.0,0.0,0.0,0.0,0.0,0.1341,0.0906,0.0,0.0,0.0,0.0,0.0,0.0,0.0,0.0,0.0,0.0,0.0,0.0,0.0,0.0,0.0,0.0,0.0,-0.047,-0.1338,-0.3037,0.0,0.0,0.0,0.0,0.0,0.0,-0.5309,-0.5266,-0.5067,-0.4994,-0.4959,-0.4179,-0.4091,-0.4772,-0.4928,-0.4988,-0.5013,-0.4825,-0.4753,-0.4629,-0.452,0.0,0.0,0.0,0.0,0.0,0.0,0.0,0.0,0.0,0.0,0.0,0.0,0.0,0.0,0.0,0.0,0.0,0.0,0.0,0.0,-0.0505,0.0,0.0,0.0,0.0,0.0,0.0,0.0,0.0,0.0,0.0,0.0,0.0,0.0,0.0,0.0,0.0,0.0,0.0,0.0,0.0,0.0,0.0,0.0,0.0,0.0,0.0,0.0,0.0,-0.379,-0.4245,-0.4613,-0.5414,-0.5657,-0.5858,-0.6218,-0.6836,-0.7392,-0.7513,-0.8151,-0.892,-0.9489,-0.9597,-0.9781,0.4755,0.0,0.0,0.0,0.0,0.2884,0.2691,0.2445,0.2329,0.2143,0.1944,0.191,0.0,0.0,0.0,0.0,0.0,0.0,0.0,0.0,0.0,0.0,0.0,0.0,0.0,0.0,0.0,-0.0133,-0.0425,-0.1531,-0.2323,-0.2827,0.0,0.0,0.0,0.0,-0.3392,-0.3463,-0.3437,-0.3392,-0.3389,-0.3149,-0.3134,-0.332,-0.3345,-0.3326,-0.3253,-0.3201,-0.3356,-0.3688,-0.3667,0.0,0.0,0.0,0.0,0.0,0.0,0.0,0.0,0.0,0.0,0.0,0.0,0.0,0.0,0.0,0.0,0.0,0.0,0.0,-0.037,-0.0137,0.0,0.0,0.0,0.0,0.0,0.0,0.0,0.0,0.0,0.0,0.0,0.0,0.0,0.0,0.0,0.0,0.0,0.0,0.0,0.0,0.0,0.0,0.0,0.0,0.0,0.0,-0.0248,-0.0889,-0.2115,-0.2384,-0.2968,-0.452,-0.4866,-0.5098,-0.5795,-0.6113,-0.6471,-0.6956,-0.7294,-0.7666,-0.8311,-0.8483,-0.8728,0.5825,0.5262,0.4485,0.4158,0.4146,0.4092,0.386,0.3538,0.3444,0.3214,0.2835,0.2804,0.279,0.279,0.2725,0.0,0.0,0.0,0.0522,0.0501,0.0174,0.0,0.0,0.0,0.0,0.0,0.0,0.0,0.0,-0.0542,-0.1013,-0.1548,0.0,0.0,-0.2581,-0.2594,-0.2624,-0.2671,-0.2643,-0.2624,-0.2626,-0.2534,-0.2383,-0.2143,-0.2446,-0.2617,-0.26,-0.2525,-0.2637,-0.2965,-0.2898,-0.3086,0.0,0.0,0.0,0.0,0.0,0.0,0.0,0.0,0.0,0.0,0.0,-0.3675,-0.2864,0.0,0.0,0.0,-0.0298,0.0,0.0,0.0,0.0,0.0,0.0,0.0,0.0,0.0,0.0,0.0,0.0,0.0,0.0,0.0,0.0,0.0,0.0,0.0,0.0,0.0,0.0,0.0,0.0,0.0,0.0,0.0,0.0,0.0,0.0,0.0,-0.1299,-0.1479,-0.2041,-0.3373,-0.4074,-0.4464,-0.499,-0.538,-0.5762,-0.6268,-0.6343,-0.6593,-0.733,-0.747,-0.771,0.6377,0.6276,0.5956,0.584,0.5837,0.5827,0.5345,0.4612,0.4604,0.4092,0.3289,0.3174,0.3101,0.309,0.2879,0.0,0.2781,0.1843,0.1392,0.1358,0.0524,0.0,0.0,0.0,0.0,0.0,0.0,0.0,0.0,0.0,0.0,0.0,-0.165,-0.2477,-0.248,-0.2475,-0.2473,-0.247,-0.2342,-0.2308,-0.2306,-0.2126,-0.1755,-0.1227,-0.1929,-0.2338,-0.2465,-0.238,-0.2315,-0.2366,-0.2199,-0.2145,-0.2191,0.0,0.0,0.0,0.0,0.0,0.0,0.0,0.0,0.0,0.0,0.0,0.0,0.0,0.0,0.0,0.0,0.0,0.0,0.0,0.0,0.0,0.0,0.0,0.0,0.0,0.0,0.0,0.0,0.0,0.0,0.0,0.0,0.0,0.0,0.0,0.0,0.0,0.0,0.0,0.0,0.0,0.0,0.0,0.0,0.0,0.0,0.0,-0.0976,-0.1144,-0.1543,-0.2452,-0.3249,-0.3851,-0.3982,-0.474,-0.5369,-0.5576,-0.5528,-0.566,-0.6396,-0.6593,-0.6794,0.6988,0.6293,0.6221,0.6187,0.6142,0.6023,0.5825,0.563,0.5521,0.5309,0.5005,0.4972,0.49,0.4767,0.4028,0.3694,0.365,0.2771,0.2366,0.2299,0.1422,0.0979,0.094,0.0337,0.0,0.0,0.0,0.0,0.0,0.0,0.0,0.0,-0.043,-0.0638,-0.0623,-0.0639,-0.063,-0.0659,-0.0597,-0.0595,-0.0595,-0.0562,-0.045,-0.0312,-0.0482,-0.0597,-0.0631,-0.0612,-0.0872,-0.1417,-0.1393,-0.1618,-0.2177,-0.2188,0.0,0.0,0.0,0.0,0.0,0.0,0.0,0.0,0.0,-0.1716,-0.1177,0.0,-0.0211,0.0,0.0,0.0,0.0,0.0,0.0,0.0,0.0,0.0,0.0,0.0,0.0,0.0,0.0,0.0,0.0,0.0,0.0,0.0,0.0,0.0,0.0,0.0,0.0,0.0,0.0,0.0,0.0,0.0,0.0,0.0,0.0,0.0,0.0,-0.0303,-0.0605,-0.1441,-0.1775,-0.2442,-0.3713,-0.4181,-0.4592,-0.5236,-0.5419,-0.5462,-0.5653,-0.5716,-0.5894,0.8161,0.7629,0.7633,0.7629,0.7587,0.6543,0.6132,0.6122,0.5973,0.5861,0.5776,0.565,0.5504,0.5362,0.4855,0.4619,0.4553,0.368,0.3278,0.3245,0.2342,0.1942,0.1908,0.0995,0.059,0.058,0.0189,0.0,0.0,0.0,0.0,0.0,0.0,0.0,0.0,0.0,0.0,0.0,0.0,0.0,0.0,0.0,0.0,0.0,0.0,0.0,0.0,0.0,-0.0171,-0.0589,-0.0617,-0.0773,-0.1181,-0.1224,-0.1225,0.0,0.0,0.0,0.0,0.0,0.0,0.0,0.0,0.0,0.0,0.0,0.0,0.0,0.0,0.0,0.0,0.0,0.0,0.0,0.0,0.0,0.0,0.0,0.0,0.0,0.0,0.0,0.0,0.0,0.0,0.0,0.0349,0.0459,0.0107,0.0325,0.058,0.0573,0.0572,0.0426,0.0069,0.0,0.0,0.0,0.0,0.0,0.0,0.0,-0.0168,-0.0639,-0.104,-0.1574,-0.2609,-0.3473,-0.4104,-0.4531,-0.4993,-0.5257,-0.5289,-0.5209,-0.5308,0.941,0.9296,0.9296,0.9296,0.9183,0.7375,0.6535,0.6409,0.6126,0.5973,0.5919,0.5681,0.5521,0.5395,0.5395,0.5395,0.5326,0.4553,0.4184,0.4115,0.3232,0.2835,0.2808,0.1882,0.1376,0.1277,0.0515,0.0088,0.0,0.0,0.0,0.0,0.0,0.0,0.0,0.0,0.0,0.0,0.0,0.0,0.0,0.0,0.0,0.0,0.0,0.0,0.0,0.0,0.0,0.0,0.0,0.0,0.0,0.0,0.0,0.0,0.0,0.0,0.0,0.0,0.0,0.0,0.0,0.0,0.0,0.0,0.0,0.0,0.0,0.0,0.0,0.0,0.0,0.0,0.0,0.0,0.0,0.0063,0.016,0.0128,0.023,0.0,0.0,0.0336,0.0,0.0506,0.1078,0.1266,0.0605,0.104,0.1493,0.1463,0.1494,0.1208,0.0441,0.0,0.0,0.0,0.0,0.0,0.0,0.0,0.0,0.0,-0.0605,-0.114,-0.1274,-0.2584,-0.3597,-0.3852,-0.4497,-0.5018,-0.509,-0.5032,-0.487,1.0045,0.9296,0.9296,0.9296,0.9248,0.8612,0.7949,0.7215,0.6369,0.5898,0.5664,0.5518,0.5419,0.5395,0.5395,0.5395,0.5395,0.5226,0.5126,0.512,0.4083,0.3663,0.3668,0.2573,0.1767,0.1302,0.1017,0.058,0.0,0.0,0.0,0.0,0.0,0.0,0.0,0.0,0.0,0.0,0.0,0.0,0.0,0.0,0.0,0.0,0.0,0.0,0.0,0.0,0.0,0.0,0.0,0.0,0.0,0.0,0.0,0.0,0.0,0.0,0.0,0.0,0.0,0.0,-0.017,-0.0169,0.0,0.0,0.0,0.0,0.0,0.0,0.0,0.0,0.0,0.0,0.0,0.0,0.0,0.0527,0.0901,0.0901,0.153,0.2012,0.1983,0.2114,0.2143,0.2111,0.231,0.2351,0.221,0.2286,0.2444,0.243,0.2435,0.2091,0.1208,0.104,0.0739,0.0,0.0,0.0,0.0,0.0,0.0,0.0,-0.0135,-0.0504,-0.1138,-0.2095,-0.2941,-0.3648,-0.4289,-0.4847,-0.5042,-0.5073,-0.5019,1.1242,1.0801,1.0801,1.0763,0.0,0.9924,0.9284,0.8709,0.7579,0.672,0.6135,0.5626,0.5395,0.5395,0.5395,0.5395,0.5395,0.5395,0.5395,0.5352,0.4742,0.449,0.4517,0.3397,0.2731,0.243,0.189,0.1448,0.1091,0.0727,0.0532,0.0532,0.0196,0.0,0.0,0.0,0.0,0.0,0.0,0.0,0.0,0.0,0.0,0.0,0.0,0.0,0.0,0.0,0.0,0.0,0.0,0.0,0.0,0.0,0.0,0.0,0.0,0.0,0.0,0.0,0.0,0.0,0.0,0.0,0.0,0.0,0.0,0.0,0.0,0.0,0.0,0.0335,0.0542,0.0542,0.0861,0.1087,0.1118,0.1399,0.1622,0.1691,0.2159,0.2506,0.2508,0.2601,0.2676,0.2744,0.3078,0.3345,0.3347,0.3345,0.3347,0.3345,0.3345,0.3013,0.2177,0.154,0.1206,0.0706,0.0303,0.0,0.0,0.0,0.0,0.0,0.0,0.0,-0.0589,-0.1302,-0.2059,-0.2848,-0.3622,-0.4315,-0.476,-0.4853,-0.4782,1.2305,1.2305,1.2305,1.2305,1.2204,1.1142,1.0526,1.019,0.0,0.0,0.0,0.5947,0.5557,0.5395,0.5395,0.5395,0.5395,0.5395,0.5395,0.5385,0.5176,0.5073,0.5051,0.4198,0.37,0.3569,0.2778,0.2341,0.2176,0.1591,0.1284,0.1228,0.0556,0.0194,0.0194,0.0305,0.0361,0.0333,0.0251,0.0251,0.0361,0.0363,0.0363,0.0361,0.0363,0.0392,0.0392,0.0392,0.0392,0.0392,0.0252,0.0196,0.0196,0.0084,0.0,0.0,0.0,0.0,0.0,0.0,0.0,0.0,0.0,0.0,0.0,0.0,0.0,0.0,0.0,0.0,0.0182,0.074,0.1135,0.128,0.1844,0.2178,0.2209,0.234,0.241,0.2425,0.2717,0.2916,0.2993,0.3099,0.3131,0.3276,0.3849,0.4251,0.4251,0.4248,0.4251,0.4251,0.4251,0.3949,0.3078,0.2175,0.1541,0.124,0.0538,0.0,0.0,0.0,0.0,0.0,0.0,0.0,0.0,-0.0674,-0.1266,-0.1876,-0.2855,-0.3719,-0.4289,-0.4495,-0.4525,1.2305,1.2305,1.2305,1.2305,1.2278,1.1876,1.1377,1.0737,0.8865,0.7531,0.6719,0.6588,0.6075,0.5395,0.5395,0.5395,0.5395,0.5395,0.5395,0.5378,0.5074,0.4982,0.5073,0.4603,0.4103,0.3619,0.3286,0.2815,0.2232,0.2119,0.2037,0.1944,0.1301,0.0936,0.099,0.1445,0.1713,0.1714,0.1213,0.1213,0.1715,0.1843,0.1845,0.1745,0.1815,0.1896,0.1898,0.187,0.1898,0.1898,0.1285,0.0951,0.0922,0.0364,0.0,0.0,0.0,0.0,0.0,0.0,0.0,0.0,0.0,0.0,0.0,0.0,0.0,0.0,0.0,0.0256,0.0851,0.1075,0.1437,0.1968,0.2156,0.2204,0.2287,0.2856,0.3207,0.3154,0.3886,0.4365,0.4381,0.4536,0.4667,0.4923,0.4899,0.5153,0.5123,0.5193,0.519,0.5193,0.5193,0.4788,0.3936,0.3076,0.2271,0.1407,0.0639,0.0,0.0,0.0,0.0,0.0,0.0,0.0,0.0,-0.0604,-0.1029,-0.1344,-0.2352,-0.3271,-0.3551,-0.4061,-0.4528,1.2305,1.2305,1.2305,1.2305,1.2265,1.1817,1.1296,1.0729,0.9835,0.8935,0.8059,0.7111,0.6494,0.6075,0.5587,0.5395,0.5395,0.5395,0.5395,0.5371,0.5057,0.4955,0.4975,0.4636,0.4358,0.4072,0.399,0.3788,0.3428,0.301,0.2764,0.263,0.1888,0.1494,0.1494,0.1754,0.2091,0.2451,0.1958,0.1814,0.1997,0.2049,0.2094,0.2101,0.2097,0.211,0.2202,0.2204,0.2158,0.2092,0.1824,0.1661,0.1579,0.1328,0.1202,0.1202,0.1201,0.1034,0.0616,0.0224,0.0,0.0,0.0364,0.042,0.0,0.0,0.0,0.0532,0.0588,0.0895,0.1647,0.2065,0.2425,0.276,0.3151,0.3428,0.3483,0.3732,0.3984,0.3996,0.4393,0.4714,0.4785,0.4958,0.5117,0.5226,0.5237,0.526,0.5375,0.532,0.5237,0.5237,0.5237,0.5104,0.4614,0.3858,0.3027,0.2168,0.1308,0.0572,0.0,0.0,0.0,0.0,0.0,0.0,0.0,0.0,-0.0604,-0.1114,-0.1556,-0.2289,-0.3093,-0.3929,-0.4459,1.2305,1.2305,1.2305,1.2305,1.2251,1.1642,1.1162,1.0787,1.0653,1.0238,0.9428,0.7957,0.7177,0.692,0.6075,0.5686,0.565,0.5453,0.5308,0.5313,0.5006,0.4867,0.481,0.4614,0.4491,0.4491,0.4491,0.4491,0.4405,0.3873,0.3427,0.3124,0.2539,0.2217,0.2086,0.2211,0.2563,0.3101,0.2855,0.2615,0.2415,0.2447,0.2509,0.255,0.2489,0.2523,0.2584,0.2636,0.258,0.2453,0.2456,0.2389,0.2266,0.2177,0.2151,0.2151,0.2151,0.1938,0.1395,0.0839,0.0504,0.0504,0.1035,0.1117,0.0587,0.0476,0.0644,0.1035,0.1256,0.1647,0.2343,0.2899,0.337,0.3566,0.4095,0.4377,0.446,0.4491,0.4491,0.4505,0.4597,0.4646,0.4721,0.4887,0.5015,0.5086,0.5073,0.5152,0.533,0.523,0.511,0.51,0.51,0.5078,0.5033,0.4299,0.3462,0.2754,0.1836,0.0917,0.0,0.0,0.0,0.0,0.0,0.0,0.0,0.0,0.0,-0.0702,-0.1064,-0.1648,-0.3037,-0.3929,-0.446,1.2305,1.2305,1.2305,1.2305,1.2231,1.1635,1.1342,1.1249,1.0821,1.0593,1.0333,0.946,0.8581,0.7827,0.6948,0.6527,0.6445,0.556,0.5155,0.5093,0.4847,0.474,0.4707,0.4569,0.4491,0.4491,0.4491,0.4491,0.4491,0.4398,0.4026,0.3478,0.3532,0.3381,0.3078,0.3493,0.382,0.3901,0.4151,0.4072,0.3685,0.3875,0.3891,0.3665,0.3757,0.3817,0.3748,0.3932,0.3936,0.3799,0.3444,0.3212,0.2958,0.2395,0.2028,0.2053,0.2028,0.2025,0.2083,0.2035,0.1925,0.2009,0.2035,0.2063,0.1953,0.198,0.1703,0.1424,0.1758,0.2425,0.3065,0.3287,0.3649,0.4208,0.4405,0.4491,0.4491,0.4491,0.4491,0.4491,0.4515,0.4563,0.4682,0.4735,0.485,0.5049,0.4972,0.5036,0.527,0.5206,0.509,0.5093,0.5096,0.509,0.4978,0.4261,0.3518,0.2708,0.1771,0.1,0.0,0.0,0.0,0.0,0.0,0.0,0.0,0.0,0.0,0.0,-0.0811,-0.1619,-0.301,-0.3984,-0.4405,1.2305,1.2305,1.2305,1.2198,1.1991,1.1597,1.1295,1.1129,1.0767,1.0586,1.0561,1.0212,0.9588,0.871,0.734,0.6719,0.6674,0.6053,0.5505,0.5136,0.5266,0.5118,0.4702,0.4563,0.4491,0.4491,0.4491,0.4491,0.4474,0.4379,0.4171,0.3886,0.3926,0.3811,0.3664,0.3895,0.3994,0.3998,0.4203,0.4176,0.3975,0.4021,0.4072,0.4031,0.3948,0.3931,0.3991,0.4058,0.4018,0.389,0.3805,0.369,0.3538,0.3299,0.3187,0.3164,0.2835,0.2721,0.2837,0.2454,0.2204,0.2204,0.2649,0.2732,0.2313,0.3012,0.3259,0.2591,0.2674,0.3176,0.3873,0.3984,0.4153,0.4432,0.4491,0.4491,0.4491,0.4487,0.4491,0.4491,0.4491,0.4536,0.4583,0.4636,0.4772,0.4945,0.4877,0.4908,0.5162,0.5066,0.5026,0.5066,0.5032,0.4978,0.4934,0.4682,0.3992,0.3252,0.2489,0.166,0.0826,0.024,0.0,0.0,0.0,0.0,0.0,0.0,0.0,0.0,-0.1061,-0.2091,-0.3148,-0.3956,-0.4405,1.2305,1.2305,1.2305,1.2138,1.1879,1.155,1.1263,1.0975,1.0713,1.0586,1.0586,1.0586,1.0269,0.9524,0.8091,0.7376,0.7228,0.6728,0.6053,0.5379,0.5578,0.5328,0.467,0.4545,0.4491,0.4491,0.4491,0.4491,0.4474,0.4291,0.4214,0.4247,0.4089,0.4018,0.4055,0.4058,0.4055,0.4072,0.4203,0.4227,0.4155,0.4075,0.4072,0.4078,0.3886,0.3829,0.3897,0.3934,0.389,0.3771,0.3893,0.3951,0.3809,0.3897,0.3958,0.3919,0.3561,0.3398,0.3512,0.3106,0.2843,0.2871,0.34,0.3456,0.3148,0.3873,0.4181,0.3735,0.3624,0.3901,0.4349,0.4491,0.4491,0.4491,0.4491,0.4546,0.4759,0.4759,0.4897,0.5034,0.4979,0.4677,0.4556,0.4558,0.468,0.4802,0.4735,0.4762,0.4988,0.4995,0.4986,0.512,0.5074,0.4921,0.4877,0.4733,0.4413,0.3741,0.292,0.2292,0.1379,0.0616,0.0087,0.0,0.0,0.0,0.0,0.0,0.0,0.0,-0.1312,-0.2397,-0.3148,-0.3956,-0.4405,1.2305,1.2305,1.2305,1.2131,1.1879,1.155,1.1263,1.0975,1.072,1.0586,1.0586,1.0586,1.0555,1.0434,0.9492,0.8963,0.8555,0.7662,0.6718,0.5851,0.5637,0.5179,0.4553,0.4491,0.4491,0.4491,0.4491,0.4491,0.4481,0.4301,0.4317,0.4453,0.4178,0.4075,0.4193,0.4184,0.4187,0.4227,0.4368,0.4467,0.4443,0.43,0.4085,0.389,0.3825,0.3737,0.3668,0.3734,0.3761,0.3598,0.3853,0.3913,0.3809,0.3795,0.3802,0.3799,0.3902,0.3999,0.4121,0.4195,0.4267,0.4322,0.4294,0.4405,0.4181,0.4349,0.4432,0.4405,0.4349,0.4405,0.4543,0.4543,0.4543,0.457,0.4546,0.4814,0.5351,0.5437,0.5792,0.615,0.5819,0.5246,0.4625,0.4522,0.4615,0.4675,0.4607,0.4675,0.4972,0.4978,0.506,0.5206,0.5186,0.4995,0.4765,0.4677,0.4254,0.3719,0.332,0.2767,0.1825,0.0981,0.059,0.0,0.0,0.0,0.0,0.0,0.0,-0.0866,-0.1535,-0.2454,-0.34,-0.4012,-0.4405,1.2305,1.2305,1.2305,1.2131,1.1886,1.1557,1.1263,1.1008,1.072,1.0586,1.0586,1.0586,1.0586,1.0586,1.0269,0.9624,0.8778,0.8229,0.7465,0.6559,0.6298,0.5819,0.514,0.4732,0.4491,0.4491,0.4491,0.4491,0.4487,0.4409,0.4409,0.4467,0.4389,0.4334,0.4406,0.4385,0.4385,0.4389,0.4467,0.4491,0.4487,0.444,0.4284,0.4062,0.3866,0.3724,0.3607,0.3651,0.3655,0.3604,0.3706,0.3714,0.3689,0.3679,0.372,0.3795,0.3934,0.4062,0.4213,0.4385,0.4491,0.4491,0.4491,0.4491,0.4491,0.4491,0.4491,0.4487,0.4491,0.4649,0.4976,0.4787,0.468,0.5058,0.5136,0.5246,0.5519,0.59,0.6308,0.6502,0.6308,0.5932,0.5359,0.514,0.5016,0.4761,0.4672,0.4775,0.4985,0.5049,0.5059,0.5172,0.5162,0.4999,0.4738,0.466,0.4447,0.4082,0.366,0.294,0.2094,0.1397,0.0924,0.0,0.0,0.0,0.0,0.0,0.0,-0.1452,-0.2148,-0.2649,-0.3818,-0.4263,-0.4432,1.2305,1.2305,1.2305,1.2078,1.1724,1.1475,1.1202,1.0888,1.068,1.0586,1.0586,1.0586,1.0586,1.0586,1.0586,1.0048,0.9144,0.8882,0.8213,0.7172,0.6763,0.6204,0.5487,0.4814,0.4491,0.4491,0.4491,0.4491,0.4491,0.4491,0.4491,0.4487,0.4491,0.4491,0.4491,0.4491,0.4491,0.4491,0.4491,0.4491,0.4491,0.4491,0.4392,0.421,0.3974,0.3799,0.3679,0.3624,0.36,0.36,0.36,0.36,0.36,0.36,0.3645,0.375,0.391,0.4035,0.4153,0.4355,0.4491,0.4491,0.4491,0.4491,0.4491,0.4491,0.4598,0.4732,0.4838,0.5164,0.5819,0.5605,0.5386,0.5792,0.5873,0.5982,0.6199,0.6664,0.6912,0.6993,0.6993,0.661,0.5991,0.5716,0.5442,0.5081,0.4929,0.4874,0.5036,0.5052,0.5056,0.5076,0.503,0.4938,0.4765,0.4677,0.4614,0.4296,0.4125,0.3372,0.248,0.1814,0.0,0.0,0.0,0.0,0.0,0.0,0.0,0.0,-0.2287,-0.2649,-0.3569,-0.4377,-0.4491,1.2378,1.2409,1.2335,1.2186,1.173,1.1703,1.1228,1.0864,1.0726,1.0713,1.0776,1.0618,1.0586,1.0586,1.0586,1.0254,0.9738,0.9623,0.8884,0.7647,0.6923,0.6204,0.5487,0.4814,0.4491,0.4491,0.4491,0.4491,0.4491,0.4491,0.4491,0.4491,0.4491,0.4491,0.4491,0.4491,0.4491,0.4491,0.4491,0.4491,0.4491,0.4491,0.4402,0.421,0.4078,0.3948,0.3799,0.3679,0.3607,0.3614,0.3607,0.3604,0.3604,0.3614,0.3614,0.3675,0.387,0.3991,0.4041,0.4307,0.4491,0.4491,0.4491,0.4491,0.4491,0.4491,0.4732,0.5273,0.5433,0.5982,0.7117,0.6923,0.6534,0.6588,0.6615,0.6858,0.7369,0.767,0.7696,0.7696,0.7723,0.7402,0.6737,0.6271,0.5997,0.5839,0.5488,0.5288,0.5514,0.547,0.514,0.5109,0.5185,0.5136,0.4911,0.4691,0.4604,0.4477,0.4384,0.3956,0.2899,0.2093,0.1396,0.0,0.0,0.0,0.0,0.0,0.0,-0.1675,-0.2065,-0.2704,-0.3707,-0.4491,-0.4491,1.3911,1.3382,1.4019,1.3875,1.3292,1.3253,1.2872,1.2212,1.1686,1.1437,1.132,1.0832,1.0586,1.0586,1.0586,1.0378,1.0,0.9923,0.9179,0.7796,0.6945,0.6204,0.5487,0.4811,0.4491,0.4491,0.4491,0.4491,0.4491,0.4491,0.4491,0.4491,0.4491,0.4491,0.4491,0.4491,0.4491,0.4491,0.4491,0.4491,0.4491,0.4491,0.4467,0.4385,0.4227,0.4082,0.3948,0.3733,0.3658,0.3733,0.3632,0.36,0.3617,0.3696,0.3721,0.3758,0.3984,0.4127,0.4173,0.4371,0.4491,0.4491,0.4491,0.4491,0.4491,0.4491,0.4787,0.5406,0.5515,0.6155,0.7521,0.7655,0.7375,0.7375,0.7348,0.7429,0.775,0.8156,0.8401,0.846,0.848,0.8129,0.7542,0.7132,0.6984,0.6866,0.6621,0.6589,0.6899,0.6647,0.644,0.6103,0.5859,0.5464,0.5205,0.4921,0.4694,0.46,0.4521,0.4215,0.3234,0.2343,0.1675,0.0922,0.0336,0.0,0.0,0.0,0.0,-0.1535,-0.212,-0.304,-0.4125,-0.4491,-0.4491,1.4843,1.4343,1.495,1.4777,1.4115,1.409,1.3509,1.2567,1.202,1.1617,1.1257,1.0832,1.0586,1.0586,1.0586,1.0388,1.0134,1.009,0.9314,0.7946,0.7126,0.6339,0.55,0.4814,0.4491,0.4491,0.4491,0.4491,0.4491,0.4491,0.4491,0.4491,0.4491,0.4491,0.4491,0.4491,0.4491,0.4491,0.4491,0.4491,0.4491,0.4491,0.4491,0.446,0.4267,0.407,0.3977,0.3737,0.3641,0.3683,0.3645,0.3604,0.3614,0.3733,0.3812,0.387,0.4031,0.4194,0.4237,0.4406,0.4491,0.4491,0.4491,0.4491,0.4491,0.4491,0.4869,0.5706,0.5955,0.6584,0.8003,0.8246,0.8135,0.8103,0.8103,0.8129,0.8182,0.8507,0.8752,0.8752,0.8752,0.8579,0.8361,0.8037,0.7983,0.7841,0.7705,0.7619,0.7872,0.7691,0.7298,0.6812,0.6311,0.5892,0.5532,0.5184,0.4816,0.4701,0.4621,0.4148,0.3403,0.2593,0.1842,0.0839,0.0112,0.0,0.0,0.0,-0.0392,-0.1229,-0.2259,-0.3065,-0.3929,-0.4405,-0.4491,1.534,1.5305,1.5376,1.506,1.4428,1.4386,1.3605,1.2197,1.1927,1.1531,1.0895,1.0681,1.0586,1.0586,1.0586,1.0445,1.0187,1.0174,0.9475,0.8337,0.7519,0.6651,0.5375,0.4763,0.4487,0.4491,0.4491,0.4491,0.4491,0.4491,0.4491,0.4491,0.4491,0.4491,0.4491,0.4491,0.4543,0.4625,0.4598,0.4625,0.4736,0.4708,0.4708,0.4725,0.4469,0.4275,0.4154,0.383,0.36,0.3604,0.3624,0.3628,0.3609,0.3717,0.3815,0.3853,0.4068,0.4285,0.4313,0.4548,0.4649,0.4653,0.4653,0.4519,0.4519,0.4653,0.5199,0.6312,0.6583,0.7268,0.849,0.8732,0.8738,0.8752,0.8672,0.8672,0.8752,0.8778,0.8778,0.8778,0.8798,0.8858,0.8987,0.8701,0.8633,0.8714,0.8524,0.8408,0.8382,0.8374,0.7943,0.7431,0.6884,0.6241,0.584,0.5202,0.4843,0.4802,0.4677,0.4248,0.3608,0.279,0.173,0.0727,0.0,0.0,0.0,0.0,0.0,-0.1675,-0.2482,-0.3065,-0.3649,-0.4263,-0.4491,1.6862,1.6324,1.6975,1.6782,1.6089,1.6,1.5047,1.358,1.2879,1.2182,1.1469,1.0863,1.0586,1.0586,1.0586,1.0546,1.0472,1.0459,0.9749,0.8633,0.8329,0.6839,0.5163,0.4629,0.4546,0.457,0.4625,0.4491,0.4491,0.4598,0.457,0.4491,0.4598,0.4543,0.4491,0.457,0.4787,0.5164,0.5246,0.5519,0.5932,0.5964,0.6041,0.6018,0.5727,0.5291,0.4808,0.4011,0.3604,0.361,0.3706,0.3683,0.3701,0.3839,0.3992,0.4098,0.4185,0.4536,0.505,0.519,0.5214,0.5242,0.5246,0.5003,0.4546,0.4976,0.5655,0.6502,0.7052,0.7936,0.903,0.9072,0.8864,0.8778,0.8824,0.8798,0.8785,0.8778,0.8778,0.8778,0.8778,0.8918,0.9083,0.9108,0.9122,0.9481,0.9518,0.9432,0.932,0.9211,0.886,0.8155,0.7531,0.6723,0.6032,0.5333,0.4907,0.4874,0.4732,0.4524,0.3761,0.2931,0.1676,0.042,0.0,0.0,0.0,0.0,0.0,0.0,-0.2315,-0.276,-0.3763,-0.4491,-0.4491,1.7518,1.7232,1.76,1.7353,1.6707,1.6533,1.5395,1.3865,1.3221,1.2336,1.1382,1.0832,1.0586,1.0586,1.0586,1.0586,1.0586,1.0586,1.0006,0.9132,0.8445,0.7144,0.5776,0.5391,0.5391,0.5391,0.5363,0.5391,0.5418,0.5391,0.5391,0.5445,0.5391,0.5363,0.5441,0.5391,0.5555,0.59,0.5977,0.6199,0.6561,0.6588,0.6588,0.6518,0.6287,0.5805,0.5204,0.4835,0.4507,0.4118,0.4029,0.4176,0.4478,0.4641,0.4799,0.4981,0.5136,0.548,0.5815,0.5955,0.5955,0.595,0.5955,0.5796,0.5555,0.5764,0.6281,0.702,0.7589,0.8395,0.9197,0.9279,0.9072,0.8878,0.8918,0.8904,0.8838,0.8778,0.8778,0.8778,0.8818,0.8911,0.9171,0.9176,0.9444,0.975,0.9824,0.9863,0.9953,0.9907,0.9682,0.8938,0.8002,0.7136,0.6331,0.5631,0.5016,0.4918,0.4279,0.4175,0.3522,0.2693,0.1524,0.0,0.0,0.0,0.0,0.0,0.0,-0.1535,-0.1925,-0.2732,-0.3818,-0.4491,-0.4491,1.7578,1.7808,1.7519,1.71,1.659,1.623,1.4976,1.3263,1.3009,1.212,1.0926,1.0618,1.0586,1.0586,1.0586,1.0586,1.0586,1.0526,1.0114,0.934,0.8506,0.7473,0.6955,0.6448,0.6372,0.6372,0.6561,0.648,0.6344,0.6453,0.6534,0.6372,0.6453,0.6534,0.6344,0.6453,0.6615,0.6691,0.6691,0.6853,0.7047,0.7101,0.7101,0.696,0.649,0.6047,0.5764,0.5746,0.5684,0.4737,0.4626,0.4992,0.5631,0.5879,0.6036,0.6197,0.6252,0.6406,0.6691,0.6718,0.6718,0.6718,0.6723,0.6615,0.6512,0.6645,0.7068,0.7616,0.8088,0.8727,0.921,0.9546,0.9452,0.9145,0.9151,0.9111,0.8938,0.8844,0.8778,0.8778,0.8778,0.8918,0.9111,0.9257,0.9399,0.9726,0.9833,0.9973,1.0007,0.99,0.9846,0.9666,0.8605,0.7458,0.6671,0.5943,0.5357,0.487,0.3884,0.3355,0.282,0.1993,0.1069,0.0,0.0,0.0,0.0,0.0,0.0,-0.148,-0.2093,-0.3067,-0.4042,-0.4349,-0.4491,1.7236,1.6989,1.7275,1.6956,1.629,1.6124,1.4909,1.3078,1.3039,1.2182,1.0902,1.0618,1.0656,1.0618,1.0713,1.0586,1.0582,1.0349,0.9864,0.9283,0.885,0.852,0.8023,0.7262,0.6696,0.6696,0.6615,0.6615,0.6642,0.6777,0.6615,0.6696,0.6804,0.6615,0.6696,0.6804,0.6939,0.7343,0.7477,0.775,0.8129,0.8176,0.8077,0.7871,0.7241,0.6706,0.6361,0.6225,0.6299,0.6353,0.6113,0.602,0.6192,0.6245,0.6374,0.6534,0.6571,0.6812,0.7325,0.7456,0.7477,0.7482,0.745,0.7241,0.6707,0.7439,0.7833,0.8237,0.884,0.9371,0.9584,0.9853,0.978,0.9588,0.9512,0.9552,0.9461,0.9085,0.8891,0.8851,0.8818,0.8891,0.9178,0.9404,0.9559,0.9693,0.9826,0.998,0.9953,0.988,0.9866,0.9853,0.8884,0.7721,0.6968,0.6161,0.539,0.4765,0.3773,0.2979,0.2426,0.1528,0.0678,0.0,0.0,0.0,0.0,0.0,0.0,-0.1347,-0.2235,-0.304,-0.3735,-0.4125,-0.4491,1.6758,1.6707,1.6789,1.6525,1.6105,1.584,1.4922,1.3761,1.3575,1.2879,1.1942,1.1732,1.1514,1.1226,1.15,1.1465,1.0821,1.0381,1.0045,0.9611,0.9159,0.8785,0.8725,0.8129,0.7643,0.761,0.767,0.7643,0.7643,0.7584,0.7717,0.7637,0.7584,0.7723,0.7643,0.7589,0.7863,0.8129,0.8209,0.8427,0.8752,0.8804,0.8571,0.8337,0.7945,0.7652,0.7065,0.734,0.7505,0.7598,0.7517,0.7342,0.7246,0.7229,0.7309,0.7485,0.7544,0.7695,0.8125,0.8215,0.8215,0.8215,0.8215,0.8023,0.783,0.8321,0.8602,0.8821,0.9333,0.9893,0.9907,1.0184,1.0144,0.9849,0.9813,0.9826,0.9666,0.9399,0.9218,0.9185,0.9098,0.9091,0.9237,0.9464,0.9451,0.9499,0.9713,0.9866,0.9907,0.9846,0.986,0.963,0.8837,0.7987,0.7213,0.6356,0.5403,0.4632,0.3766,0.3136,0.2577,0.1523,0.0418,0.0,0.0,0.0,0.0,0.0,0.0,-0.1116,-0.1965,-0.2783,-0.3486,-0.407,-0.4377,1.626,1.6473,1.6222,1.6056,1.5938,1.5547,1.4951,1.4243,1.4183,1.3614,1.31,1.3009,1.242,1.222,1.2493,1.215,1.1287,1.0722,1.0431,0.9963,0.9383,0.8996,0.8804,0.8646,0.8586,0.8778,0.8646,0.8646,0.8646,0.8778,0.8507,0.8699,0.8725,0.8533,0.8699,0.8752,0.8646,0.8672,0.8672,0.8699,0.8778,0.8771,0.8537,0.8232,0.8327,0.8242,0.7884,0.8172,0.8612,0.8502,0.8677,0.8651,0.8517,0.8482,0.853,0.8732,0.8606,0.8587,0.86,0.8699,0.8725,0.8778,0.8752,0.8791,0.8844,0.9,0.9225,0.95,0.986,1.0187,1.0207,1.0399,1.0305,1.0057,1.0067,1.004,0.9893,0.9813,0.9816,0.9628,0.9432,0.9331,0.9357,0.9484,0.9371,0.9331,0.9593,0.9766,0.9833,0.9893,0.9953,0.9631,0.8898,0.7549,0.6665,0.6314,0.5366,0.4844,0.3946,0.3283,0.2687,0.1684,0.0,0.0,0.0,0.0,0.0,0.0,0.0,0.0,-0.1736,-0.259,-0.3322,-0.3993,-0.427,1.5919,1.5625,1.5968,1.5889,1.5537,1.541,1.4962,1.4273,1.4273,1.3756,1.313,1.3039,1.3031,1.2805,1.2522,1.2073,1.1556,1.1169,1.0711,1.0173,0.9714,0.9446,0.8956,0.8936,0.8857,0.8778,0.8778,0.8778,0.8778,0.8778,0.8778,0.8778,0.8778,0.8778,0.8778,0.8778,0.8778,0.8778,0.8778,0.8778,0.8778,0.8758,0.8644,0.8303,0.8482,0.8402,0.8368,0.855,0.8784,0.8751,0.8784,0.8771,0.8717,0.8711,0.8744,0.8758,0.8778,0.8778,0.8778,0.8778,0.8778,0.8778,0.8805,0.8931,0.9124,0.9439,0.9679,0.996,1.0214,1.0499,1.0519,1.0559,1.0553,1.0452,1.0419,1.0459,1.0412,1.0345,1.0282,1.0066,0.9822,0.9613,0.9646,0.9657,0.965,0.9713,0.9886,1.002,1.008,1.0134,1.0187,0.9687,0.9021,0.7422,0.5902,0.5759,0.5328,0.5117,0.4375,0.3445,0.2767,0.1868,0.0,0.0,0.0,0.0,0.0,0.0,0.0,0.0,-0.1562,-0.2362,-0.3015,-0.3632,-0.4258,1.5968,1.5752,1.5762,1.5615,1.543,1.542,1.5196,1.4864,1.4815,1.4599,1.4323,1.4204,1.385,1.3526,1.3629,1.3185,1.2457,1.1731,1.1285,1.083,1.0466,0.9969,0.9361,0.929,0.9061,0.8883,0.8778,0.8778,0.8778,0.8778,0.8778,0.8778,0.8778,0.8778,0.8778,0.8778,0.8778,0.8778,0.8778,0.8778,0.8778,0.8778,0.8651,0.8509,0.8529,0.8543,0.8469,0.8651,0.8798,0.8778,0.8778,0.8778,0.8778,0.8778,0.8778,0.8778,0.8778,0.8778,0.8778,0.8778,0.8778,0.8824,0.8898,0.9051,0.9284,0.9626,1.0013,1.0281,1.0414,1.0586,1.0579,1.0586,1.0586,1.0586,1.0586,1.0586,1.0586,1.0586,1.0571,1.0509,1.0256,1.0045,0.989,0.996,0.9993,1.0087,1.0194,1.0261,1.0307,1.0341,1.0367,0.9599,0.886,0.7465,0.5976,0.5591,0.5428,0.5193,0.4788,0.3846,0.2876,0.2007,0.1069,0.0,0.0,0.0,0.0,0.0,0.0,0.0,-0.1169,-0.1843,-0.2586,-0.3267,-0.3964,1.6036,1.5928,1.5557,1.542,1.542,1.542,1.541,1.542,1.5381,1.5352,1.542,1.5303,1.4763,1.4157,1.4117,1.4019,1.3328,1.2342,1.1959,1.16,1.1216,1.0618,0.9969,0.9718,0.9439,0.8831,0.8778,0.8778,0.8778,0.8778,0.8778,0.8778,0.8778,0.8778,0.8778,0.8778,0.8778,0.8778,0.8778,0.8778,0.8778,0.8765,0.8711,0.8523,0.8684,0.8684,0.8576,0.8684,0.8791,0.8778,0.8778,0.8778,0.8778,0.8778,0.8778,0.8778,0.8778,0.8778,0.8778,0.8778,0.8778,0.8785,0.9051,0.9176,0.9451,0.986,1.0301,1.0533,1.0586,1.0586,1.0586,1.0586,1.0586,1.0586,1.0586,1.0618,1.0681,1.0776,1.1014,1.0894,1.0649,1.0618,1.0583,1.0221,1.0254,1.0267,1.0405,1.0432,1.0479,1.0506,1.0299,0.9508,0.857,0.7405,0.6301,0.5624,0.5462,0.5326,0.4921,0.4215,0.3178,0.2142,0.1205,0.0,0.0,0.0,0.0,0.0,0.0,0.0,0.0,-0.1394,-0.2271,-0.3111,-0.3846,1.587,1.5498,1.5449,1.542,1.542,1.542,1.542,1.542,1.542,1.542,1.542,1.5391,1.5109,1.4529,1.3849,1.3428,1.3042,1.2798,1.2369,1.1947,1.1715,1.1065,1.0046,0.9795,0.964,0.9133,0.8936,0.8778,0.8857,0.8857,0.8778,0.8778,0.8778,0.8778,0.8778,0.8778,0.8778,0.8778,0.8778,0.8778,0.8778,0.8778,0.8778,0.8764,0.8778,0.8784,0.8711,0.8778,0.8778,0.8778,0.8778,0.8778,0.8778,0.8778,0.8778,0.8778,0.8778,0.8778,0.8778,0.8818,0.8831,0.8898,0.9111,0.9331,0.9726,1.0144,1.0512,1.0559,1.0586,1.0586,1.0586,1.0586,1.0586,1.0649,1.0713,1.0688,1.0688,1.1139,1.1344,1.1188,1.0929,1.126,1.1445,1.0937,1.0539,1.0546,1.0559,1.0579,1.0491,1.0428,0.9939,0.9026,0.8151,0.6981,0.6268,0.5624,0.5495,0.5395,0.5057,0.4483,0.3313,0.2243,0.1476,0.0,0.0,0.0,0.0,0.0,0.0,0.0,0.0,-0.1245,-0.2088,-0.2895,-0.3653,1.6338,1.6113,1.5615,1.542,1.542,1.542,1.542,1.542,1.542,1.542,1.542,1.541,1.5049,1.4346,1.3525,1.3066,1.2935,1.2915,1.2774,1.2476,1.2295,1.1857,1.1191,1.0889,1.0568,0.9865,0.9569,0.9413,0.9263,0.8956,0.8778,0.8778,0.8778,0.8778,0.8778,0.8778,0.8778,0.8778,0.8778,0.8778,0.8778,0.8778,0.8778,0.8778,0.8778,0.8778,0.8778,0.8778,0.8778,0.8778,0.8778,0.8778,0.8778,0.8778,0.8778,0.8778,0.8778,0.8778,0.8798,0.8958,0.8984,0.9144,0.9424,0.988,1.0191,1.0405,1.0586,1.0586,1.0586,1.0586,1.0586,1.0586,1.0586,1.0649,1.0863,1.0776,1.087,1.1382,1.1648,1.1406,1.1226,1.1437,1.1531,1.1069,1.0604,1.0573,1.0573,1.0579,1.0333,1.0009,0.9294,0.835,0.747,0.6527,0.5976,0.5428,0.5462,0.5395,0.5326,0.4586,0.3313,0.2278,0.1477,0.0,0.0,0.0,0.0,0.0,0.0,0.0,0.0,-0.1033,-0.1791,-0.247,-0.3299,1.6562,1.6484,1.5723,1.542,1.542,1.542,1.542,1.542,1.542,1.542,1.5342,1.5166,1.4611,1.3948,1.3281,1.2935,1.2915,1.2915,1.2915,1.2915,1.2832,1.2418,1.1848,1.1665,1.1266,1.0559,0.9917,0.9588,0.9309,0.9087,0.8778,0.8778,0.8778,0.8778,0.8778,0.8778,0.8778,0.8778,0.8778,0.8778,0.8778,0.8778,0.8778,0.8778,0.8778,0.8778,0.8778,0.8778,0.8778,0.8778,0.8778,0.8778,0.8778,0.8778,0.8778,0.8778,0.8778,0.8778,0.8851,0.8965,0.9151,0.9431,0.9744,1.0154,1.0479,1.0586,1.0586,1.0586,1.0586,1.0586,1.0586,1.0586,1.0586,1.0737,1.0982,1.0895,1.0926,1.1437,1.1593,1.1226,1.1076,1.1195,1.1195,1.0902,1.0688,1.0618,1.0586,1.0586,1.0199,0.9754,0.8903,0.7962,0.6859,0.6108,0.5752,0.5395,0.5395,0.5292,0.5259,0.4586,0.3211,0.2243,0.1442,0.0,0.0,0.0,0.0,0.0,0.0,0.0,0.0,0.0,-0.1479,-0.2181,-0.3223,1.6144,1.6105,1.5605,1.542,1.542,1.542,1.542,1.542,1.542,1.5391,1.5244,1.4582,1.3997,1.3545,1.3164,1.2915,1.2915,1.2915,1.2915,1.2915,1.2856,1.2501,1.2104,1.1749,1.1241,1.0287,0.9891,0.9484,0.9061,0.8982,0.8804,0.8778,0.8778,0.8778,0.8778,0.8778,0.8778,0.8778,0.8778,0.8778,0.8778,0.8804,0.8831,0.8857,0.8837,0.8811,0.8804,0.8883,0.8831,0.8831,0.8778,0.8778,0.8778,0.8778,0.8778,0.8778,0.8778,0.8818,0.8958,0.9031,0.9192,0.9573,0.9967,1.0287,1.0553,1.0586,1.0586,1.0586,1.0586,1.0586,1.0586,1.0586,1.0586,1.0737,1.0919,1.0895,1.1014,1.1437,1.15,1.1045,1.0926,1.1014,1.0982,1.0713,1.0656,1.0586,1.0586,1.0586,1.0034,0.9518,0.864,0.767,0.6371,0.569,0.5557,0.5395,0.5395,0.5123,0.4888,0.4082,0.2945,0.211,0.1308,0.0,0.0,0.0,0.0,0.0,0.0,0.0,0.0,0.0,-0.167,-0.2663,-0.3727,1.5928,1.5644,1.5449,1.542,1.542,1.542,1.542,1.542,1.541,1.5254,1.4961,1.416,1.3636,1.3418,1.312,1.2915,1.2915,1.2915,1.2915,1.2915,1.2832,1.2725,1.2403,1.1981,1.1516,1.0864,1.0261,0.9736,0.9491,0.9008,0.8804,0.8778,0.8778,0.8778,0.8778,0.8778,0.8778,0.8778,0.8778,0.8778,0.8778,0.8831,0.9008,0.9413,0.9413,0.9413,0.9439,0.9439,0.9185,0.891,0.8831,0.8778,0.8778,0.8778,0.8778,0.8778,0.8778,0.8965,0.9259,0.9345,0.9648,1.011,1.0372,1.0434,1.0586,1.0586,1.0586,1.0586,1.0586,1.0586,1.0586,1.0586,1.0618,1.0706,1.08,1.0863,1.1014,1.1375,1.1344,1.0863,1.0776,1.08,1.0706,1.0618,1.0586,1.0586,1.0586,1.0491,1.0034,0.932,0.8447,0.7572,0.6371,0.5591,0.5428,0.5395,0.5395,0.5024,0.4619,0.368,0.2743,0.1908,0.0,0.0,0.0,0.0,0.0,0.0,0.0,0.0,0.0,0.0,-0.1733,-0.2989,-0.4051,1.5684,1.543,1.542,1.542,1.542,1.542,1.542,1.5391,1.5264,1.4902,1.4375,1.375,1.3428,1.3262,1.3047,1.2915,1.2915,1.2915,1.2915,1.2915,1.2915,1.2915,1.2642,1.2197,1.1616,1.1316,1.0491,0.9736,0.9342,0.8982,0.8831,0.8778,0.8778,0.8778,0.8778,0.8804,0.8804,0.8778,0.8778,0.8956,0.9035,0.9159,0.9465,0.9987,1.009,1.009,1.002,0.9865,0.9536,0.9211,0.8956,0.8804,0.8778,0.8778,0.8778,0.8778,0.8831,0.9058,0.9432,0.988,1.0084,1.0318,1.0512,1.0553,1.0586,1.0586,1.0586,1.0586,1.0586,1.0586,1.0586,1.0586,1.0586,1.0681,1.0832,1.0895,1.0832,1.1014,1.0926,1.0713,1.0681,1.0681,1.0649,1.0586,1.0586,1.0586,1.0586,1.0523,1.0263,0.9416,0.8285,0.7409,0.647,0.5851,0.5395,0.5395,0.5359,0.499,0.4453,0.3513,0.2609,0.1775,0.0,0.0,0.0,0.0,0.0,0.0,0.0,0.0,0.0,0.0,-0.183,-0.3027,-0.3994,1.54,1.542,1.542,1.542,1.542,1.542,1.542,1.5313,1.4961,1.4394,1.376,1.3516,1.3301,1.3062,1.2983,1.2915,1.2915,1.2915,1.2915,1.2915,1.2915,1.2915,1.2618,1.2138,1.1391,1.0796,1.0038,0.9335,0.8936,0.9008,0.8929,0.8982,0.908,0.8956,0.8831,0.8804,0.8804,0.8804,0.8883,0.9342,0.9666,0.9788,1.0167,1.0618,1.0762,1.0796,1.072,1.0236,0.9884,0.9588,0.9035,0.8831,0.8778,0.8778,0.8778,0.8778,0.8778,0.8944,0.9257,1.009,1.0365,1.0294,1.0506,1.0579,1.0586,1.0586,1.0586,1.0586,1.0586,1.0586,1.0586,1.0586,1.0586,1.0649,1.08,1.0832,1.0769,1.0713,1.0681,1.0649,1.0618,1.0586,1.0586,1.0586,1.0586,1.0586,1.0586,1.046,1.0231,0.9352,0.8124,0.7214,0.6338,0.5851,0.5395,0.5395,0.5292,0.4924,0.4386,0.358,0.2577,0.1642,0.0,0.0,0.0,0.0,0.0,0.0,0.0,0.0,0.0,0.0,0.0,-0.3012,-0.3856,1.4894,1.5381,1.542,1.542,1.542,1.542,1.541,1.5283,1.466,1.4153,1.3812,1.3389,1.3232,1.3174,1.3032,1.2935,1.2915,1.2915,1.2915,1.2915,1.2915,1.2915,1.2593,1.1816,1.1065,1.0542,0.9814,0.9113,0.8837,0.9133,0.9413,0.9536,0.971,0.9581,0.9185,0.9133,0.9458,0.9562,0.9865,1.0269,1.044,1.0491,1.0796,1.1416,1.1466,1.1466,1.1416,1.0813,1.0312,0.9865,0.9237,0.8883,0.8804,0.8778,0.8778,0.8811,0.8824,0.9045,0.9519,1.0171,1.0519,1.0499,1.0506,1.0586,1.0586,1.0586,1.0586,1.0586,1.0586,1.0586,1.0586,1.0586,1.0586,1.0586,1.0681,1.0681,1.0618,1.0618,1.0618,1.0618,1.0586,1.0586,1.0586,1.0555,1.0523,1.0396,1.0364,1.004,0.9786,0.8903,0.7832,0.6953,0.6174,0.5719,0.5395,0.5395,0.5395,0.5193,0.4652,0.3946,0.2878,0.1776,0.0,0.0,0.0,0.0,0.0,0.0,0.0,0.0,0.0,0.0,0.0,-0.295,-0.3553,1.4932,1.5381,1.542,1.542,1.542,1.542,1.5342,1.5117,1.4562,1.425,1.4007,1.3519,1.3359,1.3418,1.3267,1.2974,1.2935,1.2915,1.2915,1.2915,1.2915,1.2915,1.2471,1.1584,1.0965,1.0415,0.9588,0.8804,0.8837,0.9465,0.9865,1.0185,1.0593,1.0244,0.9865,0.9961,1.0133,1.0236,1.0491,1.0821,1.104,1.1241,1.15,1.1981,1.2187,1.2178,1.2005,1.1525,1.0847,1.0141,0.9562,0.9035,0.8883,0.8811,0.8785,0.8811,0.9072,0.9332,0.984,1.0271,1.0553,1.0573,1.0586,1.0586,1.0586,1.0586,1.0586,1.0586,1.0586,1.0586,1.0586,1.0586,1.0586,1.0586,1.0586,1.0586,1.0586,1.0586,1.0586,1.0586,1.0586,1.0586,1.0586,1.0491,1.0466,1.0301,1.0104,0.969,0.9236,0.842,0.7572,0.6724,0.6042,0.562,0.5395,0.5395,0.5395,0.5395,0.4855,0.4181,0.3345,0.231,0.1809,0.0,0.0,0.0,0.0,0.0,0.0,0.0,0.0,0.0,0.0,-0.2916,-0.3336,1.5352,1.541,1.542,1.542,1.542,1.542,1.5186,1.4842,1.4803,1.4531,1.4133,1.4055,1.3792,1.3539,1.3477,1.3213,1.2964,1.2915,1.2915,1.2915,1.2915,1.2915,1.2495,1.1642,1.104,1.044,0.9736,0.9159,0.8962,0.9666,1.0287,1.0821,1.1149,1.1057,1.0998,1.0973,1.0973,1.0973,1.1149,1.15,1.1783,1.1873,1.2172,1.2535,1.2691,1.2715,1.251,1.2039,1.1366,1.0712,1.009,0.9458,0.9035,0.8818,0.8824,0.8991,0.9399,0.976,1.004,1.0412,1.0559,1.0586,1.0586,1.0586,1.0586,1.0586,1.0586,1.0586,1.0586,1.0586,1.0586,1.0586,1.0586,1.0586,1.0586,1.0586,1.0586,1.0586,1.0586,1.0586,1.0586,1.0586,1.0561,1.0498,1.0174,0.9786,0.946,0.8935,0.8517,0.8124,0.7279,0.6531,0.5914,0.5524,0.5395,0.5395,0.5395,0.5395,0.4957,0.4317,0.3513,0.2878,0.221,0.1475,0.0605,0.0,0.0,0.0,0.0,0.0,0.0,0.0,-0.1887,-0.2548,-0.3139,1.4874,1.5381,1.542,1.542,1.542,1.541,1.5166,1.4814,1.4785,1.4687,1.4561,1.3945,1.3812,1.388,1.334,1.3081,1.2954,1.2915,1.2915,1.2915,1.2915,1.2915,1.2569,1.194,1.1316,1.0813,1.0261,0.9555,0.9211,0.984,1.1158,1.2132,1.2049,1.2157,1.2181,1.2255,1.1916,1.1733,1.1907,1.2197,1.2427,1.2486,1.2725,1.2832,1.2915,1.2915,1.2725,1.2236,1.1566,1.0864,1.0185,0.951,0.8883,0.8971,0.9138,0.9446,0.9773,1.0047,1.0147,1.0388,1.0586,1.0586,1.0586,1.0586,1.0586,1.0586,1.0586,1.0586,1.0586,1.0586,1.0586,1.0586,1.0586,1.0586,1.0586,1.0586,1.0586,1.0586,1.0586,1.0586,1.0586,1.0586,1.0561,1.0206,0.9849,0.9332,0.8775,0.8253,0.7827,0.7437,0.6953,0.6174,0.5815,0.5458,0.5395,0.5395,0.5395,0.5326,0.499,0.4722,0.4417,0.3713,0.2711,0.1677,0.0639,0.0,0.0,0.0,0.0,0.0,0.0,0.0,-0.133,-0.1983,-0.2767,1.4962,1.5381,1.542,1.542,1.5391,1.5234,1.501,1.4862,1.4961,1.5029,1.4951,1.4346,1.4053,1.3968,1.3467,1.3076,1.2915,1.2915,1.2915,1.2915,1.2915,1.2915,1.2666,1.2163,1.1441,1.0965,1.0415,0.9692,0.9413,1.0192,1.1484,1.27,1.2915,1.2915,1.2832,1.2725,1.2593,1.251,1.2584,1.2856,1.2915,1.2915,1.2915,1.2915,1.2915,1.2915,1.2881,1.2344,1.1907,1.1316,1.0686,1.0192,0.9565,0.9446,0.9539,0.9793,0.996,1.0174,1.0314,1.0448,1.0573,1.0586,1.0586,1.0586,1.0586,1.0586,1.0586,1.0586,1.0586,1.0586,1.0586,1.0586,1.0586,1.0586,1.0586,1.0586,1.0586,1.0586,1.0586,1.0586,1.0586,1.0586,1.0396,0.9977,0.9428,0.8807,0.8156,0.754,0.7149,0.685,0.64,0.5785,0.5591,0.5395,0.5395,0.5395,0.5395,0.5395,0.5326,0.5123,0.5057,0.4015,0.2511,0.1509,0.0605,0.0,0.0,0.0,0.0,0.0,0.0,0.0,0.0,-0.1394,-0.2231,1.5391,1.542,1.542,1.5381,1.5303,1.4961,1.4775,1.4803,1.5049,1.5245,1.5108,1.4805,1.4307,1.3909,1.3467,1.3135,1.2983,1.2915,1.2915,1.2915,1.2915,1.2915,1.2725,1.2221,1.1724,1.0965,1.0407,1.0192,0.9666,1.0269,1.1459,1.2783,1.2915,1.2915,1.2915,1.2915,1.2808,1.2798,1.2798,1.2915,1.2915,1.2915,1.2915,1.2915,1.2915,1.2915,1.2915,1.2774,1.2603,1.2116,1.1697,1.1241,1.0568,0.9924,0.9935,1.0047,1.0187,1.0301,1.0466,1.0566,1.0573,1.0586,1.0586,1.0586,1.0586,1.0586,1.0586,1.0586,1.0586,1.0586,1.0586,1.0586,1.0586,1.0586,1.0586,1.0586,1.0586,1.0586,1.0586,1.0586,1.0586,1.0586,1.0491,1.011,0.953,0.8613,0.7665,0.6985,0.6629,0.6363,0.5943,0.5491,0.5458,0.5395,0.5395,0.5395,0.5395,0.5395,0.5395,0.5395,0.5226,0.3849,0.2111,0.0,0.0,0.0,0.0,0.0,0.0,0.0,0.0,0.0,0.0,0.0,-0.1468,1.542,1.542,1.542,1.5244,1.4951,1.4834,1.459,1.427,1.4358,1.4398,1.4338,1.3997,1.3799,1.3646,1.3281,1.2978,1.2954,1.2915,1.2915,1.2915,1.2915,1.2915,1.2881,1.2535,1.2089,1.174,1.1283,1.0636,1.0287,1.0644,1.1191,1.2064,1.2535,1.2915,1.2915,1.2915,1.2915,1.2915,1.2915,1.2915,1.2915,1.2915,1.2915,1.2915,1.2915,1.2915,1.2915,1.291,1.2713,1.2383,1.236,1.1851,1.1118,1.0422,1.0245,1.0412,1.0515,1.06,1.0546,1.0586,1.0586,1.0586,1.0586,1.0586,1.0586,1.0586,1.0586,1.0586,1.0586,1.0586,1.0586,1.0586,1.0586,1.0586,1.0586,1.0586,1.0586,1.0586,1.0586,1.0586,1.0586,1.0555,1.0466,1.0142,0.953,0.8613,0.7502,0.6719,0.64,0.6108,0.5782,0.5462,0.5428,0.5395,0.5395,0.5395,0.5395,0.5395,0.5395,0.5395,0.5326,0.3816,0.0,0.0,0.0,0.0,0.0,0.0,0.0,0.0,0.0,0.0,0.0,0.0,0.0,1.542,1.542,1.542,1.5166,1.4834,1.4785,1.4434,1.3899,1.3831,1.3548,1.3223,1.3327,1.348,1.3412,1.3076,1.2905,1.2905,1.2915,1.2915,1.2915,1.2915,1.2915,1.2832,1.2559,1.1866,1.1466,1.0695,1.0192,1.0415,1.0762,1.1149,1.1816,1.2495,1.2925,1.2915,1.2915,1.2925,1.2915,1.2915,1.2915,1.2915,1.2915,1.2915,1.2915,1.2915,1.2915,1.2993,1.3052,1.308,1.3027,1.3001,1.2912,1.2352,1.1869,1.1364,1.1217,1.1118,1.0989,1.0744,1.0649,1.0618,1.0618,1.0586,1.0586,1.0586,1.0586,1.0586,1.0586,1.0586,1.0586,1.0586,1.0586,1.0586,1.0586,1.0586,1.0586,1.0586,1.0586,1.0586,1.0586,1.0586,1.0586,1.053,1.0498,0.9786,0.8549,0.7437,0.6625,0.6272,0.5914,0.5591,0.5395,0.5395,0.5395,0.5395,0.5395,0.5395,0.5395,0.5395,0.4788,0.4284,0.3413,0.0,0.0,0.0,0.0,0.0,0.0,0.0,0.0,0.0,0.0,0.0,0.0,0.0,1.505,1.5118,1.505,1.485,1.4514,1.4419,1.3968,1.3378,1.3183,1.2657,1.2075,1.2748,1.3135,1.313,1.2952,1.29,1.2881,1.2915,1.2915,1.2915,1.2915,1.2725,1.2452,1.2104,1.145,1.0669,0.9865,0.9788,0.9935,1.0466,1.1149,1.181,1.2435,1.2964,1.2935,1.2964,1.2998,1.2935,1.2915,1.2915,1.2915,1.2915,1.2915,1.2915,1.2915,1.2935,1.3081,1.3267,1.3486,1.3637,1.3672,1.3544,1.3337,1.2862,1.2439,1.212,1.1965,1.1562,1.1108,1.0895,1.0776,1.0649,1.0618,1.0586,1.0586,1.0586,1.0586,1.0586,1.0586,1.0586,1.0586,1.0586,1.0586,1.0586,1.0586,1.0586,1.0586,1.0586,1.0586,1.0586,1.0586,1.0586,1.0593,1.0561,0.9843,0.8608,0.767,0.6859,0.6174,0.5851,0.5491,0.5395,0.5395,0.5395,0.5395,0.5395,0.5395,0.5395,0.5259,0.4251,0.338,0.2911,0.0,0.0,0.0,0.0,0.0,0.0,0.0,0.0,0.0,0.0,0.0,0.0,0.0,1.3455,1.3455,1.3455,1.325,1.29,1.2603,1.2482,1.2384,1.1712,1.1452,1.161,1.136,1.1555,1.2124,1.206,1.2212,1.2725,1.2774,1.2881,1.2915,1.2749,1.2452,1.203,1.1575,1.099,1.0236,0.964,0.9769,0.9961,1.0517,1.1141,1.1798,1.2925,1.3223,1.2993,1.3086,1.3281,1.3154,1.3027,1.3027,1.2993,1.2974,1.2915,1.2915,1.2915,1.313,1.3311,1.3447,1.3916,1.4244,1.4297,1.4192,1.3989,1.3647,1.3158,1.2909,1.2787,1.2197,1.1741,1.1445,1.1264,1.0618,1.0586,1.0586,1.0586,1.0586,1.0586,1.0586,1.0586,1.0586,1.0586,1.0586,1.0586,1.0586,1.0586,1.0586,1.0586,1.0586,1.0586,1.0586,1.0586,1.0586,1.0586,1.046,1.0174,0.9102,0.835,0.7507,0.6494,0.5976,0.5491,0.5428,0.5428,0.5395,0.5395,0.5395,0.5395,0.5395,0.5123,0.4151,0.338,0.2878,0.0,0.0,0.0,0.0,0.0,0.0,0.0,0.0,0.0,0.0,0.0,0.0,0.0]}]]